<?xml version="1.0" encoding="UTF-8" standalone="no" ?>
<gpx xmlns="http://www.topografix.com/GPX/1/1" xmlns:xsi="http://www.w3.org/2001/XMLSchema-instance" xsi:schemaLocation="http://www.topografix.com/GPX/1/1 http://www.topografix.com/GPX/1/1/gpx.xsd" version="1.1" creator="VisuGPX - https://www.visugpx.com">
  <metadata>
    <name>Boucle Bayons - Crête de la Colle</name>
    <desc><![CDATA[Départ de Bayons (04), très belle descente dans les sous bois.]]></desc>
  </metadata>
  <trk>
    <name><![CDATA[Bayons 22 Oct 2014]]></name>
    <trkseg>
      <trkpt lat="44.34184" lon="6.17419">
        <ele>887</ele>
        <time>2014-10-12T07:26:59Z</time>
      </trkpt>
      <trkpt lat="44.34184" lon="6.17419">
        <ele>887</ele>
        <time>2014-10-12T07:27:00Z</time>
      </trkpt>
      <trkpt lat="44.34175" lon="6.17421">
        <ele>886</ele>
        <time>2014-10-12T07:27:33Z</time>
      </trkpt>
      <trkpt lat="44.34171" lon="6.17433">
        <ele>887</ele>
        <time>2014-10-12T07:27:42Z</time>
      </trkpt>
      <trkpt lat="44.34169" lon="6.17445">
        <ele>887</ele>
        <time>2014-10-12T07:27:51Z</time>
      </trkpt>
      <trkpt lat="44.34167" lon="6.17459">
        <ele>888</ele>
        <time>2014-10-12T07:28:03Z</time>
      </trkpt>
      <trkpt lat="44.34166" lon="6.17471">
        <ele>885</ele>
        <time>2014-10-12T07:28:12Z</time>
      </trkpt>
      <trkpt lat="44.34165" lon="6.17484">
        <ele>886</ele>
        <time>2014-10-12T07:28:21Z</time>
      </trkpt>
      <trkpt lat="44.34164" lon="6.17498">
        <ele>887</ele>
        <time>2014-10-12T07:28:29Z</time>
      </trkpt>
      <trkpt lat="44.3416" lon="6.1751">
        <ele>886</ele>
        <time>2014-10-12T07:28:37Z</time>
      </trkpt>
      <trkpt lat="44.34154" lon="6.17519">
        <ele>886</ele>
        <time>2014-10-12T07:28:44Z</time>
      </trkpt>
      <trkpt lat="44.34147" lon="6.1753">
        <ele>886</ele>
        <time>2014-10-12T07:28:52Z</time>
      </trkpt>
      <trkpt lat="44.34141" lon="6.1754">
        <ele>886</ele>
        <time>2014-10-12T07:29:00Z</time>
      </trkpt>
      <trkpt lat="44.34133" lon="6.17547">
        <ele>886</ele>
        <time>2014-10-12T07:29:07Z</time>
      </trkpt>
      <trkpt lat="44.34128" lon="6.17559">
        <ele>885</ele>
        <time>2014-10-12T07:29:15Z</time>
      </trkpt>
      <trkpt lat="44.34125" lon="6.17571">
        <ele>885</ele>
        <time>2014-10-12T07:29:22Z</time>
      </trkpt>
      <trkpt lat="44.34124" lon="6.17585">
        <ele>885</ele>
        <time>2014-10-12T07:29:29Z</time>
      </trkpt>
      <trkpt lat="44.34127" lon="6.17597">
        <ele>885</ele>
        <time>2014-10-12T07:29:36Z</time>
      </trkpt>
      <trkpt lat="44.34132" lon="6.17609">
        <ele>885</ele>
        <time>2014-10-12T07:29:43Z</time>
      </trkpt>
      <trkpt lat="44.34136" lon="6.1762">
        <ele>885</ele>
        <time>2014-10-12T07:29:50Z</time>
      </trkpt>
      <trkpt lat="44.3414" lon="6.17633">
        <ele>884</ele>
        <time>2014-10-12T07:29:58Z</time>
      </trkpt>
      <trkpt lat="44.34143" lon="6.17645">
        <ele>884</ele>
        <time>2014-10-12T07:30:06Z</time>
      </trkpt>
      <trkpt lat="44.34147" lon="6.17656">
        <ele>884</ele>
        <time>2014-10-12T07:30:14Z</time>
      </trkpt>
      <trkpt lat="44.34151" lon="6.17669">
        <ele>883</ele>
        <time>2014-10-12T07:30:22Z</time>
      </trkpt>
      <trkpt lat="44.34155" lon="6.17682">
        <ele>883</ele>
        <time>2014-10-12T07:30:29Z</time>
      </trkpt>
      <trkpt lat="44.34158" lon="6.17695">
        <ele>883</ele>
        <time>2014-10-12T07:30:36Z</time>
      </trkpt>
      <trkpt lat="44.34163" lon="6.17706">
        <ele>883</ele>
        <time>2014-10-12T07:30:43Z</time>
      </trkpt>
      <trkpt lat="44.34169" lon="6.17717">
        <ele>889</ele>
        <time>2014-10-12T07:30:51Z</time>
      </trkpt>
      <trkpt lat="44.34175" lon="6.17727">
        <ele>888</ele>
        <time>2014-10-12T07:30:59Z</time>
      </trkpt>
      <trkpt lat="44.34182" lon="6.17737">
        <ele>888</ele>
        <time>2014-10-12T07:31:07Z</time>
      </trkpt>
      <trkpt lat="44.34188" lon="6.17747">
        <ele>889</ele>
        <time>2014-10-12T07:31:16Z</time>
      </trkpt>
      <trkpt lat="44.34195" lon="6.17757">
        <ele>888</ele>
        <time>2014-10-12T07:31:24Z</time>
      </trkpt>
      <trkpt lat="44.34201" lon="6.17767">
        <ele>888</ele>
        <time>2014-10-12T07:31:32Z</time>
      </trkpt>
      <trkpt lat="44.34206" lon="6.17778">
        <ele>889</ele>
        <time>2014-10-12T07:31:39Z</time>
      </trkpt>
      <trkpt lat="44.34211" lon="6.17789">
        <ele>889</ele>
        <time>2014-10-12T07:31:46Z</time>
      </trkpt>
      <trkpt lat="44.34215" lon="6.17801">
        <ele>889</ele>
        <time>2014-10-12T07:31:53Z</time>
      </trkpt>
      <trkpt lat="44.34219" lon="6.17813">
        <ele>889</ele>
        <time>2014-10-12T07:32:01Z</time>
      </trkpt>
      <trkpt lat="44.34224" lon="6.17825">
        <ele>889</ele>
        <time>2014-10-12T07:32:09Z</time>
      </trkpt>
      <trkpt lat="44.34228" lon="6.17837">
        <ele>889</ele>
        <time>2014-10-12T07:32:17Z</time>
      </trkpt>
      <trkpt lat="44.34232" lon="6.17849">
        <ele>889</ele>
        <time>2014-10-12T07:32:25Z</time>
      </trkpt>
      <trkpt lat="44.34237" lon="6.1786">
        <ele>888</ele>
        <time>2014-10-12T07:32:34Z</time>
      </trkpt>
      <trkpt lat="44.34241" lon="6.17872">
        <ele>888</ele>
        <time>2014-10-12T07:32:42Z</time>
      </trkpt>
      <trkpt lat="44.34246" lon="6.17885">
        <ele>888</ele>
        <time>2014-10-12T07:32:50Z</time>
      </trkpt>
      <trkpt lat="44.3425" lon="6.17897">
        <ele>888</ele>
        <time>2014-10-12T07:32:58Z</time>
      </trkpt>
      <trkpt lat="44.34255" lon="6.17909">
        <ele>891</ele>
        <time>2014-10-12T07:33:06Z</time>
      </trkpt>
      <trkpt lat="44.34259" lon="6.17921">
        <ele>890</ele>
        <time>2014-10-12T07:33:14Z</time>
      </trkpt>
      <trkpt lat="44.34263" lon="6.17934">
        <ele>891</ele>
        <time>2014-10-12T07:33:22Z</time>
      </trkpt>
      <trkpt lat="44.34267" lon="6.17946">
        <ele>891</ele>
        <time>2014-10-12T07:33:30Z</time>
      </trkpt>
      <trkpt lat="44.34272" lon="6.17958">
        <ele>891</ele>
        <time>2014-10-12T07:33:38Z</time>
      </trkpt>
      <trkpt lat="44.34277" lon="6.17969">
        <ele>891</ele>
        <time>2014-10-12T07:33:46Z</time>
      </trkpt>
      <trkpt lat="44.34282" lon="6.17982">
        <ele>891</ele>
        <time>2014-10-12T07:33:55Z</time>
      </trkpt>
      <trkpt lat="44.34285" lon="6.17993">
        <ele>892</ele>
        <time>2014-10-12T07:34:03Z</time>
      </trkpt>
      <trkpt lat="44.34289" lon="6.18004">
        <ele>891</ele>
        <time>2014-10-12T07:34:10Z</time>
      </trkpt>
      <trkpt lat="44.34294" lon="6.18016">
        <ele>891</ele>
        <time>2014-10-12T07:34:18Z</time>
      </trkpt>
      <trkpt lat="44.34298" lon="6.18029">
        <ele>891</ele>
        <time>2014-10-12T07:34:26Z</time>
      </trkpt>
      <trkpt lat="44.34302" lon="6.18042">
        <ele>891</ele>
        <time>2014-10-12T07:34:34Z</time>
      </trkpt>
      <trkpt lat="44.34306" lon="6.18054">
        <ele>891</ele>
        <time>2014-10-12T07:34:42Z</time>
      </trkpt>
      <trkpt lat="44.3431" lon="6.18065">
        <ele>892</ele>
        <time>2014-10-12T07:34:50Z</time>
      </trkpt>
      <trkpt lat="44.34314" lon="6.18077">
        <ele>892</ele>
        <time>2014-10-12T07:34:58Z</time>
      </trkpt>
      <trkpt lat="44.34318" lon="6.18088">
        <ele>893</ele>
        <time>2014-10-12T07:35:06Z</time>
      </trkpt>
      <trkpt lat="44.34322" lon="6.181">
        <ele>893</ele>
        <time>2014-10-12T07:35:14Z</time>
      </trkpt>
      <trkpt lat="44.34327" lon="6.18111">
        <ele>893</ele>
        <time>2014-10-12T07:35:22Z</time>
      </trkpt>
      <trkpt lat="44.34331" lon="6.18123">
        <ele>893</ele>
        <time>2014-10-12T07:35:30Z</time>
      </trkpt>
      <trkpt lat="44.34336" lon="6.18135">
        <ele>897</ele>
        <time>2014-10-12T07:35:39Z</time>
      </trkpt>
      <trkpt lat="44.34341" lon="6.18146">
        <ele>897</ele>
        <time>2014-10-12T07:35:47Z</time>
      </trkpt>
      <trkpt lat="44.34346" lon="6.18157">
        <ele>897</ele>
        <time>2014-10-12T07:35:55Z</time>
      </trkpt>
      <trkpt lat="44.34351" lon="6.18168">
        <ele>896</ele>
        <time>2014-10-12T07:36:02Z</time>
      </trkpt>
      <trkpt lat="44.34354" lon="6.1818">
        <ele>897</ele>
        <time>2014-10-12T07:36:10Z</time>
      </trkpt>
      <trkpt lat="44.34358" lon="6.18193">
        <ele>898</ele>
        <time>2014-10-12T07:36:18Z</time>
      </trkpt>
      <trkpt lat="44.34361" lon="6.18206">
        <ele>898</ele>
        <time>2014-10-12T07:36:26Z</time>
      </trkpt>
      <trkpt lat="44.34364" lon="6.18219">
        <ele>898</ele>
        <time>2014-10-12T07:36:34Z</time>
      </trkpt>
      <trkpt lat="44.34368" lon="6.18232">
        <ele>898</ele>
        <time>2014-10-12T07:36:42Z</time>
      </trkpt>
      <trkpt lat="44.34373" lon="6.18242">
        <ele>898</ele>
        <time>2014-10-12T07:36:50Z</time>
      </trkpt>
      <trkpt lat="44.34379" lon="6.18253">
        <ele>898</ele>
        <time>2014-10-12T07:36:58Z</time>
      </trkpt>
      <trkpt lat="44.34386" lon="6.18264">
        <ele>898</ele>
        <time>2014-10-12T07:37:06Z</time>
      </trkpt>
      <trkpt lat="44.34392" lon="6.18275">
        <ele>898</ele>
        <time>2014-10-12T07:37:14Z</time>
      </trkpt>
      <trkpt lat="44.34398" lon="6.18284">
        <ele>898</ele>
        <time>2014-10-12T07:37:22Z</time>
      </trkpt>
      <trkpt lat="44.34405" lon="6.18295">
        <ele>898</ele>
        <time>2014-10-12T07:37:30Z</time>
      </trkpt>
      <trkpt lat="44.3441" lon="6.18305">
        <ele>898</ele>
        <time>2014-10-12T07:37:37Z</time>
      </trkpt>
      <trkpt lat="44.34417" lon="6.18316">
        <ele>898</ele>
        <time>2014-10-12T07:37:45Z</time>
      </trkpt>
      <trkpt lat="44.34423" lon="6.18325">
        <ele>904</ele>
        <time>2014-10-12T07:37:53Z</time>
      </trkpt>
      <trkpt lat="44.3443" lon="6.18336">
        <ele>904</ele>
        <time>2014-10-12T07:38:01Z</time>
      </trkpt>
      <trkpt lat="44.34437" lon="6.18346">
        <ele>906</ele>
        <time>2014-10-12T07:38:09Z</time>
      </trkpt>
      <trkpt lat="44.34443" lon="6.18357">
        <ele>908</ele>
        <time>2014-10-12T07:38:18Z</time>
      </trkpt>
      <trkpt lat="44.34448" lon="6.18368">
        <ele>909</ele>
        <time>2014-10-12T07:38:26Z</time>
      </trkpt>
      <trkpt lat="44.34453" lon="6.18379">
        <ele>910</ele>
        <time>2014-10-12T07:38:34Z</time>
      </trkpt>
      <trkpt lat="44.34458" lon="6.1839">
        <ele>910</ele>
        <time>2014-10-12T07:38:42Z</time>
      </trkpt>
      <trkpt lat="44.34463" lon="6.18401">
        <ele>910</ele>
        <time>2014-10-12T07:38:51Z</time>
      </trkpt>
      <trkpt lat="44.3447" lon="6.1841">
        <ele>911</ele>
        <time>2014-10-12T07:39:01Z</time>
      </trkpt>
      <trkpt lat="44.34476" lon="6.1842">
        <ele>909</ele>
        <time>2014-10-12T07:39:09Z</time>
      </trkpt>
      <trkpt lat="44.34483" lon="6.1843">
        <ele>909</ele>
        <time>2014-10-12T07:39:16Z</time>
      </trkpt>
      <trkpt lat="44.34489" lon="6.1844">
        <ele>908</ele>
        <time>2014-10-12T07:39:23Z</time>
      </trkpt>
      <trkpt lat="44.34495" lon="6.1845">
        <ele>907</ele>
        <time>2014-10-12T07:39:31Z</time>
      </trkpt>
      <trkpt lat="44.34503" lon="6.18459">
        <ele>916</ele>
        <time>2014-10-12T07:39:39Z</time>
      </trkpt>
      <trkpt lat="44.3451" lon="6.18468">
        <ele>915</ele>
        <time>2014-10-12T07:39:47Z</time>
      </trkpt>
      <trkpt lat="44.34517" lon="6.18477">
        <ele>914</ele>
        <time>2014-10-12T07:39:55Z</time>
      </trkpt>
      <trkpt lat="44.34523" lon="6.18488">
        <ele>913</ele>
        <time>2014-10-12T07:40:03Z</time>
      </trkpt>
      <trkpt lat="44.34529" lon="6.18498">
        <ele>914</ele>
        <time>2014-10-12T07:40:11Z</time>
      </trkpt>
      <trkpt lat="44.34535" lon="6.18507">
        <ele>907</ele>
        <time>2014-10-12T07:40:19Z</time>
      </trkpt>
      <trkpt lat="44.34543" lon="6.18515">
        <ele>907</ele>
        <time>2014-10-12T07:40:27Z</time>
      </trkpt>
      <trkpt lat="44.3455" lon="6.18525">
        <ele>908</ele>
        <time>2014-10-12T07:40:35Z</time>
      </trkpt>
      <trkpt lat="44.34557" lon="6.18535">
        <ele>908</ele>
        <time>2014-10-12T07:40:46Z</time>
      </trkpt>
      <trkpt lat="44.34563" lon="6.18546">
        <ele>907</ele>
        <time>2014-10-12T07:40:54Z</time>
      </trkpt>
      <trkpt lat="44.34568" lon="6.18557">
        <ele>907</ele>
        <time>2014-10-12T07:41:03Z</time>
      </trkpt>
      <trkpt lat="44.3457" lon="6.1857">
        <ele>906</ele>
        <time>2014-10-12T07:41:14Z</time>
      </trkpt>
      <trkpt lat="44.34576" lon="6.1858">
        <ele>906</ele>
        <time>2014-10-12T07:41:56Z</time>
      </trkpt>
      <trkpt lat="44.34573" lon="6.18592">
        <ele>906</ele>
        <time>2014-10-12T07:42:23Z</time>
      </trkpt>
      <trkpt lat="44.3457" lon="6.18605">
        <ele>906</ele>
        <time>2014-10-12T07:42:31Z</time>
      </trkpt>
      <trkpt lat="44.34568" lon="6.18617">
        <ele>907</ele>
        <time>2014-10-12T07:42:38Z</time>
      </trkpt>
      <trkpt lat="44.34563" lon="6.18628">
        <ele>907</ele>
        <time>2014-10-12T07:42:51Z</time>
      </trkpt>
      <trkpt lat="44.34556" lon="6.18637">
        <ele>908</ele>
        <time>2014-10-12T07:43:01Z</time>
      </trkpt>
      <trkpt lat="44.34551" lon="6.18648">
        <ele>908</ele>
        <time>2014-10-12T07:43:11Z</time>
      </trkpt>
      <trkpt lat="44.34547" lon="6.1866">
        <ele>908</ele>
        <time>2014-10-12T07:43:20Z</time>
      </trkpt>
      <trkpt lat="44.34545" lon="6.18673">
        <ele>914</ele>
        <time>2014-10-12T07:43:29Z</time>
      </trkpt>
      <trkpt lat="44.34543" lon="6.18686">
        <ele>915</ele>
        <time>2014-10-12T07:43:38Z</time>
      </trkpt>
      <trkpt lat="44.34544" lon="6.187">
        <ele>915</ele>
        <time>2014-10-12T07:43:48Z</time>
      </trkpt>
      <trkpt lat="44.34544" lon="6.18712">
        <ele>916</ele>
        <time>2014-10-12T07:43:57Z</time>
      </trkpt>
      <trkpt lat="44.34543" lon="6.18725">
        <ele>917</ele>
        <time>2014-10-12T07:44:07Z</time>
      </trkpt>
      <trkpt lat="44.34543" lon="6.18738">
        <ele>918</ele>
        <time>2014-10-12T07:44:20Z</time>
      </trkpt>
      <trkpt lat="44.34542" lon="6.18751">
        <ele>927</ele>
        <time>2014-10-12T07:44:38Z</time>
      </trkpt>
      <trkpt lat="44.34541" lon="6.18764">
        <ele>927</ele>
        <time>2014-10-12T07:44:48Z</time>
      </trkpt>
      <trkpt lat="44.3454" lon="6.18777">
        <ele>928</ele>
        <time>2014-10-12T07:44:57Z</time>
      </trkpt>
      <trkpt lat="44.34539" lon="6.1879">
        <ele>929</ele>
        <time>2014-10-12T07:45:06Z</time>
      </trkpt>
      <trkpt lat="44.34537" lon="6.18802">
        <ele>930</ele>
        <time>2014-10-12T07:45:14Z</time>
      </trkpt>
      <trkpt lat="44.34533" lon="6.18815">
        <ele>930</ele>
        <time>2014-10-12T07:45:23Z</time>
      </trkpt>
      <trkpt lat="44.34529" lon="6.18827">
        <ele>930</ele>
        <time>2014-10-12T07:45:31Z</time>
      </trkpt>
      <trkpt lat="44.34526" lon="6.18839">
        <ele>938</ele>
        <time>2014-10-12T07:45:39Z</time>
      </trkpt>
      <trkpt lat="44.34522" lon="6.18851">
        <ele>939</ele>
        <time>2014-10-12T07:45:47Z</time>
      </trkpt>
      <trkpt lat="44.34519" lon="6.18863">
        <ele>940</ele>
        <time>2014-10-12T07:45:55Z</time>
      </trkpt>
      <trkpt lat="44.34514" lon="6.18874">
        <ele>941</ele>
        <time>2014-10-12T07:46:03Z</time>
      </trkpt>
      <trkpt lat="44.34509" lon="6.18885">
        <ele>941</ele>
        <time>2014-10-12T07:46:13Z</time>
      </trkpt>
      <trkpt lat="44.34504" lon="6.18896">
        <ele>941</ele>
        <time>2014-10-12T07:46:23Z</time>
      </trkpt>
      <trkpt lat="44.34499" lon="6.18906">
        <ele>934</ele>
        <time>2014-10-12T07:46:31Z</time>
      </trkpt>
      <trkpt lat="44.34492" lon="6.18917">
        <ele>937</ele>
        <time>2014-10-12T07:46:40Z</time>
      </trkpt>
      <trkpt lat="44.34486" lon="6.18927">
        <ele>938</ele>
        <time>2014-10-12T07:46:48Z</time>
      </trkpt>
      <trkpt lat="44.34481" lon="6.18939">
        <ele>938</ele>
        <time>2014-10-12T07:46:57Z</time>
      </trkpt>
      <trkpt lat="44.34477" lon="6.18951">
        <ele>939</ele>
        <time>2014-10-12T07:47:06Z</time>
      </trkpt>
      <trkpt lat="44.34472" lon="6.18962">
        <ele>940</ele>
        <time>2014-10-12T07:47:15Z</time>
      </trkpt>
      <trkpt lat="44.34468" lon="6.18973">
        <ele>940</ele>
        <time>2014-10-12T07:47:24Z</time>
      </trkpt>
      <trkpt lat="44.34465" lon="6.18986">
        <ele>941</ele>
        <time>2014-10-12T07:47:34Z</time>
      </trkpt>
      <trkpt lat="44.34462" lon="6.18998">
        <ele>941</ele>
        <time>2014-10-12T07:47:44Z</time>
      </trkpt>
      <trkpt lat="44.34457" lon="6.19009">
        <ele>948</ele>
        <time>2014-10-12T07:47:54Z</time>
      </trkpt>
      <trkpt lat="44.34455" lon="6.19022">
        <ele>948</ele>
        <time>2014-10-12T07:48:05Z</time>
      </trkpt>
      <trkpt lat="44.34451" lon="6.19034">
        <ele>949</ele>
        <time>2014-10-12T07:48:30Z</time>
      </trkpt>
      <trkpt lat="44.34447" lon="6.19046">
        <ele>949</ele>
        <time>2014-10-12T07:48:40Z</time>
      </trkpt>
      <trkpt lat="44.34445" lon="6.19059">
        <ele>949</ele>
        <time>2014-10-12T07:48:50Z</time>
      </trkpt>
      <trkpt lat="44.34441" lon="6.19071">
        <ele>949</ele>
        <time>2014-10-12T07:49:00Z</time>
      </trkpt>
      <trkpt lat="44.34436" lon="6.19082">
        <ele>949</ele>
        <time>2014-10-12T07:49:08Z</time>
      </trkpt>
      <trkpt lat="44.34431" lon="6.19094">
        <ele>954</ele>
        <time>2014-10-12T07:49:17Z</time>
      </trkpt>
      <trkpt lat="44.34425" lon="6.19106">
        <ele>956</ele>
        <time>2014-10-12T07:49:25Z</time>
      </trkpt>
      <trkpt lat="44.34418" lon="6.19115">
        <ele>957</ele>
        <time>2014-10-12T07:49:33Z</time>
      </trkpt>
      <trkpt lat="44.34413" lon="6.19125">
        <ele>953</ele>
        <time>2014-10-12T07:49:42Z</time>
      </trkpt>
      <trkpt lat="44.3441" lon="6.19137">
        <ele>954</ele>
        <time>2014-10-12T07:49:51Z</time>
      </trkpt>
      <trkpt lat="44.34412" lon="6.19151">
        <ele>956</ele>
        <time>2014-10-12T07:50:27Z</time>
      </trkpt>
      <trkpt lat="44.34421" lon="6.19146">
        <ele>960</ele>
        <time>2014-10-12T07:52:09Z</time>
      </trkpt>
      <trkpt lat="44.34428" lon="6.19137">
        <ele>960</ele>
        <time>2014-10-12T07:52:17Z</time>
      </trkpt>
      <trkpt lat="44.34434" lon="6.19125">
        <ele>960</ele>
        <time>2014-10-12T07:52:27Z</time>
      </trkpt>
      <trkpt lat="44.34442" lon="6.19118">
        <ele>960</ele>
        <time>2014-10-12T07:52:37Z</time>
      </trkpt>
      <trkpt lat="44.3445" lon="6.19111">
        <ele>961</ele>
        <time>2014-10-12T07:52:48Z</time>
      </trkpt>
      <trkpt lat="44.34458" lon="6.19103">
        <ele>962</ele>
        <time>2014-10-12T07:52:59Z</time>
      </trkpt>
      <trkpt lat="44.34463" lon="6.19093">
        <ele>962</ele>
        <time>2014-10-12T07:53:09Z</time>
      </trkpt>
      <trkpt lat="44.34472" lon="6.19087">
        <ele>963</ele>
        <time>2014-10-12T07:53:20Z</time>
      </trkpt>
      <trkpt lat="44.34479" lon="6.1908">
        <ele>958</ele>
        <time>2014-10-12T07:53:29Z</time>
      </trkpt>
      <trkpt lat="44.34483" lon="6.19066">
        <ele>957</ele>
        <time>2014-10-12T07:53:37Z</time>
      </trkpt>
      <trkpt lat="44.34488" lon="6.19055">
        <ele>955</ele>
        <time>2014-10-12T07:53:46Z</time>
      </trkpt>
      <trkpt lat="44.34494" lon="6.19045">
        <ele>954</ele>
        <time>2014-10-12T07:53:55Z</time>
      </trkpt>
      <trkpt lat="44.34499" lon="6.19035">
        <ele>953</ele>
        <time>2014-10-12T07:54:21Z</time>
      </trkpt>
      <trkpt lat="44.34508" lon="6.19027">
        <ele>968</ele>
        <time>2014-10-12T07:54:29Z</time>
      </trkpt>
      <trkpt lat="44.34516" lon="6.19018">
        <ele>968</ele>
        <time>2014-10-12T07:54:37Z</time>
      </trkpt>
      <trkpt lat="44.34525" lon="6.19012">
        <ele>970</ele>
        <time>2014-10-12T07:54:46Z</time>
      </trkpt>
      <trkpt lat="44.34533" lon="6.19006">
        <ele>972</ele>
        <time>2014-10-12T07:54:55Z</time>
      </trkpt>
      <trkpt lat="44.3454" lon="6.18996">
        <ele>964</ele>
        <time>2014-10-12T07:55:06Z</time>
      </trkpt>
      <trkpt lat="44.34545" lon="6.18985">
        <ele>965</ele>
        <time>2014-10-12T07:55:15Z</time>
      </trkpt>
      <trkpt lat="44.34553" lon="6.18977">
        <ele>966</ele>
        <time>2014-10-12T07:55:22Z</time>
      </trkpt>
      <trkpt lat="44.3456" lon="6.18968">
        <ele>966</ele>
        <time>2014-10-12T07:55:32Z</time>
      </trkpt>
      <trkpt lat="44.34565" lon="6.18957">
        <ele>966</ele>
        <time>2014-10-12T07:55:44Z</time>
      </trkpt>
      <trkpt lat="44.34572" lon="6.18949">
        <ele>966</ele>
        <time>2014-10-12T07:55:55Z</time>
      </trkpt>
      <trkpt lat="44.34581" lon="6.18942">
        <ele>966</ele>
        <time>2014-10-12T07:56:06Z</time>
      </trkpt>
      <trkpt lat="44.34588" lon="6.18934">
        <ele>983</ele>
        <time>2014-10-12T07:56:19Z</time>
      </trkpt>
      <trkpt lat="44.34596" lon="6.18928">
        <ele>984</ele>
        <time>2014-10-12T07:56:27Z</time>
      </trkpt>
      <trkpt lat="44.34605" lon="6.18922">
        <ele>986</ele>
        <time>2014-10-12T07:56:35Z</time>
      </trkpt>
      <trkpt lat="44.34611" lon="6.18913">
        <ele>978</ele>
        <time>2014-10-12T07:56:46Z</time>
      </trkpt>
      <trkpt lat="44.34607" lon="6.18924">
        <ele>988</ele>
        <time>2014-10-12T07:56:58Z</time>
      </trkpt>
      <trkpt lat="44.34599" lon="6.18932">
        <ele>986</ele>
        <time>2014-10-12T07:57:07Z</time>
      </trkpt>
      <trkpt lat="44.34592" lon="6.18942">
        <ele>987</ele>
        <time>2014-10-12T07:57:16Z</time>
      </trkpt>
      <trkpt lat="44.34587" lon="6.18953">
        <ele>990</ele>
        <time>2014-10-12T07:57:26Z</time>
      </trkpt>
      <trkpt lat="44.34581" lon="6.18963">
        <ele>969</ele>
        <time>2014-10-12T07:57:35Z</time>
      </trkpt>
      <trkpt lat="44.34577" lon="6.18975">
        <ele>971</ele>
        <time>2014-10-12T07:57:47Z</time>
      </trkpt>
      <trkpt lat="44.34576" lon="6.18987">
        <ele>975</ele>
        <time>2014-10-12T07:58:00Z</time>
      </trkpt>
      <trkpt lat="44.34573" lon="6.19">
        <ele>983</ele>
        <time>2014-10-12T07:58:15Z</time>
      </trkpt>
      <trkpt lat="44.34573" lon="6.19014">
        <ele>982</ele>
        <time>2014-10-12T07:58:28Z</time>
      </trkpt>
      <trkpt lat="44.3457" lon="6.19027">
        <ele>981</ele>
        <time>2014-10-12T07:58:36Z</time>
      </trkpt>
      <trkpt lat="44.34569" lon="6.1904">
        <ele>982</ele>
        <time>2014-10-12T07:58:44Z</time>
      </trkpt>
      <trkpt lat="44.34568" lon="6.19053">
        <ele>984</ele>
        <time>2014-10-12T07:58:57Z</time>
      </trkpt>
      <trkpt lat="44.34566" lon="6.19067">
        <ele>987</ele>
        <time>2014-10-12T07:59:08Z</time>
      </trkpt>
      <trkpt lat="44.34564" lon="6.1908">
        <ele>989</ele>
        <time>2014-10-12T07:59:19Z</time>
      </trkpt>
      <trkpt lat="44.3456" lon="6.19091">
        <ele>995</ele>
        <time>2014-10-12T07:59:29Z</time>
      </trkpt>
      <trkpt lat="44.34556" lon="6.19103">
        <ele>994</ele>
        <time>2014-10-12T07:59:38Z</time>
      </trkpt>
      <trkpt lat="44.34554" lon="6.19115">
        <ele>994</ele>
        <time>2014-10-12T07:59:49Z</time>
      </trkpt>
      <trkpt lat="44.34554" lon="6.19128">
        <ele>995</ele>
        <time>2014-10-12T08:00:00Z</time>
      </trkpt>
      <trkpt lat="44.34551" lon="6.19141">
        <ele>996</ele>
        <time>2014-10-12T08:00:10Z</time>
      </trkpt>
      <trkpt lat="44.34549" lon="6.19154">
        <ele>997</ele>
        <time>2014-10-12T08:00:20Z</time>
      </trkpt>
      <trkpt lat="44.34546" lon="6.19167">
        <ele>1005</ele>
        <time>2014-10-12T08:00:29Z</time>
      </trkpt>
      <trkpt lat="44.34544" lon="6.1918">
        <ele>1005</ele>
        <time>2014-10-12T08:00:37Z</time>
      </trkpt>
      <trkpt lat="44.34524" lon="6.19226">
        <ele>1003</ele>
        <time>2014-10-12T08:01:14Z</time>
      </trkpt>
      <trkpt lat="44.34534" lon="6.19238">
        <ele>1006</ele>
        <time>2014-10-12T08:01:15Z</time>
      </trkpt>
      <trkpt lat="44.34522" lon="6.19242">
        <ele>1003</ele>
        <time>2014-10-12T08:01:16Z</time>
      </trkpt>
      <trkpt lat="44.34531" lon="6.1923">
        <ele>1005</ele>
        <time>2014-10-12T08:01:17Z</time>
      </trkpt>
      <trkpt lat="44.34531" lon="6.19243">
        <ele>1005</ele>
        <time>2014-10-12T08:01:27Z</time>
      </trkpt>
      <trkpt lat="44.34531" lon="6.19256">
        <ele>1011</ele>
        <time>2014-10-12T08:01:37Z</time>
      </trkpt>
      <trkpt lat="44.34527" lon="6.19267">
        <ele>1011</ele>
        <time>2014-10-12T08:01:51Z</time>
      </trkpt>
      <trkpt lat="44.34525" lon="6.19281">
        <ele>1013</ele>
        <time>2014-10-12T08:02:01Z</time>
      </trkpt>
      <trkpt lat="44.34522" lon="6.19293">
        <ele>1013</ele>
        <time>2014-10-12T08:02:13Z</time>
      </trkpt>
      <trkpt lat="44.34519" lon="6.19306">
        <ele>1014</ele>
        <time>2014-10-12T08:02:24Z</time>
      </trkpt>
      <trkpt lat="44.34516" lon="6.19317">
        <ele>1013</ele>
        <time>2014-10-12T08:02:33Z</time>
      </trkpt>
      <trkpt lat="44.34512" lon="6.1933">
        <ele>1012</ele>
        <time>2014-10-12T08:02:42Z</time>
      </trkpt>
      <trkpt lat="44.34509" lon="6.19342">
        <ele>1016</ele>
        <time>2014-10-12T08:02:51Z</time>
      </trkpt>
      <trkpt lat="44.34507" lon="6.19355">
        <ele>1018</ele>
        <time>2014-10-12T08:03:00Z</time>
      </trkpt>
      <trkpt lat="44.34507" lon="6.19368">
        <ele>1021</ele>
        <time>2014-10-12T08:03:09Z</time>
      </trkpt>
      <trkpt lat="44.34515" lon="6.19362">
        <ele>1021</ele>
        <time>2014-10-12T08:03:22Z</time>
      </trkpt>
      <trkpt lat="44.34518" lon="6.1935">
        <ele>1019</ele>
        <time>2014-10-12T08:03:32Z</time>
      </trkpt>
      <trkpt lat="44.34522" lon="6.19338">
        <ele>1019</ele>
        <time>2014-10-12T08:03:41Z</time>
      </trkpt>
      <trkpt lat="44.34529" lon="6.19328">
        <ele>1015</ele>
        <time>2014-10-12T08:03:51Z</time>
      </trkpt>
      <trkpt lat="44.34537" lon="6.19319">
        <ele>1017</ele>
        <time>2014-10-12T08:04:01Z</time>
      </trkpt>
      <trkpt lat="44.34544" lon="6.19311">
        <ele>1018</ele>
        <time>2014-10-12T08:04:10Z</time>
      </trkpt>
      <trkpt lat="44.34552" lon="6.19304">
        <ele>1019</ele>
        <time>2014-10-12T08:04:20Z</time>
      </trkpt>
      <trkpt lat="44.34559" lon="6.19294">
        <ele>1019</ele>
        <time>2014-10-12T08:04:28Z</time>
      </trkpt>
      <trkpt lat="44.34566" lon="6.19286">
        <ele>1020</ele>
        <time>2014-10-12T08:04:36Z</time>
      </trkpt>
      <trkpt lat="44.34572" lon="6.19276">
        <ele>1020</ele>
        <time>2014-10-12T08:04:46Z</time>
      </trkpt>
      <trkpt lat="44.34579" lon="6.19267">
        <ele>1022</ele>
        <time>2014-10-12T08:04:55Z</time>
      </trkpt>
      <trkpt lat="44.3458" lon="6.19281">
        <ele>1021</ele>
        <time>2014-10-12T08:05:14Z</time>
      </trkpt>
      <trkpt lat="44.34575" lon="6.1929">
        <ele>1021</ele>
        <time>2014-10-12T08:05:22Z</time>
      </trkpt>
      <trkpt lat="44.34569" lon="6.19301">
        <ele>1021</ele>
        <time>2014-10-12T08:05:31Z</time>
      </trkpt>
      <trkpt lat="44.34566" lon="6.19313">
        <ele>1022</ele>
        <time>2014-10-12T08:05:41Z</time>
      </trkpt>
      <trkpt lat="44.34565" lon="6.19327">
        <ele>1024</ele>
        <time>2014-10-12T08:05:53Z</time>
      </trkpt>
      <trkpt lat="44.34564" lon="6.19339">
        <ele>1028</ele>
        <time>2014-10-12T08:06:04Z</time>
      </trkpt>
      <trkpt lat="44.34563" lon="6.19353">
        <ele>1028</ele>
        <time>2014-10-12T08:06:15Z</time>
      </trkpt>
      <trkpt lat="44.3456" lon="6.19365">
        <ele>1027</ele>
        <time>2014-10-12T08:06:24Z</time>
      </trkpt>
      <trkpt lat="44.34557" lon="6.19377">
        <ele>1027</ele>
        <time>2014-10-12T08:06:33Z</time>
      </trkpt>
      <trkpt lat="44.34554" lon="6.19389">
        <ele>1028</ele>
        <time>2014-10-12T08:06:41Z</time>
      </trkpt>
      <trkpt lat="44.34554" lon="6.19403">
        <ele>1028</ele>
        <time>2014-10-12T08:06:50Z</time>
      </trkpt>
      <trkpt lat="44.34553" lon="6.19416">
        <ele>1029</ele>
        <time>2014-10-12T08:06:59Z</time>
      </trkpt>
      <trkpt lat="44.34553" lon="6.19429">
        <ele>1033</ele>
        <time>2014-10-12T08:07:07Z</time>
      </trkpt>
      <trkpt lat="44.34553" lon="6.19442">
        <ele>1033</ele>
        <time>2014-10-12T08:07:17Z</time>
      </trkpt>
      <trkpt lat="44.34554" lon="6.19455">
        <ele>1034</ele>
        <time>2014-10-12T08:07:27Z</time>
      </trkpt>
      <trkpt lat="44.34555" lon="6.19468">
        <ele>1034</ele>
        <time>2014-10-12T08:07:37Z</time>
      </trkpt>
      <trkpt lat="44.34559" lon="6.19481">
        <ele>1035</ele>
        <time>2014-10-12T08:07:46Z</time>
      </trkpt>
      <trkpt lat="44.34563" lon="6.19492">
        <ele>1037</ele>
        <time>2014-10-12T08:07:53Z</time>
      </trkpt>
      <trkpt lat="44.3457" lon="6.19502">
        <ele>1041</ele>
        <time>2014-10-12T08:08:02Z</time>
      </trkpt>
      <trkpt lat="44.34576" lon="6.19511">
        <ele>1042</ele>
        <time>2014-10-12T08:08:11Z</time>
      </trkpt>
      <trkpt lat="44.34584" lon="6.19519">
        <ele>1042</ele>
        <time>2014-10-12T08:08:20Z</time>
      </trkpt>
      <trkpt lat="44.34593" lon="6.19525">
        <ele>1042</ele>
        <time>2014-10-12T08:08:27Z</time>
      </trkpt>
      <trkpt lat="44.34601" lon="6.19531">
        <ele>1043</ele>
        <time>2014-10-12T08:08:35Z</time>
      </trkpt>
      <trkpt lat="44.34609" lon="6.1954">
        <ele>1043</ele>
        <time>2014-10-12T08:08:44Z</time>
      </trkpt>
      <trkpt lat="44.34612" lon="6.19553">
        <ele>1043</ele>
        <time>2014-10-12T08:08:54Z</time>
      </trkpt>
      <trkpt lat="44.34616" lon="6.19565">
        <ele>1044</ele>
        <time>2014-10-12T08:09:03Z</time>
      </trkpt>
      <trkpt lat="44.34624" lon="6.19574">
        <ele>1044</ele>
        <time>2014-10-12T08:09:12Z</time>
      </trkpt>
      <trkpt lat="44.34632" lon="6.19582">
        <ele>1043</ele>
        <time>2014-10-12T08:09:19Z</time>
      </trkpt>
      <trkpt lat="44.34638" lon="6.19591">
        <ele>1047</ele>
        <time>2014-10-12T08:09:36Z</time>
      </trkpt>
      <trkpt lat="44.34641" lon="6.19603">
        <ele>1047</ele>
        <time>2014-10-12T08:09:49Z</time>
      </trkpt>
      <trkpt lat="44.34644" lon="6.19616">
        <ele>1048</ele>
        <time>2014-10-12T08:11:05Z</time>
      </trkpt>
      <trkpt lat="44.34646" lon="6.19629">
        <ele>1048</ele>
        <time>2014-10-12T08:11:13Z</time>
      </trkpt>
      <trkpt lat="44.34649" lon="6.19643">
        <ele>1047</ele>
        <time>2014-10-12T08:11:21Z</time>
      </trkpt>
      <trkpt lat="44.34655" lon="6.19652">
        <ele>1047</ele>
        <time>2014-10-12T08:11:29Z</time>
      </trkpt>
      <trkpt lat="44.34658" lon="6.19664">
        <ele>1046</ele>
        <time>2014-10-12T08:11:37Z</time>
      </trkpt>
      <trkpt lat="44.34661" lon="6.19677">
        <ele>1048</ele>
        <time>2014-10-12T08:11:46Z</time>
      </trkpt>
      <trkpt lat="44.34661" lon="6.1969">
        <ele>1051</ele>
        <time>2014-10-12T08:11:54Z</time>
      </trkpt>
      <trkpt lat="44.34657" lon="6.19702">
        <ele>1053</ele>
        <time>2014-10-12T08:12:03Z</time>
      </trkpt>
      <trkpt lat="44.34657" lon="6.19716">
        <ele>1053</ele>
        <time>2014-10-12T08:12:12Z</time>
      </trkpt>
      <trkpt lat="44.34665" lon="6.19723">
        <ele>1052</ele>
        <time>2014-10-12T08:12:19Z</time>
      </trkpt>
      <trkpt lat="44.34673" lon="6.19731">
        <ele>1043</ele>
        <time>2014-10-12T08:12:27Z</time>
      </trkpt>
      <trkpt lat="44.34678" lon="6.19742">
        <ele>1044</ele>
        <time>2014-10-12T08:12:35Z</time>
      </trkpt>
      <trkpt lat="44.3468" lon="6.19756">
        <ele>1049</ele>
        <time>2014-10-12T08:12:44Z</time>
      </trkpt>
      <trkpt lat="44.34682" lon="6.19769">
        <ele>1051</ele>
        <time>2014-10-12T08:12:52Z</time>
      </trkpt>
      <trkpt lat="44.34688" lon="6.1978">
        <ele>1052</ele>
        <time>2014-10-12T08:13:23Z</time>
      </trkpt>
      <trkpt lat="44.34697" lon="6.19778">
        <ele>1051</ele>
        <time>2014-10-12T08:13:29Z</time>
      </trkpt>
      <trkpt lat="44.34706" lon="6.19776">
        <ele>1050</ele>
        <time>2014-10-12T08:13:36Z</time>
      </trkpt>
      <trkpt lat="44.34716" lon="6.19774">
        <ele>1049</ele>
        <time>2014-10-12T08:13:43Z</time>
      </trkpt>
      <trkpt lat="44.34726" lon="6.19775">
        <ele>1047</ele>
        <time>2014-10-12T08:13:51Z</time>
      </trkpt>
      <trkpt lat="44.34735" lon="6.19777">
        <ele>1046</ele>
        <time>2014-10-12T08:13:58Z</time>
      </trkpt>
      <trkpt lat="44.34744" lon="6.19777">
        <ele>1045</ele>
        <time>2014-10-12T08:14:05Z</time>
      </trkpt>
      <trkpt lat="44.34753" lon="6.19774">
        <ele>1033</ele>
        <time>2014-10-12T08:14:14Z</time>
      </trkpt>
      <trkpt lat="44.34763" lon="6.19776">
        <ele>1033</ele>
        <time>2014-10-12T08:14:23Z</time>
      </trkpt>
      <trkpt lat="44.34773" lon="6.19777">
        <ele>1033</ele>
        <time>2014-10-12T08:14:31Z</time>
      </trkpt>
      <trkpt lat="44.34782" lon="6.1978">
        <ele>1032</ele>
        <time>2014-10-12T08:14:38Z</time>
      </trkpt>
      <trkpt lat="44.34792" lon="6.19783">
        <ele>1031</ele>
        <time>2014-10-12T08:14:45Z</time>
      </trkpt>
      <trkpt lat="44.348" lon="6.19791">
        <ele>1031</ele>
        <time>2014-10-12T08:14:52Z</time>
      </trkpt>
      <trkpt lat="44.34807" lon="6.198">
        <ele>1031</ele>
        <time>2014-10-12T08:15:00Z</time>
      </trkpt>
      <trkpt lat="44.34814" lon="6.1981">
        <ele>1032</ele>
        <time>2014-10-12T08:15:08Z</time>
      </trkpt>
      <trkpt lat="44.34816" lon="6.19822">
        <ele>1032</ele>
        <time>2014-10-12T08:15:15Z</time>
      </trkpt>
      <trkpt lat="44.34821" lon="6.19834">
        <ele>1038</ele>
        <time>2014-10-12T08:15:23Z</time>
      </trkpt>
      <trkpt lat="44.34824" lon="6.19847">
        <ele>1039</ele>
        <time>2014-10-12T08:15:32Z</time>
      </trkpt>
      <trkpt lat="44.34829" lon="6.19859">
        <ele>1041</ele>
        <time>2014-10-12T08:15:40Z</time>
      </trkpt>
      <trkpt lat="44.34834" lon="6.1987">
        <ele>1026</ele>
        <time>2014-10-12T08:15:48Z</time>
      </trkpt>
      <trkpt lat="44.34837" lon="6.19882">
        <ele>1026</ele>
        <time>2014-10-12T08:15:56Z</time>
      </trkpt>
      <trkpt lat="44.34838" lon="6.19895">
        <ele>1028</ele>
        <time>2014-10-12T08:16:03Z</time>
      </trkpt>
      <trkpt lat="44.34841" lon="6.19907">
        <ele>1031</ele>
        <time>2014-10-12T08:16:11Z</time>
      </trkpt>
      <trkpt lat="44.3484" lon="6.1992">
        <ele>1034</ele>
        <time>2014-10-12T08:16:20Z</time>
      </trkpt>
      <trkpt lat="44.3484" lon="6.19933">
        <ele>1031</ele>
        <time>2014-10-12T08:16:28Z</time>
      </trkpt>
      <trkpt lat="44.3484" lon="6.19946">
        <ele>1030</ele>
        <time>2014-10-12T08:16:35Z</time>
      </trkpt>
      <trkpt lat="44.34841" lon="6.19959">
        <ele>1029</ele>
        <time>2014-10-12T08:16:42Z</time>
      </trkpt>
      <trkpt lat="44.3484" lon="6.19973">
        <ele>1030</ele>
        <time>2014-10-12T08:16:49Z</time>
      </trkpt>
      <trkpt lat="44.34836" lon="6.19985">
        <ele>1032</ele>
        <time>2014-10-12T08:16:57Z</time>
      </trkpt>
      <trkpt lat="44.34836" lon="6.2">
        <ele>1037</ele>
        <time>2014-10-12T08:17:03Z</time>
      </trkpt>
      <trkpt lat="44.34839" lon="6.20012">
        <ele>1033</ele>
        <time>2014-10-12T08:17:09Z</time>
      </trkpt>
      <trkpt lat="44.34842" lon="6.20024">
        <ele>1031</ele>
        <time>2014-10-12T08:17:16Z</time>
      </trkpt>
      <trkpt lat="44.34848" lon="6.20033">
        <ele>1029</ele>
        <time>2014-10-12T08:17:24Z</time>
      </trkpt>
      <trkpt lat="44.34847" lon="6.20047">
        <ele>1030</ele>
        <time>2014-10-12T08:17:32Z</time>
      </trkpt>
      <trkpt lat="44.34852" lon="6.20059">
        <ele>1030</ele>
        <time>2014-10-12T08:17:39Z</time>
      </trkpt>
      <trkpt lat="44.34856" lon="6.20071">
        <ele>1030</ele>
        <time>2014-10-12T08:17:46Z</time>
      </trkpt>
      <trkpt lat="44.34856" lon="6.20085">
        <ele>1031</ele>
        <time>2014-10-12T08:17:54Z</time>
      </trkpt>
      <trkpt lat="44.34863" lon="6.20094">
        <ele>1029</ele>
        <time>2014-10-12T08:18:02Z</time>
      </trkpt>
      <trkpt lat="44.34863" lon="6.20107">
        <ele>1028</ele>
        <time>2014-10-12T08:18:10Z</time>
      </trkpt>
      <trkpt lat="44.34861" lon="6.20121">
        <ele>1028</ele>
        <time>2014-10-12T08:18:16Z</time>
      </trkpt>
      <trkpt lat="44.34855" lon="6.2013">
        <ele>1028</ele>
        <time>2014-10-12T08:18:23Z</time>
      </trkpt>
      <trkpt lat="44.3485" lon="6.2014">
        <ele>1030</ele>
        <time>2014-10-12T08:18:31Z</time>
      </trkpt>
      <trkpt lat="44.34848" lon="6.20153">
        <ele>1032</ele>
        <time>2014-10-12T08:18:39Z</time>
      </trkpt>
      <trkpt lat="44.34848" lon="6.20167">
        <ele>1033</ele>
        <time>2014-10-12T08:18:48Z</time>
      </trkpt>
      <trkpt lat="44.34846" lon="6.20181">
        <ele>1031</ele>
        <time>2014-10-12T08:18:55Z</time>
      </trkpt>
      <trkpt lat="44.34845" lon="6.20194">
        <ele>1030</ele>
        <time>2014-10-12T08:19:02Z</time>
      </trkpt>
      <trkpt lat="44.34844" lon="6.20208">
        <ele>1029</ele>
        <time>2014-10-12T08:19:10Z</time>
      </trkpt>
      <trkpt lat="44.34845" lon="6.20221">
        <ele>1030</ele>
        <time>2014-10-12T08:19:19Z</time>
      </trkpt>
      <trkpt lat="44.34849" lon="6.20233">
        <ele>1031</ele>
        <time>2014-10-12T08:19:26Z</time>
      </trkpt>
      <trkpt lat="44.34851" lon="6.20246">
        <ele>1032</ele>
        <time>2014-10-12T08:19:33Z</time>
      </trkpt>
      <trkpt lat="44.34855" lon="6.20259">
        <ele>1027</ele>
        <time>2014-10-12T08:19:41Z</time>
      </trkpt>
      <trkpt lat="44.34857" lon="6.20273">
        <ele>1024</ele>
        <time>2014-10-12T08:19:48Z</time>
      </trkpt>
      <trkpt lat="44.34856" lon="6.20286">
        <ele>1023</ele>
        <time>2014-10-12T08:19:55Z</time>
      </trkpt>
      <trkpt lat="44.34849" lon="6.20294">
        <ele>1023</ele>
        <time>2014-10-12T08:20:02Z</time>
      </trkpt>
      <trkpt lat="44.34842" lon="6.20303">
        <ele>1024</ele>
        <time>2014-10-12T08:20:10Z</time>
      </trkpt>
      <trkpt lat="44.34835" lon="6.20312">
        <ele>1025</ele>
        <time>2014-10-12T08:20:17Z</time>
      </trkpt>
      <trkpt lat="44.34829" lon="6.20323">
        <ele>1037</ele>
        <time>2014-10-12T08:20:24Z</time>
      </trkpt>
      <trkpt lat="44.34823" lon="6.20334">
        <ele>1034</ele>
        <time>2014-10-12T08:20:31Z</time>
      </trkpt>
      <trkpt lat="44.34817" lon="6.20345">
        <ele>1035</ele>
        <time>2014-10-12T08:20:39Z</time>
      </trkpt>
      <trkpt lat="44.34812" lon="6.20356">
        <ele>1036</ele>
        <time>2014-10-12T08:20:46Z</time>
      </trkpt>
      <trkpt lat="44.34806" lon="6.20368">
        <ele>1036</ele>
        <time>2014-10-12T08:20:53Z</time>
      </trkpt>
      <trkpt lat="44.34801" lon="6.20378">
        <ele>1036</ele>
        <time>2014-10-12T08:20:59Z</time>
      </trkpt>
      <trkpt lat="44.34796" lon="6.20389">
        <ele>1036</ele>
        <time>2014-10-12T08:21:06Z</time>
      </trkpt>
      <trkpt lat="44.34791" lon="6.204">
        <ele>1036</ele>
        <time>2014-10-12T08:21:14Z</time>
      </trkpt>
      <trkpt lat="44.34787" lon="6.20412">
        <ele>1037</ele>
        <time>2014-10-12T08:21:22Z</time>
      </trkpt>
      <trkpt lat="44.34783" lon="6.20423">
        <ele>1026</ele>
        <time>2014-10-12T08:21:31Z</time>
      </trkpt>
      <trkpt lat="44.34777" lon="6.20435">
        <ele>1026</ele>
        <time>2014-10-12T08:21:41Z</time>
      </trkpt>
      <trkpt lat="44.34769" lon="6.20443">
        <ele>1026</ele>
        <time>2014-10-12T08:21:49Z</time>
      </trkpt>
      <trkpt lat="44.34761" lon="6.20447">
        <ele>1027</ele>
        <time>2014-10-12T08:21:56Z</time>
      </trkpt>
      <trkpt lat="44.34753" lon="6.20455">
        <ele>1026</ele>
        <time>2014-10-12T08:22:04Z</time>
      </trkpt>
      <trkpt lat="44.34746" lon="6.20463">
        <ele>1042</ele>
        <time>2014-10-12T08:22:12Z</time>
      </trkpt>
      <trkpt lat="44.34739" lon="6.20471">
        <ele>1041</ele>
        <time>2014-10-12T08:22:19Z</time>
      </trkpt>
      <trkpt lat="44.34732" lon="6.2048">
        <ele>1040</ele>
        <time>2014-10-12T08:22:26Z</time>
      </trkpt>
      <trkpt lat="44.34724" lon="6.20488">
        <ele>1041</ele>
        <time>2014-10-12T08:22:33Z</time>
      </trkpt>
      <trkpt lat="44.34718" lon="6.20499">
        <ele>1042</ele>
        <time>2014-10-12T08:22:40Z</time>
      </trkpt>
      <trkpt lat="44.34717" lon="6.20512">
        <ele>1029</ele>
        <time>2014-10-12T08:22:47Z</time>
      </trkpt>
      <trkpt lat="44.34719" lon="6.20526">
        <ele>1028</ele>
        <time>2014-10-12T08:22:55Z</time>
      </trkpt>
      <trkpt lat="44.34718" lon="6.20539">
        <ele>1027</ele>
        <time>2014-10-12T08:23:02Z</time>
      </trkpt>
      <trkpt lat="44.34713" lon="6.20551">
        <ele>1026</ele>
        <time>2014-10-12T08:23:09Z</time>
      </trkpt>
      <trkpt lat="44.34707" lon="6.20561">
        <ele>1027</ele>
        <time>2014-10-12T08:23:16Z</time>
      </trkpt>
      <trkpt lat="44.34699" lon="6.20569">
        <ele>1028</ele>
        <time>2014-10-12T08:23:24Z</time>
      </trkpt>
      <trkpt lat="44.34691" lon="6.2058">
        <ele>1029</ele>
        <time>2014-10-12T08:23:31Z</time>
      </trkpt>
      <trkpt lat="44.34684" lon="6.20589">
        <ele>1024</ele>
        <time>2014-10-12T08:23:37Z</time>
      </trkpt>
      <trkpt lat="44.34677" lon="6.20599">
        <ele>1024</ele>
        <time>2014-10-12T08:23:44Z</time>
      </trkpt>
      <trkpt lat="44.34671" lon="6.20609">
        <ele>1022</ele>
        <time>2014-10-12T08:23:51Z</time>
      </trkpt>
      <trkpt lat="44.34663" lon="6.20615">
        <ele>1030</ele>
        <time>2014-10-12T08:24:00Z</time>
      </trkpt>
      <trkpt lat="44.34657" lon="6.20626">
        <ele>1028</ele>
        <time>2014-10-12T08:24:08Z</time>
      </trkpt>
      <trkpt lat="44.34651" lon="6.20635">
        <ele>1027</ele>
        <time>2014-10-12T08:24:15Z</time>
      </trkpt>
      <trkpt lat="44.34642" lon="6.20642">
        <ele>1026</ele>
        <time>2014-10-12T08:24:22Z</time>
      </trkpt>
      <trkpt lat="44.34633" lon="6.20644">
        <ele>1027</ele>
        <time>2014-10-12T08:24:30Z</time>
      </trkpt>
      <trkpt lat="44.34624" lon="6.20648">
        <ele>1028</ele>
        <time>2014-10-12T08:24:37Z</time>
      </trkpt>
      <trkpt lat="44.34616" lon="6.20653">
        <ele>1028</ele>
        <time>2014-10-12T08:24:44Z</time>
      </trkpt>
      <trkpt lat="44.34608" lon="6.20661">
        <ele>1027</ele>
        <time>2014-10-12T08:24:51Z</time>
      </trkpt>
      <trkpt lat="44.34599" lon="6.20666">
        <ele>1027</ele>
        <time>2014-10-12T08:25:00Z</time>
      </trkpt>
      <trkpt lat="44.34589" lon="6.20665">
        <ele>1026</ele>
        <time>2014-10-12T08:25:10Z</time>
      </trkpt>
      <trkpt lat="44.3458" lon="6.20661">
        <ele>1028</ele>
        <time>2014-10-12T08:25:21Z</time>
      </trkpt>
      <trkpt lat="44.3457" lon="6.20659">
        <ele>1033</ele>
        <time>2014-10-12T08:25:27Z</time>
      </trkpt>
      <trkpt lat="44.34559" lon="6.20658">
        <ele>1036</ele>
        <time>2014-10-12T08:25:33Z</time>
      </trkpt>
      <trkpt lat="44.3455" lon="6.20659">
        <ele>1037</ele>
        <time>2014-10-12T08:25:40Z</time>
      </trkpt>
      <trkpt lat="44.34541" lon="6.20659">
        <ele>1038</ele>
        <time>2014-10-12T08:25:47Z</time>
      </trkpt>
      <trkpt lat="44.34531" lon="6.20662">
        <ele>1038</ele>
        <time>2014-10-12T08:25:54Z</time>
      </trkpt>
      <trkpt lat="44.34521" lon="6.20667">
        <ele>1027</ele>
        <time>2014-10-12T08:26:01Z</time>
      </trkpt>
      <trkpt lat="44.34511" lon="6.20668">
        <ele>1029</ele>
        <time>2014-10-12T08:26:10Z</time>
      </trkpt>
      <trkpt lat="44.34502" lon="6.20671">
        <ele>1030</ele>
        <time>2014-10-12T08:26:17Z</time>
      </trkpt>
      <trkpt lat="44.34494" lon="6.20677">
        <ele>1032</ele>
        <time>2014-10-12T08:26:24Z</time>
      </trkpt>
      <trkpt lat="44.34486" lon="6.20686">
        <ele>1032</ele>
        <time>2014-10-12T08:26:31Z</time>
      </trkpt>
      <trkpt lat="44.34479" lon="6.20695">
        <ele>1031</ele>
        <time>2014-10-12T08:26:38Z</time>
      </trkpt>
      <trkpt lat="44.34473" lon="6.20705">
        <ele>1031</ele>
        <time>2014-10-12T08:26:45Z</time>
      </trkpt>
      <trkpt lat="44.34466" lon="6.20716">
        <ele>1030</ele>
        <time>2014-10-12T08:26:53Z</time>
      </trkpt>
      <trkpt lat="44.34461" lon="6.20726">
        <ele>1029</ele>
        <time>2014-10-12T08:27:00Z</time>
      </trkpt>
      <trkpt lat="44.34455" lon="6.20738">
        <ele>1028</ele>
        <time>2014-10-12T08:27:07Z</time>
      </trkpt>
      <trkpt lat="44.34449" lon="6.20749">
        <ele>1027</ele>
        <time>2014-10-12T08:27:14Z</time>
      </trkpt>
      <trkpt lat="44.34442" lon="6.20757">
        <ele>1025</ele>
        <time>2014-10-12T08:27:20Z</time>
      </trkpt>
      <trkpt lat="44.34433" lon="6.20761">
        <ele>1024</ele>
        <time>2014-10-12T08:27:28Z</time>
      </trkpt>
      <trkpt lat="44.34423" lon="6.20756">
        <ele>1023</ele>
        <time>2014-10-12T08:27:37Z</time>
      </trkpt>
      <trkpt lat="44.34414" lon="6.2075">
        <ele>1023</ele>
        <time>2014-10-12T08:27:46Z</time>
      </trkpt>
      <trkpt lat="44.34404" lon="6.20751">
        <ele>1026</ele>
        <time>2014-10-12T08:27:55Z</time>
      </trkpt>
      <trkpt lat="44.34395" lon="6.20751">
        <ele>1029</ele>
        <time>2014-10-12T08:28:02Z</time>
      </trkpt>
      <trkpt lat="44.34385" lon="6.20754">
        <ele>1031</ele>
        <time>2014-10-12T08:28:09Z</time>
      </trkpt>
      <trkpt lat="44.34376" lon="6.20756">
        <ele>1034</ele>
        <time>2014-10-12T08:28:15Z</time>
      </trkpt>
      <trkpt lat="44.34369" lon="6.20763">
        <ele>1035</ele>
        <time>2014-10-12T08:28:21Z</time>
      </trkpt>
      <trkpt lat="44.34362" lon="6.20772">
        <ele>1036</ele>
        <time>2014-10-12T08:28:29Z</time>
      </trkpt>
      <trkpt lat="44.34358" lon="6.20784">
        <ele>1035</ele>
        <time>2014-10-12T08:28:38Z</time>
      </trkpt>
      <trkpt lat="44.34355" lon="6.20797">
        <ele>1034</ele>
        <time>2014-10-12T08:28:45Z</time>
      </trkpt>
      <trkpt lat="44.34354" lon="6.2081">
        <ele>1033</ele>
        <time>2014-10-12T08:28:54Z</time>
      </trkpt>
      <trkpt lat="44.34353" lon="6.20823">
        <ele>1033</ele>
        <time>2014-10-12T08:29:03Z</time>
      </trkpt>
      <trkpt lat="44.34352" lon="6.20836">
        <ele>1030</ele>
        <time>2014-10-12T08:29:11Z</time>
      </trkpt>
      <trkpt lat="44.34351" lon="6.20849">
        <ele>1030</ele>
        <time>2014-10-12T08:29:18Z</time>
      </trkpt>
      <trkpt lat="44.34347" lon="6.20862">
        <ele>1030</ele>
        <time>2014-10-12T08:29:25Z</time>
      </trkpt>
      <trkpt lat="44.34344" lon="6.20874">
        <ele>1029</ele>
        <time>2014-10-12T08:29:30Z</time>
      </trkpt>
      <trkpt lat="44.34341" lon="6.20887">
        <ele>1029</ele>
        <time>2014-10-12T08:29:35Z</time>
      </trkpt>
      <trkpt lat="44.3434" lon="6.20899">
        <ele>1029</ele>
        <time>2014-10-12T08:29:41Z</time>
      </trkpt>
      <trkpt lat="44.3434" lon="6.20914">
        <ele>1029</ele>
        <time>2014-10-12T08:29:48Z</time>
      </trkpt>
      <trkpt lat="44.34339" lon="6.20927">
        <ele>1030</ele>
        <time>2014-10-12T08:29:55Z</time>
      </trkpt>
      <trkpt lat="44.3434" lon="6.20941">
        <ele>1031</ele>
        <time>2014-10-12T08:30:05Z</time>
      </trkpt>
      <trkpt lat="44.34338" lon="6.20954">
        <ele>1031</ele>
        <time>2014-10-12T08:30:15Z</time>
      </trkpt>
      <trkpt lat="44.34333" lon="6.20965">
        <ele>1038</ele>
        <time>2014-10-12T08:30:23Z</time>
      </trkpt>
      <trkpt lat="44.34328" lon="6.20977">
        <ele>1036</ele>
        <time>2014-10-12T08:30:29Z</time>
      </trkpt>
      <trkpt lat="44.34323" lon="6.2099">
        <ele>1034</ele>
        <time>2014-10-12T08:30:35Z</time>
      </trkpt>
      <trkpt lat="44.34317" lon="6.21">
        <ele>1034</ele>
        <time>2014-10-12T08:30:40Z</time>
      </trkpt>
      <trkpt lat="44.34311" lon="6.21012">
        <ele>1032</ele>
        <time>2014-10-12T08:30:46Z</time>
      </trkpt>
      <trkpt lat="44.34305" lon="6.21022">
        <ele>1034</ele>
        <time>2014-10-12T08:30:53Z</time>
      </trkpt>
      <trkpt lat="44.34299" lon="6.21033">
        <ele>1034</ele>
        <time>2014-10-12T08:31:02Z</time>
      </trkpt>
      <trkpt lat="44.34293" lon="6.21042">
        <ele>1034</ele>
        <time>2014-10-12T08:31:09Z</time>
      </trkpt>
      <trkpt lat="44.34286" lon="6.21053">
        <ele>1034</ele>
        <time>2014-10-12T08:31:16Z</time>
      </trkpt>
      <trkpt lat="44.34279" lon="6.21064">
        <ele>1033</ele>
        <time>2014-10-12T08:31:22Z</time>
      </trkpt>
      <trkpt lat="44.34273" lon="6.21074">
        <ele>1032</ele>
        <time>2014-10-12T08:31:28Z</time>
      </trkpt>
      <trkpt lat="44.34266" lon="6.21083">
        <ele>1030</ele>
        <time>2014-10-12T08:31:36Z</time>
      </trkpt>
      <trkpt lat="44.34259" lon="6.21091">
        <ele>1029</ele>
        <time>2014-10-12T08:31:44Z</time>
      </trkpt>
      <trkpt lat="44.3425" lon="6.21097">
        <ele>1029</ele>
        <time>2014-10-12T08:31:52Z</time>
      </trkpt>
      <trkpt lat="44.34243" lon="6.21106">
        <ele>1032</ele>
        <time>2014-10-12T08:32:00Z</time>
      </trkpt>
      <trkpt lat="44.34239" lon="6.21117">
        <ele>1033</ele>
        <time>2014-10-12T08:32:08Z</time>
      </trkpt>
      <trkpt lat="44.34241" lon="6.21131">
        <ele>1032</ele>
        <time>2014-10-12T08:32:17Z</time>
      </trkpt>
      <trkpt lat="44.3424" lon="6.21144">
        <ele>1031</ele>
        <time>2014-10-12T08:32:25Z</time>
      </trkpt>
      <trkpt lat="44.34234" lon="6.21153">
        <ele>1031</ele>
        <time>2014-10-12T08:32:31Z</time>
      </trkpt>
      <trkpt lat="44.34226" lon="6.21162">
        <ele>1031</ele>
        <time>2014-10-12T08:32:39Z</time>
      </trkpt>
      <trkpt lat="44.34218" lon="6.21167">
        <ele>1032</ele>
        <time>2014-10-12T08:32:48Z</time>
      </trkpt>
      <trkpt lat="44.34209" lon="6.21175">
        <ele>1032</ele>
        <time>2014-10-12T08:32:57Z</time>
      </trkpt>
      <trkpt lat="44.34202" lon="6.21184">
        <ele>1032</ele>
        <time>2014-10-12T08:33:05Z</time>
      </trkpt>
      <trkpt lat="44.34195" lon="6.21194">
        <ele>1033</ele>
        <time>2014-10-12T08:33:14Z</time>
      </trkpt>
      <trkpt lat="44.34192" lon="6.21206">
        <ele>1033</ele>
        <time>2014-10-12T08:33:23Z</time>
      </trkpt>
      <trkpt lat="44.34195" lon="6.21219">
        <ele>1034</ele>
        <time>2014-10-12T08:33:33Z</time>
      </trkpt>
      <trkpt lat="44.34201" lon="6.21229">
        <ele>1035</ele>
        <time>2014-10-12T08:33:41Z</time>
      </trkpt>
      <trkpt lat="44.34206" lon="6.21241">
        <ele>1036</ele>
        <time>2014-10-12T08:33:49Z</time>
      </trkpt>
      <trkpt lat="44.34207" lon="6.21255">
        <ele>1045</ele>
        <time>2014-10-12T08:33:57Z</time>
      </trkpt>
      <trkpt lat="44.34206" lon="6.21268">
        <ele>1045</ele>
        <time>2014-10-12T08:34:04Z</time>
      </trkpt>
      <trkpt lat="44.34203" lon="6.21281">
        <ele>1046</ele>
        <time>2014-10-12T08:34:11Z</time>
      </trkpt>
      <trkpt lat="44.34199" lon="6.21293">
        <ele>1046</ele>
        <time>2014-10-12T08:34:18Z</time>
      </trkpt>
      <trkpt lat="44.34195" lon="6.21304">
        <ele>1045</ele>
        <time>2014-10-12T08:34:26Z</time>
      </trkpt>
      <trkpt lat="44.3419" lon="6.21315">
        <ele>1044</ele>
        <time>2014-10-12T08:34:34Z</time>
      </trkpt>
      <trkpt lat="44.34183" lon="6.21326">
        <ele>1041</ele>
        <time>2014-10-12T08:34:41Z</time>
      </trkpt>
      <trkpt lat="44.34176" lon="6.21338">
        <ele>1042</ele>
        <time>2014-10-12T08:34:50Z</time>
      </trkpt>
      <trkpt lat="44.3417" lon="6.21349">
        <ele>1045</ele>
        <time>2014-10-12T08:34:58Z</time>
      </trkpt>
      <trkpt lat="44.34163" lon="6.21359">
        <ele>1042</ele>
        <time>2014-10-12T08:35:08Z</time>
      </trkpt>
      <trkpt lat="44.34156" lon="6.21369">
        <ele>1044</ele>
        <time>2014-10-12T08:35:14Z</time>
      </trkpt>
      <trkpt lat="44.34151" lon="6.21381">
        <ele>1045</ele>
        <time>2014-10-12T08:35:23Z</time>
      </trkpt>
      <trkpt lat="44.34145" lon="6.21391">
        <ele>1045</ele>
        <time>2014-10-12T08:35:32Z</time>
      </trkpt>
      <trkpt lat="44.34141" lon="6.21403">
        <ele>1045</ele>
        <time>2014-10-12T08:35:41Z</time>
      </trkpt>
      <trkpt lat="44.34139" lon="6.21417">
        <ele>1045</ele>
        <time>2014-10-12T08:35:50Z</time>
      </trkpt>
      <trkpt lat="44.3414" lon="6.2143">
        <ele>1044</ele>
        <time>2014-10-12T08:35:59Z</time>
      </trkpt>
      <trkpt lat="44.3414" lon="6.21443">
        <ele>1045</ele>
        <time>2014-10-12T08:38:05Z</time>
      </trkpt>
      <trkpt lat="44.34146" lon="6.21452">
        <ele>1045</ele>
        <time>2014-10-12T08:38:18Z</time>
      </trkpt>
      <trkpt lat="44.34151" lon="6.21464">
        <ele>1045</ele>
        <time>2014-10-12T08:38:28Z</time>
      </trkpt>
      <trkpt lat="44.34153" lon="6.21476">
        <ele>1046</ele>
        <time>2014-10-12T08:38:37Z</time>
      </trkpt>
      <trkpt lat="44.34156" lon="6.21488">
        <ele>1047</ele>
        <time>2014-10-12T08:38:45Z</time>
      </trkpt>
      <trkpt lat="44.34159" lon="6.215">
        <ele>1049</ele>
        <time>2014-10-12T08:38:53Z</time>
      </trkpt>
      <trkpt lat="44.34158" lon="6.21514">
        <ele>1049</ele>
        <time>2014-10-12T08:39:03Z</time>
      </trkpt>
      <trkpt lat="44.34153" lon="6.21525">
        <ele>1049</ele>
        <time>2014-10-12T08:39:11Z</time>
      </trkpt>
      <trkpt lat="44.34147" lon="6.21535">
        <ele>1049</ele>
        <time>2014-10-12T08:39:18Z</time>
      </trkpt>
      <trkpt lat="44.3414" lon="6.21545">
        <ele>1049</ele>
        <time>2014-10-12T08:39:25Z</time>
      </trkpt>
      <trkpt lat="44.34133" lon="6.21554">
        <ele>1049</ele>
        <time>2014-10-12T08:39:32Z</time>
      </trkpt>
      <trkpt lat="44.34127" lon="6.21563">
        <ele>1048</ele>
        <time>2014-10-12T08:39:39Z</time>
      </trkpt>
      <trkpt lat="44.3412" lon="6.21573">
        <ele>1048</ele>
        <time>2014-10-12T08:39:45Z</time>
      </trkpt>
      <trkpt lat="44.34115" lon="6.21584">
        <ele>1049</ele>
        <time>2014-10-12T08:39:52Z</time>
      </trkpt>
      <trkpt lat="44.34112" lon="6.21597">
        <ele>1049</ele>
        <time>2014-10-12T08:40:00Z</time>
      </trkpt>
      <trkpt lat="44.34113" lon="6.2161">
        <ele>1050</ele>
        <time>2014-10-12T08:40:07Z</time>
      </trkpt>
      <trkpt lat="44.34118" lon="6.21622">
        <ele>1051</ele>
        <time>2014-10-12T08:40:15Z</time>
      </trkpt>
      <trkpt lat="44.3412" lon="6.21634">
        <ele>1051</ele>
        <time>2014-10-12T08:40:23Z</time>
      </trkpt>
      <trkpt lat="44.34124" lon="6.21647">
        <ele>1051</ele>
        <time>2014-10-12T08:40:31Z</time>
      </trkpt>
      <trkpt lat="44.34129" lon="6.2166">
        <ele>1052</ele>
        <time>2014-10-12T08:40:38Z</time>
      </trkpt>
      <trkpt lat="44.34135" lon="6.2167">
        <ele>1053</ele>
        <time>2014-10-12T08:40:45Z</time>
      </trkpt>
      <trkpt lat="44.3414" lon="6.2168">
        <ele>1053</ele>
        <time>2014-10-12T08:40:53Z</time>
      </trkpt>
      <trkpt lat="44.34147" lon="6.21691">
        <ele>1053</ele>
        <time>2014-10-12T08:41:01Z</time>
      </trkpt>
      <trkpt lat="44.34148" lon="6.21704">
        <ele>1052</ele>
        <time>2014-10-12T08:41:08Z</time>
      </trkpt>
      <trkpt lat="44.34155" lon="6.21714">
        <ele>1051</ele>
        <time>2014-10-12T08:41:16Z</time>
      </trkpt>
      <trkpt lat="44.3416" lon="6.21725">
        <ele>1049</ele>
        <time>2014-10-12T08:41:23Z</time>
      </trkpt>
      <trkpt lat="44.34168" lon="6.21732">
        <ele>1058</ele>
        <time>2014-10-12T08:41:31Z</time>
      </trkpt>
      <trkpt lat="44.34172" lon="6.21743">
        <ele>1052</ele>
        <time>2014-10-12T08:41:38Z</time>
      </trkpt>
      <trkpt lat="44.34174" lon="6.21757">
        <ele>1049</ele>
        <time>2014-10-12T08:41:45Z</time>
      </trkpt>
      <trkpt lat="44.34179" lon="6.21769">
        <ele>1053</ele>
        <time>2014-10-12T08:41:53Z</time>
      </trkpt>
      <trkpt lat="44.34183" lon="6.21783">
        <ele>1056</ele>
        <time>2014-10-12T08:42:01Z</time>
      </trkpt>
      <trkpt lat="44.34187" lon="6.21795">
        <ele>1056</ele>
        <time>2014-10-12T08:42:08Z</time>
      </trkpt>
      <trkpt lat="44.34189" lon="6.21808">
        <ele>1056</ele>
        <time>2014-10-12T08:42:15Z</time>
      </trkpt>
      <trkpt lat="44.3419" lon="6.21822">
        <ele>1054</ele>
        <time>2014-10-12T08:42:23Z</time>
      </trkpt>
      <trkpt lat="44.3419" lon="6.21836">
        <ele>1049</ele>
        <time>2014-10-12T08:42:30Z</time>
      </trkpt>
      <trkpt lat="44.3419" lon="6.21849">
        <ele>1049</ele>
        <time>2014-10-12T08:42:37Z</time>
      </trkpt>
      <trkpt lat="44.3419" lon="6.21863">
        <ele>1050</ele>
        <time>2014-10-12T08:42:44Z</time>
      </trkpt>
      <trkpt lat="44.34189" lon="6.21875">
        <ele>1050</ele>
        <time>2014-10-12T08:42:51Z</time>
      </trkpt>
      <trkpt lat="44.34189" lon="6.21889">
        <ele>1049</ele>
        <time>2014-10-12T08:42:58Z</time>
      </trkpt>
      <trkpt lat="44.34189" lon="6.21902">
        <ele>1048</ele>
        <time>2014-10-12T08:43:05Z</time>
      </trkpt>
      <trkpt lat="44.34188" lon="6.21915">
        <ele>1047</ele>
        <time>2014-10-12T08:43:12Z</time>
      </trkpt>
      <trkpt lat="44.34188" lon="6.21928">
        <ele>1044</ele>
        <time>2014-10-12T08:43:19Z</time>
      </trkpt>
      <trkpt lat="44.34187" lon="6.21942">
        <ele>1044</ele>
        <time>2014-10-12T08:43:27Z</time>
      </trkpt>
      <trkpt lat="44.34187" lon="6.21955">
        <ele>1045</ele>
        <time>2014-10-12T08:43:37Z</time>
      </trkpt>
      <trkpt lat="44.34185" lon="6.21969">
        <ele>1044</ele>
        <time>2014-10-12T08:43:45Z</time>
      </trkpt>
      <trkpt lat="44.34186" lon="6.21982">
        <ele>1044</ele>
        <time>2014-10-12T08:43:53Z</time>
      </trkpt>
      <trkpt lat="44.34187" lon="6.21996">
        <ele>1043</ele>
        <time>2014-10-12T08:44:01Z</time>
      </trkpt>
      <trkpt lat="44.34188" lon="6.2201">
        <ele>1044</ele>
        <time>2014-10-12T08:44:09Z</time>
      </trkpt>
      <trkpt lat="44.34187" lon="6.22024">
        <ele>1044</ele>
        <time>2014-10-12T08:44:17Z</time>
      </trkpt>
      <trkpt lat="44.34188" lon="6.22037">
        <ele>1045</ele>
        <time>2014-10-12T08:44:25Z</time>
      </trkpt>
      <trkpt lat="44.34189" lon="6.2205">
        <ele>1046</ele>
        <time>2014-10-12T08:44:33Z</time>
      </trkpt>
      <trkpt lat="44.34188" lon="6.22064">
        <ele>1046</ele>
        <time>2014-10-12T08:44:40Z</time>
      </trkpt>
      <trkpt lat="44.34187" lon="6.22078">
        <ele>1045</ele>
        <time>2014-10-12T08:44:47Z</time>
      </trkpt>
      <trkpt lat="44.34188" lon="6.22091">
        <ele>1049</ele>
        <time>2014-10-12T08:44:54Z</time>
      </trkpt>
      <trkpt lat="44.3419" lon="6.22103">
        <ele>1050</ele>
        <time>2014-10-12T08:45:01Z</time>
      </trkpt>
      <trkpt lat="44.34188" lon="6.22117">
        <ele>1051</ele>
        <time>2014-10-12T08:45:09Z</time>
      </trkpt>
      <trkpt lat="44.34185" lon="6.22129">
        <ele>1051</ele>
        <time>2014-10-12T08:45:15Z</time>
      </trkpt>
      <trkpt lat="44.34181" lon="6.22141">
        <ele>1051</ele>
        <time>2014-10-12T08:45:21Z</time>
      </trkpt>
      <trkpt lat="44.34177" lon="6.22154">
        <ele>1050</ele>
        <time>2014-10-12T08:45:31Z</time>
      </trkpt>
      <trkpt lat="44.34171" lon="6.22163">
        <ele>1047</ele>
        <time>2014-10-12T08:45:39Z</time>
      </trkpt>
      <trkpt lat="44.34164" lon="6.22172">
        <ele>1048</ele>
        <time>2014-10-12T08:45:46Z</time>
      </trkpt>
      <trkpt lat="44.34156" lon="6.22181">
        <ele>1052</ele>
        <time>2014-10-12T08:45:53Z</time>
      </trkpt>
      <trkpt lat="44.34149" lon="6.2219">
        <ele>1054</ele>
        <time>2014-10-12T08:46:02Z</time>
      </trkpt>
      <trkpt lat="44.34142" lon="6.22198">
        <ele>1056</ele>
        <time>2014-10-12T08:46:08Z</time>
      </trkpt>
      <trkpt lat="44.34136" lon="6.22208">
        <ele>1057</ele>
        <time>2014-10-12T08:46:16Z</time>
      </trkpt>
      <trkpt lat="44.3413" lon="6.22218">
        <ele>1057</ele>
        <time>2014-10-12T08:46:26Z</time>
      </trkpt>
      <trkpt lat="44.34124" lon="6.22228">
        <ele>1057</ele>
        <time>2014-10-12T08:46:35Z</time>
      </trkpt>
      <trkpt lat="44.34119" lon="6.2224">
        <ele>1057</ele>
        <time>2014-10-12T08:46:43Z</time>
      </trkpt>
      <trkpt lat="44.34112" lon="6.2225">
        <ele>1061</ele>
        <time>2014-10-12T08:46:52Z</time>
      </trkpt>
      <trkpt lat="44.34106" lon="6.22261">
        <ele>1060</ele>
        <time>2014-10-12T08:46:58Z</time>
      </trkpt>
      <trkpt lat="44.34099" lon="6.22271">
        <ele>1060</ele>
        <time>2014-10-12T08:47:03Z</time>
      </trkpt>
      <trkpt lat="44.34093" lon="6.22281">
        <ele>1061</ele>
        <time>2014-10-12T08:47:09Z</time>
      </trkpt>
      <trkpt lat="44.34086" lon="6.22291">
        <ele>1061</ele>
        <time>2014-10-12T08:47:18Z</time>
      </trkpt>
      <trkpt lat="44.3408" lon="6.223">
        <ele>1062</ele>
        <time>2014-10-12T08:47:25Z</time>
      </trkpt>
      <trkpt lat="44.34074" lon="6.22311">
        <ele>1062</ele>
        <time>2014-10-12T08:47:33Z</time>
      </trkpt>
      <trkpt lat="44.3407" lon="6.22325">
        <ele>1061</ele>
        <time>2014-10-12T08:47:41Z</time>
      </trkpt>
      <trkpt lat="44.34068" lon="6.22338">
        <ele>1060</ele>
        <time>2014-10-12T08:47:48Z</time>
      </trkpt>
      <trkpt lat="44.34065" lon="6.22351">
        <ele>1061</ele>
        <time>2014-10-12T08:47:55Z</time>
      </trkpt>
      <trkpt lat="44.34065" lon="6.22364">
        <ele>1061</ele>
        <time>2014-10-12T08:48:03Z</time>
      </trkpt>
      <trkpt lat="44.34063" lon="6.22377">
        <ele>1061</ele>
        <time>2014-10-12T08:48:11Z</time>
      </trkpt>
      <trkpt lat="44.34062" lon="6.2239">
        <ele>1061</ele>
        <time>2014-10-12T08:48:19Z</time>
      </trkpt>
      <trkpt lat="44.34059" lon="6.22402">
        <ele>1061</ele>
        <time>2014-10-12T08:48:25Z</time>
      </trkpt>
      <trkpt lat="44.34056" lon="6.22415">
        <ele>1061</ele>
        <time>2014-10-12T08:48:32Z</time>
      </trkpt>
      <trkpt lat="44.34054" lon="6.22428">
        <ele>1061</ele>
        <time>2014-10-12T08:48:41Z</time>
      </trkpt>
      <trkpt lat="44.34053" lon="6.22442">
        <ele>1061</ele>
        <time>2014-10-12T08:48:50Z</time>
      </trkpt>
      <trkpt lat="44.34052" lon="6.22455">
        <ele>1061</ele>
        <time>2014-10-12T08:48:57Z</time>
      </trkpt>
      <trkpt lat="44.3405" lon="6.22467">
        <ele>1062</ele>
        <time>2014-10-12T08:49:04Z</time>
      </trkpt>
      <trkpt lat="44.34047" lon="6.22479">
        <ele>1062</ele>
        <time>2014-10-12T08:49:10Z</time>
      </trkpt>
      <trkpt lat="44.34042" lon="6.22491">
        <ele>1062</ele>
        <time>2014-10-12T08:49:17Z</time>
      </trkpt>
      <trkpt lat="44.34036" lon="6.22503">
        <ele>1062</ele>
        <time>2014-10-12T08:49:24Z</time>
      </trkpt>
      <trkpt lat="44.3403" lon="6.22514">
        <ele>1062</ele>
        <time>2014-10-12T08:49:32Z</time>
      </trkpt>
      <trkpt lat="44.34023" lon="6.22523">
        <ele>1062</ele>
        <time>2014-10-12T08:49:40Z</time>
      </trkpt>
      <trkpt lat="44.34015" lon="6.22529">
        <ele>1062</ele>
        <time>2014-10-12T08:49:47Z</time>
      </trkpt>
      <trkpt lat="44.34007" lon="6.22538">
        <ele>1061</ele>
        <time>2014-10-12T08:49:55Z</time>
      </trkpt>
      <trkpt lat="44.33998" lon="6.22544">
        <ele>1060</ele>
        <time>2014-10-12T08:50:02Z</time>
      </trkpt>
      <trkpt lat="44.33989" lon="6.22547">
        <ele>1060</ele>
        <time>2014-10-12T08:50:09Z</time>
      </trkpt>
      <trkpt lat="44.3398" lon="6.22548">
        <ele>1061</ele>
        <time>2014-10-12T08:50:16Z</time>
      </trkpt>
      <trkpt lat="44.33971" lon="6.22547">
        <ele>1061</ele>
        <time>2014-10-12T08:50:23Z</time>
      </trkpt>
      <trkpt lat="44.33961" lon="6.22548">
        <ele>1062</ele>
        <time>2014-10-12T08:50:31Z</time>
      </trkpt>
      <trkpt lat="44.33951" lon="6.22545">
        <ele>1062</ele>
        <time>2014-10-12T08:50:39Z</time>
      </trkpt>
      <trkpt lat="44.33942" lon="6.22541">
        <ele>1063</ele>
        <time>2014-10-12T08:50:47Z</time>
      </trkpt>
      <trkpt lat="44.33933" lon="6.22544">
        <ele>1063</ele>
        <time>2014-10-12T08:50:54Z</time>
      </trkpt>
      <trkpt lat="44.33924" lon="6.22545">
        <ele>1063</ele>
        <time>2014-10-12T08:51:01Z</time>
      </trkpt>
      <trkpt lat="44.33915" lon="6.22549">
        <ele>1071</ele>
        <time>2014-10-12T08:51:08Z</time>
      </trkpt>
      <trkpt lat="44.33906" lon="6.22552">
        <ele>1070</ele>
        <time>2014-10-12T08:51:16Z</time>
      </trkpt>
      <trkpt lat="44.33899" lon="6.22561">
        <ele>1069</ele>
        <time>2014-10-12T08:51:28Z</time>
      </trkpt>
      <trkpt lat="44.33894" lon="6.22572">
        <ele>1068</ele>
        <time>2014-10-12T08:51:37Z</time>
      </trkpt>
      <trkpt lat="44.33892" lon="6.22585">
        <ele>1062</ele>
        <time>2014-10-12T08:51:45Z</time>
      </trkpt>
      <trkpt lat="44.33891" lon="6.22598">
        <ele>1063</ele>
        <time>2014-10-12T08:51:54Z</time>
      </trkpt>
      <trkpt lat="44.33887" lon="6.2261">
        <ele>1064</ele>
        <time>2014-10-12T08:52:00Z</time>
      </trkpt>
      <trkpt lat="44.33884" lon="6.22622">
        <ele>1065</ele>
        <time>2014-10-12T08:52:06Z</time>
      </trkpt>
      <trkpt lat="44.33881" lon="6.22635">
        <ele>1065</ele>
        <time>2014-10-12T08:52:18Z</time>
      </trkpt>
      <trkpt lat="44.33879" lon="6.22648">
        <ele>1065</ele>
        <time>2014-10-12T08:52:42Z</time>
      </trkpt>
      <trkpt lat="44.33879" lon="6.22661">
        <ele>1066</ele>
        <time>2014-10-12T08:52:50Z</time>
      </trkpt>
      <trkpt lat="44.33878" lon="6.22675">
        <ele>1069</ele>
        <time>2014-10-12T08:52:57Z</time>
      </trkpt>
      <trkpt lat="44.33875" lon="6.22689">
        <ele>1070</ele>
        <time>2014-10-12T08:53:04Z</time>
      </trkpt>
      <trkpt lat="44.33875" lon="6.22702">
        <ele>1070</ele>
        <time>2014-10-12T08:53:11Z</time>
      </trkpt>
      <trkpt lat="44.33874" lon="6.22714">
        <ele>1071</ele>
        <time>2014-10-12T08:53:17Z</time>
      </trkpt>
      <trkpt lat="44.33872" lon="6.22727">
        <ele>1071</ele>
        <time>2014-10-12T08:53:25Z</time>
      </trkpt>
      <trkpt lat="44.33872" lon="6.22741">
        <ele>1071</ele>
        <time>2014-10-12T08:53:37Z</time>
      </trkpt>
      <trkpt lat="44.33868" lon="6.22753">
        <ele>1074</ele>
        <time>2014-10-12T08:53:47Z</time>
      </trkpt>
      <trkpt lat="44.33863" lon="6.22764">
        <ele>1074</ele>
        <time>2014-10-12T08:53:58Z</time>
      </trkpt>
      <trkpt lat="44.33859" lon="6.22776">
        <ele>1074</ele>
        <time>2014-10-12T08:54:06Z</time>
      </trkpt>
      <trkpt lat="44.33852" lon="6.22784">
        <ele>1073</ele>
        <time>2014-10-12T08:54:47Z</time>
      </trkpt>
      <trkpt lat="44.33846" lon="6.22794">
        <ele>1073</ele>
        <time>2014-10-12T08:55:58Z</time>
      </trkpt>
      <trkpt lat="44.33841" lon="6.22806">
        <ele>1072</ele>
        <time>2014-10-12T08:56:10Z</time>
      </trkpt>
      <trkpt lat="44.33836" lon="6.22818">
        <ele>1070</ele>
        <time>2014-10-12T08:56:19Z</time>
      </trkpt>
      <trkpt lat="44.33832" lon="6.22829">
        <ele>1066</ele>
        <time>2014-10-12T08:56:27Z</time>
      </trkpt>
      <trkpt lat="44.33829" lon="6.22841">
        <ele>1069</ele>
        <time>2014-10-12T08:56:36Z</time>
      </trkpt>
      <trkpt lat="44.33825" lon="6.22853">
        <ele>1073</ele>
        <time>2014-10-12T08:56:45Z</time>
      </trkpt>
      <trkpt lat="44.33825" lon="6.22866">
        <ele>1074</ele>
        <time>2014-10-12T08:56:54Z</time>
      </trkpt>
      <trkpt lat="44.33822" lon="6.2288">
        <ele>1075</ele>
        <time>2014-10-12T08:57:03Z</time>
      </trkpt>
      <trkpt lat="44.3382" lon="6.22893">
        <ele>1074</ele>
        <time>2014-10-12T08:57:14Z</time>
      </trkpt>
      <trkpt lat="44.33819" lon="6.22907">
        <ele>1072</ele>
        <time>2014-10-12T08:57:23Z</time>
      </trkpt>
      <trkpt lat="44.33819" lon="6.22921">
        <ele>1071</ele>
        <time>2014-10-12T08:57:32Z</time>
      </trkpt>
      <trkpt lat="44.33819" lon="6.22935">
        <ele>1074</ele>
        <time>2014-10-12T08:57:40Z</time>
      </trkpt>
      <trkpt lat="44.33818" lon="6.22949">
        <ele>1075</ele>
        <time>2014-10-12T08:57:48Z</time>
      </trkpt>
      <trkpt lat="44.33822" lon="6.22963">
        <ele>1075</ele>
        <time>2014-10-12T08:57:54Z</time>
      </trkpt>
      <trkpt lat="44.33824" lon="6.22976">
        <ele>1073</ele>
        <time>2014-10-12T08:58:03Z</time>
      </trkpt>
      <trkpt lat="44.33831" lon="6.22985">
        <ele>1071</ele>
        <time>2014-10-12T08:58:10Z</time>
      </trkpt>
      <trkpt lat="44.33839" lon="6.22995">
        <ele>1065</ele>
        <time>2014-10-12T08:58:17Z</time>
      </trkpt>
      <trkpt lat="44.33846" lon="6.23003">
        <ele>1066</ele>
        <time>2014-10-12T08:58:25Z</time>
      </trkpt>
      <trkpt lat="44.33854" lon="6.2301">
        <ele>1066</ele>
        <time>2014-10-12T08:58:31Z</time>
      </trkpt>
      <trkpt lat="44.33861" lon="6.23018">
        <ele>1067</ele>
        <time>2014-10-12T08:58:40Z</time>
      </trkpt>
      <trkpt lat="44.33871" lon="6.23017">
        <ele>1067</ele>
        <time>2014-10-12T08:58:46Z</time>
      </trkpt>
      <trkpt lat="44.3388" lon="6.23013">
        <ele>1067</ele>
        <time>2014-10-12T08:58:53Z</time>
      </trkpt>
      <trkpt lat="44.33889" lon="6.2301">
        <ele>1067</ele>
        <time>2014-10-12T08:59:01Z</time>
      </trkpt>
      <trkpt lat="44.33898" lon="6.23007">
        <ele>1067</ele>
        <time>2014-10-12T08:59:11Z</time>
      </trkpt>
      <trkpt lat="44.33908" lon="6.23006">
        <ele>1067</ele>
        <time>2014-10-12T08:59:21Z</time>
      </trkpt>
      <trkpt lat="44.33917" lon="6.23009">
        <ele>1068</ele>
        <time>2014-10-12T08:59:28Z</time>
      </trkpt>
      <trkpt lat="44.33927" lon="6.23013">
        <ele>1069</ele>
        <time>2014-10-12T08:59:35Z</time>
      </trkpt>
      <trkpt lat="44.33936" lon="6.23019">
        <ele>1070</ele>
        <time>2014-10-12T08:59:42Z</time>
      </trkpt>
      <trkpt lat="44.33943" lon="6.23027">
        <ele>1071</ele>
        <time>2014-10-12T08:59:50Z</time>
      </trkpt>
      <trkpt lat="44.33949" lon="6.23038">
        <ele>1071</ele>
        <time>2014-10-12T08:59:58Z</time>
      </trkpt>
      <trkpt lat="44.33954" lon="6.23049">
        <ele>1071</ele>
        <time>2014-10-12T09:00:07Z</time>
      </trkpt>
      <trkpt lat="44.33958" lon="6.23062">
        <ele>1071</ele>
        <time>2014-10-12T09:00:15Z</time>
      </trkpt>
      <trkpt lat="44.3396" lon="6.23075">
        <ele>1071</ele>
        <time>2014-10-12T09:00:23Z</time>
      </trkpt>
      <trkpt lat="44.3396" lon="6.23088">
        <ele>1070</ele>
        <time>2014-10-12T09:00:31Z</time>
      </trkpt>
      <trkpt lat="44.33954" lon="6.23098">
        <ele>1070</ele>
        <time>2014-10-12T09:00:58Z</time>
      </trkpt>
      <trkpt lat="44.33951" lon="6.2311">
        <ele>1070</ele>
        <time>2014-10-12T09:01:14Z</time>
      </trkpt>
      <trkpt lat="44.33944" lon="6.23119">
        <ele>1070</ele>
        <time>2014-10-12T09:01:23Z</time>
      </trkpt>
      <trkpt lat="44.33936" lon="6.23125">
        <ele>1070</ele>
        <time>2014-10-12T09:01:35Z</time>
      </trkpt>
      <trkpt lat="44.33927" lon="6.23129">
        <ele>1070</ele>
        <time>2014-10-12T09:01:46Z</time>
      </trkpt>
      <trkpt lat="44.33919" lon="6.23135">
        <ele>1070</ele>
        <time>2014-10-12T09:01:58Z</time>
      </trkpt>
      <trkpt lat="44.33909" lon="6.23136">
        <ele>1071</ele>
        <time>2014-10-12T09:02:06Z</time>
      </trkpt>
      <trkpt lat="44.339" lon="6.23135">
        <ele>1071</ele>
        <time>2014-10-12T09:02:14Z</time>
      </trkpt>
      <trkpt lat="44.3389" lon="6.23136">
        <ele>1072</ele>
        <time>2014-10-12T09:02:22Z</time>
      </trkpt>
      <trkpt lat="44.3388" lon="6.23133">
        <ele>1072</ele>
        <time>2014-10-12T09:02:30Z</time>
      </trkpt>
      <trkpt lat="44.3387" lon="6.23129">
        <ele>1072</ele>
        <time>2014-10-12T09:02:36Z</time>
      </trkpt>
      <trkpt lat="44.33861" lon="6.23132">
        <ele>1073</ele>
        <time>2014-10-12T09:02:43Z</time>
      </trkpt>
      <trkpt lat="44.33852" lon="6.23133">
        <ele>1073</ele>
        <time>2014-10-12T09:02:51Z</time>
      </trkpt>
      <trkpt lat="44.33842" lon="6.23132">
        <ele>1074</ele>
        <time>2014-10-12T09:03:03Z</time>
      </trkpt>
      <trkpt lat="44.33833" lon="6.23128">
        <ele>1081</ele>
        <time>2014-10-12T09:03:13Z</time>
      </trkpt>
      <trkpt lat="44.33824" lon="6.23126">
        <ele>1081</ele>
        <time>2014-10-12T09:03:25Z</time>
      </trkpt>
      <trkpt lat="44.33815" lon="6.23123">
        <ele>1082</ele>
        <time>2014-10-12T09:03:38Z</time>
      </trkpt>
      <trkpt lat="44.33806" lon="6.23119">
        <ele>1082</ele>
        <time>2014-10-12T09:03:50Z</time>
      </trkpt>
      <trkpt lat="44.33797" lon="6.23114">
        <ele>1083</ele>
        <time>2014-10-12T09:04:04Z</time>
      </trkpt>
      <trkpt lat="44.3379" lon="6.23106">
        <ele>1084</ele>
        <time>2014-10-12T09:04:23Z</time>
      </trkpt>
      <trkpt lat="44.33781" lon="6.231">
        <ele>1085</ele>
        <time>2014-10-12T09:04:43Z</time>
      </trkpt>
      <trkpt lat="44.33774" lon="6.23093">
        <ele>1087</ele>
        <time>2014-10-12T09:04:54Z</time>
      </trkpt>
      <trkpt lat="44.33765" lon="6.2309">
        <ele>1089</ele>
        <time>2014-10-12T09:05:05Z</time>
      </trkpt>
      <trkpt lat="44.33756" lon="6.23085">
        <ele>1092</ele>
        <time>2014-10-12T09:05:27Z</time>
      </trkpt>
      <trkpt lat="44.33745" lon="6.23082">
        <ele>1100</ele>
        <time>2014-10-12T09:05:56Z</time>
      </trkpt>
      <trkpt lat="44.33739" lon="6.23071">
        <ele>1107</ele>
        <time>2014-10-12T09:06:11Z</time>
      </trkpt>
      <trkpt lat="44.33731" lon="6.23063">
        <ele>1112</ele>
        <time>2014-10-12T09:06:37Z</time>
      </trkpt>
      <trkpt lat="44.33722" lon="6.2306">
        <ele>1116</ele>
        <time>2014-10-12T09:07:05Z</time>
      </trkpt>
      <trkpt lat="44.33713" lon="6.23058">
        <ele>1119</ele>
        <time>2014-10-12T09:07:27Z</time>
      </trkpt>
      <trkpt lat="44.33704" lon="6.23052">
        <ele>1122</ele>
        <time>2014-10-12T09:07:56Z</time>
      </trkpt>
      <trkpt lat="44.33696" lon="6.23045">
        <ele>1125</ele>
        <time>2014-10-12T09:08:12Z</time>
      </trkpt>
      <trkpt lat="44.33687" lon="6.2304">
        <ele>1128</ele>
        <time>2014-10-12T09:08:26Z</time>
      </trkpt>
      <trkpt lat="44.33686" lon="6.23028">
        <ele>1131</ele>
        <time>2014-10-12T09:08:57Z</time>
      </trkpt>
      <trkpt lat="44.33679" lon="6.2302">
        <ele>1136</ele>
        <time>2014-10-12T09:09:16Z</time>
      </trkpt>
      <trkpt lat="44.3367" lon="6.2302">
        <ele>1139</ele>
        <time>2014-10-12T09:09:51Z</time>
      </trkpt>
      <trkpt lat="44.33661" lon="6.23015">
        <ele>1161</ele>
        <time>2014-10-12T09:10:02Z</time>
      </trkpt>
      <trkpt lat="44.33652" lon="6.23009">
        <ele>1162</ele>
        <time>2014-10-12T09:10:36Z</time>
      </trkpt>
      <trkpt lat="44.33644" lon="6.23005">
        <ele>1163</ele>
        <time>2014-10-12T09:11:07Z</time>
      </trkpt>
      <trkpt lat="44.33636" lon="6.22998">
        <ele>1176</ele>
        <time>2014-10-12T09:11:46Z</time>
      </trkpt>
      <trkpt lat="44.33636" lon="6.22983">
        <ele>1177</ele>
        <time>2014-10-12T09:12:21Z</time>
      </trkpt>
      <trkpt lat="44.33631" lon="6.22971">
        <ele>1179</ele>
        <time>2014-10-12T09:12:30Z</time>
      </trkpt>
      <trkpt lat="44.33628" lon="6.22958">
        <ele>1180</ele>
        <time>2014-10-12T09:12:44Z</time>
      </trkpt>
      <trkpt lat="44.33624" lon="6.22946">
        <ele>1182</ele>
        <time>2014-10-12T09:12:54Z</time>
      </trkpt>
      <trkpt lat="44.3362" lon="6.22935">
        <ele>1184</ele>
        <time>2014-10-12T09:13:04Z</time>
      </trkpt>
      <trkpt lat="44.33616" lon="6.22923">
        <ele>1186</ele>
        <time>2014-10-12T09:13:19Z</time>
      </trkpt>
      <trkpt lat="44.33614" lon="6.22935">
        <ele>1185</ele>
        <time>2014-10-12T09:13:53Z</time>
      </trkpt>
      <trkpt lat="44.33609" lon="6.22947">
        <ele>1186</ele>
        <time>2014-10-12T09:14:10Z</time>
      </trkpt>
      <trkpt lat="44.336" lon="6.22948">
        <ele>1187</ele>
        <time>2014-10-12T09:14:24Z</time>
      </trkpt>
      <trkpt lat="44.33591" lon="6.22943">
        <ele>1190</ele>
        <time>2014-10-12T09:14:31Z</time>
      </trkpt>
      <trkpt lat="44.33584" lon="6.22935">
        <ele>1193</ele>
        <time>2014-10-12T09:14:45Z</time>
      </trkpt>
      <trkpt lat="44.33577" lon="6.22943">
        <ele>1209</ele>
        <time>2014-10-12T09:15:42Z</time>
      </trkpt>
      <trkpt lat="44.33568" lon="6.22947">
        <ele>1209</ele>
        <time>2014-10-12T09:16:01Z</time>
      </trkpt>
      <trkpt lat="44.33559" lon="6.22946">
        <ele>1210</ele>
        <time>2014-10-12T09:16:16Z</time>
      </trkpt>
      <trkpt lat="44.3355" lon="6.22947">
        <ele>1212</ele>
        <time>2014-10-12T09:16:29Z</time>
      </trkpt>
      <trkpt lat="44.33541" lon="6.2295">
        <ele>1213</ele>
        <time>2014-10-12T09:16:43Z</time>
      </trkpt>
      <trkpt lat="44.33533" lon="6.22957">
        <ele>1214</ele>
        <time>2014-10-12T09:17:01Z</time>
      </trkpt>
      <trkpt lat="44.33523" lon="6.22957">
        <ele>1215</ele>
        <time>2014-10-12T09:17:15Z</time>
      </trkpt>
      <trkpt lat="44.33514" lon="6.22962">
        <ele>1215</ele>
        <time>2014-10-12T09:17:22Z</time>
      </trkpt>
      <trkpt lat="44.33505" lon="6.22963">
        <ele>1216</ele>
        <time>2014-10-12T09:17:28Z</time>
      </trkpt>
      <trkpt lat="44.33502" lon="6.22961">
        <ele>1216</ele>
        <time>2014-10-12T09:20:38Z</time>
      </trkpt>
      <trkpt lat="44.33494" lon="6.22968">
        <ele>1224</ele>
        <time>2014-10-12T09:22:49Z</time>
      </trkpt>
      <trkpt lat="44.33485" lon="6.22974">
        <ele>1224</ele>
        <time>2014-10-12T09:22:58Z</time>
      </trkpt>
      <trkpt lat="44.33476" lon="6.22977">
        <ele>1225</ele>
        <time>2014-10-12T09:23:14Z</time>
      </trkpt>
      <trkpt lat="44.33467" lon="6.22983">
        <ele>1225</ele>
        <time>2014-10-12T09:23:28Z</time>
      </trkpt>
      <trkpt lat="44.33459" lon="6.2299">
        <ele>1226</ele>
        <time>2014-10-12T09:23:38Z</time>
      </trkpt>
      <trkpt lat="44.33451" lon="6.22994">
        <ele>1227</ele>
        <time>2014-10-12T09:23:49Z</time>
      </trkpt>
      <trkpt lat="44.33442" lon="6.22998">
        <ele>1229</ele>
        <time>2014-10-12T09:23:58Z</time>
      </trkpt>
      <trkpt lat="44.33433" lon="6.23002">
        <ele>1226</ele>
        <time>2014-10-12T09:24:12Z</time>
      </trkpt>
      <trkpt lat="44.33423" lon="6.23002">
        <ele>1231</ele>
        <time>2014-10-12T09:24:23Z</time>
      </trkpt>
      <trkpt lat="44.33413" lon="6.23003">
        <ele>1237</ele>
        <time>2014-10-12T09:24:36Z</time>
      </trkpt>
      <trkpt lat="44.33403" lon="6.23007">
        <ele>1237</ele>
        <time>2014-10-12T09:24:46Z</time>
      </trkpt>
      <trkpt lat="44.33394" lon="6.23011">
        <ele>1238</ele>
        <time>2014-10-12T09:24:56Z</time>
      </trkpt>
      <trkpt lat="44.33385" lon="6.23015">
        <ele>1239</ele>
        <time>2014-10-12T09:25:07Z</time>
      </trkpt>
      <trkpt lat="44.33376" lon="6.23018">
        <ele>1240</ele>
        <time>2014-10-12T09:25:18Z</time>
      </trkpt>
      <trkpt lat="44.33367" lon="6.23022">
        <ele>1241</ele>
        <time>2014-10-12T09:25:28Z</time>
      </trkpt>
      <trkpt lat="44.33358" lon="6.23027">
        <ele>1242</ele>
        <time>2014-10-12T09:25:51Z</time>
      </trkpt>
      <trkpt lat="44.33349" lon="6.23026">
        <ele>1244</ele>
        <time>2014-10-12T09:26:05Z</time>
      </trkpt>
      <trkpt lat="44.3334" lon="6.23028">
        <ele>1245</ele>
        <time>2014-10-12T09:26:16Z</time>
      </trkpt>
      <trkpt lat="44.33331" lon="6.23032">
        <ele>1259</ele>
        <time>2014-10-12T09:26:28Z</time>
      </trkpt>
      <trkpt lat="44.33322" lon="6.23031">
        <ele>1260</ele>
        <time>2014-10-12T09:26:40Z</time>
      </trkpt>
      <trkpt lat="44.33313" lon="6.23028">
        <ele>1261</ele>
        <time>2014-10-12T09:26:50Z</time>
      </trkpt>
      <trkpt lat="44.33303" lon="6.23026">
        <ele>1262</ele>
        <time>2014-10-12T09:27:06Z</time>
      </trkpt>
      <trkpt lat="44.33294" lon="6.23027">
        <ele>1263</ele>
        <time>2014-10-12T09:27:22Z</time>
      </trkpt>
      <trkpt lat="44.33286" lon="6.23023">
        <ele>1265</ele>
        <time>2014-10-12T09:27:39Z</time>
      </trkpt>
      <trkpt lat="44.33278" lon="6.23016">
        <ele>1266</ele>
        <time>2014-10-12T09:27:54Z</time>
      </trkpt>
      <trkpt lat="44.3327" lon="6.23022">
        <ele>1267</ele>
        <time>2014-10-12T09:28:10Z</time>
      </trkpt>
      <trkpt lat="44.33261" lon="6.23027">
        <ele>1268</ele>
        <time>2014-10-12T09:28:22Z</time>
      </trkpt>
      <trkpt lat="44.33251" lon="6.23027">
        <ele>1269</ele>
        <time>2014-10-12T09:28:30Z</time>
      </trkpt>
      <trkpt lat="44.33242" lon="6.23028">
        <ele>1285</ele>
        <time>2014-10-12T09:28:38Z</time>
      </trkpt>
      <trkpt lat="44.33234" lon="6.23036">
        <ele>1287</ele>
        <time>2014-10-12T09:28:59Z</time>
      </trkpt>
      <trkpt lat="44.33225" lon="6.23036">
        <ele>1288</ele>
        <time>2014-10-12T09:29:11Z</time>
      </trkpt>
      <trkpt lat="44.33215" lon="6.23039">
        <ele>1290</ele>
        <time>2014-10-12T09:29:24Z</time>
      </trkpt>
      <trkpt lat="44.33206" lon="6.2304">
        <ele>1292</ele>
        <time>2014-10-12T09:29:38Z</time>
      </trkpt>
      <trkpt lat="44.33197" lon="6.23036">
        <ele>1294</ele>
        <time>2014-10-12T09:29:51Z</time>
      </trkpt>
      <trkpt lat="44.33188" lon="6.23036">
        <ele>1295</ele>
        <time>2014-10-12T09:30:07Z</time>
      </trkpt>
      <trkpt lat="44.3318" lon="6.23027">
        <ele>1297</ele>
        <time>2014-10-12T09:30:27Z</time>
      </trkpt>
      <trkpt lat="44.33172" lon="6.23021">
        <ele>1300</ele>
        <time>2014-10-12T09:30:48Z</time>
      </trkpt>
      <trkpt lat="44.33165" lon="6.23015">
        <ele>1314</ele>
        <time>2014-10-12T09:31:08Z</time>
      </trkpt>
      <trkpt lat="44.33156" lon="6.2301">
        <ele>1314</ele>
        <time>2014-10-12T09:31:29Z</time>
      </trkpt>
      <trkpt lat="44.33147" lon="6.23005">
        <ele>1315</ele>
        <time>2014-10-12T09:31:52Z</time>
      </trkpt>
      <trkpt lat="44.33138" lon="6.23005">
        <ele>1317</ele>
        <time>2014-10-12T09:32:18Z</time>
      </trkpt>
      <trkpt lat="44.33129" lon="6.23001">
        <ele>1319</ele>
        <time>2014-10-12T09:32:38Z</time>
      </trkpt>
      <trkpt lat="44.3312" lon="6.23002">
        <ele>1321</ele>
        <time>2014-10-12T09:33:06Z</time>
      </trkpt>
      <trkpt lat="44.33111" lon="6.23001">
        <ele>1324</ele>
        <time>2014-10-12T09:33:35Z</time>
      </trkpt>
      <trkpt lat="44.33101" lon="6.23003">
        <ele>1328</ele>
        <time>2014-10-12T09:33:48Z</time>
      </trkpt>
      <trkpt lat="44.33092" lon="6.23002">
        <ele>1333</ele>
        <time>2014-10-12T09:34:01Z</time>
      </trkpt>
      <trkpt lat="44.33082" lon="6.23001">
        <ele>1339</ele>
        <time>2014-10-12T09:34:56Z</time>
      </trkpt>
      <trkpt lat="44.33072" lon="6.23">
        <ele>1337</ele>
        <time>2014-10-12T09:35:13Z</time>
      </trkpt>
      <trkpt lat="44.33063" lon="6.22999">
        <ele>1335</ele>
        <time>2014-10-12T09:35:25Z</time>
      </trkpt>
      <trkpt lat="44.33054" lon="6.22995">
        <ele>1335</ele>
        <time>2014-10-12T09:35:36Z</time>
      </trkpt>
      <trkpt lat="44.33045" lon="6.23">
        <ele>1336</ele>
        <time>2014-10-12T09:38:28Z</time>
      </trkpt>
      <trkpt lat="44.33036" lon="6.22995">
        <ele>1336</ele>
        <time>2014-10-12T09:38:39Z</time>
      </trkpt>
      <trkpt lat="44.33027" lon="6.22994">
        <ele>1337</ele>
        <time>2014-10-12T09:38:49Z</time>
      </trkpt>
      <trkpt lat="44.33017" lon="6.22992">
        <ele>1338</ele>
        <time>2014-10-12T09:39:00Z</time>
      </trkpt>
      <trkpt lat="44.33008" lon="6.22992">
        <ele>1341</ele>
        <time>2014-10-12T09:39:12Z</time>
      </trkpt>
      <trkpt lat="44.32998" lon="6.22991">
        <ele>1344</ele>
        <time>2014-10-12T09:39:23Z</time>
      </trkpt>
      <trkpt lat="44.32989" lon="6.22992">
        <ele>1343</ele>
        <time>2014-10-12T09:39:36Z</time>
      </trkpt>
      <trkpt lat="44.32979" lon="6.22991">
        <ele>1342</ele>
        <time>2014-10-12T09:39:43Z</time>
      </trkpt>
      <trkpt lat="44.32969" lon="6.2299">
        <ele>1342</ele>
        <time>2014-10-12T09:39:51Z</time>
      </trkpt>
      <trkpt lat="44.3296" lon="6.22989">
        <ele>1342</ele>
        <time>2014-10-12T09:40:00Z</time>
      </trkpt>
      <trkpt lat="44.3295" lon="6.22989">
        <ele>1343</ele>
        <time>2014-10-12T09:40:09Z</time>
      </trkpt>
      <trkpt lat="44.32941" lon="6.22989">
        <ele>1344</ele>
        <time>2014-10-12T09:40:18Z</time>
      </trkpt>
      <trkpt lat="44.32932" lon="6.2299">
        <ele>1346</ele>
        <time>2014-10-12T09:40:27Z</time>
      </trkpt>
      <trkpt lat="44.32922" lon="6.22988">
        <ele>1347</ele>
        <time>2014-10-12T09:40:38Z</time>
      </trkpt>
      <trkpt lat="44.32913" lon="6.2299">
        <ele>1353</ele>
        <time>2014-10-12T09:40:51Z</time>
      </trkpt>
      <trkpt lat="44.32903" lon="6.22992">
        <ele>1354</ele>
        <time>2014-10-12T09:41:04Z</time>
      </trkpt>
      <trkpt lat="44.32894" lon="6.22992">
        <ele>1355</ele>
        <time>2014-10-12T09:41:15Z</time>
      </trkpt>
      <trkpt lat="44.32885" lon="6.2299">
        <ele>1357</ele>
        <time>2014-10-12T09:41:24Z</time>
      </trkpt>
      <trkpt lat="44.32877" lon="6.22984">
        <ele>1358</ele>
        <time>2014-10-12T09:41:35Z</time>
      </trkpt>
      <trkpt lat="44.32868" lon="6.22986">
        <ele>1360</ele>
        <time>2014-10-12T09:41:53Z</time>
      </trkpt>
      <trkpt lat="44.32858" lon="6.22985">
        <ele>1363</ele>
        <time>2014-10-12T09:42:07Z</time>
      </trkpt>
      <trkpt lat="44.32849" lon="6.2299">
        <ele>1367</ele>
        <time>2014-10-12T09:42:25Z</time>
      </trkpt>
      <trkpt lat="44.3284" lon="6.2299">
        <ele>1370</ele>
        <time>2014-10-12T09:42:36Z</time>
      </trkpt>
      <trkpt lat="44.32831" lon="6.2299">
        <ele>1379</ele>
        <time>2014-10-12T09:42:50Z</time>
      </trkpt>
      <trkpt lat="44.32822" lon="6.22993">
        <ele>1380</ele>
        <time>2014-10-12T09:43:02Z</time>
      </trkpt>
      <trkpt lat="44.32814" lon="6.22999">
        <ele>1380</ele>
        <time>2014-10-12T09:43:14Z</time>
      </trkpt>
      <trkpt lat="44.32804" lon="6.22996">
        <ele>1382</ele>
        <time>2014-10-12T09:43:24Z</time>
      </trkpt>
      <trkpt lat="44.32795" lon="6.22992">
        <ele>1383</ele>
        <time>2014-10-12T09:43:40Z</time>
      </trkpt>
      <trkpt lat="44.32786" lon="6.22996">
        <ele>1385</ele>
        <time>2014-10-12T09:44:08Z</time>
      </trkpt>
      <trkpt lat="44.3278" lon="6.23005">
        <ele>1389</ele>
        <time>2014-10-12T09:44:23Z</time>
      </trkpt>
      <trkpt lat="44.3277" lon="6.23005">
        <ele>1392</ele>
        <time>2014-10-12T09:44:34Z</time>
      </trkpt>
      <trkpt lat="44.32761" lon="6.23008">
        <ele>1395</ele>
        <time>2014-10-12T09:44:53Z</time>
      </trkpt>
      <trkpt lat="44.32752" lon="6.23009">
        <ele>1398</ele>
        <time>2014-10-12T09:45:12Z</time>
      </trkpt>
      <trkpt lat="44.32743" lon="6.23009">
        <ele>1409</ele>
        <time>2014-10-12T09:45:34Z</time>
      </trkpt>
      <trkpt lat="44.32734" lon="6.23011">
        <ele>1411</ele>
        <time>2014-10-12T09:45:51Z</time>
      </trkpt>
      <trkpt lat="44.32727" lon="6.23019">
        <ele>1413</ele>
        <time>2014-10-12T09:46:12Z</time>
      </trkpt>
      <trkpt lat="44.32718" lon="6.23024">
        <ele>1415</ele>
        <time>2014-10-12T09:46:29Z</time>
      </trkpt>
      <trkpt lat="44.32709" lon="6.23027">
        <ele>1418</ele>
        <time>2014-10-12T09:46:46Z</time>
      </trkpt>
      <trkpt lat="44.32703" lon="6.23017">
        <ele>1420</ele>
        <time>2014-10-12T09:47:00Z</time>
      </trkpt>
      <trkpt lat="44.32697" lon="6.23027">
        <ele>1420</ele>
        <time>2014-10-12T09:47:31Z</time>
      </trkpt>
      <trkpt lat="44.32693" lon="6.23038">
        <ele>1421</ele>
        <time>2014-10-12T09:48:07Z</time>
      </trkpt>
      <trkpt lat="44.32684" lon="6.23037">
        <ele>1422</ele>
        <time>2014-10-12T09:48:13Z</time>
      </trkpt>
      <trkpt lat="44.32675" lon="6.23037">
        <ele>1424</ele>
        <time>2014-10-12T09:48:30Z</time>
      </trkpt>
      <trkpt lat="44.32665" lon="6.23032">
        <ele>1446</ele>
        <time>2014-10-12T09:48:53Z</time>
      </trkpt>
      <trkpt lat="44.32657" lon="6.23025">
        <ele>1446</ele>
        <time>2014-10-12T09:49:01Z</time>
      </trkpt>
      <trkpt lat="44.32648" lon="6.23022">
        <ele>1447</ele>
        <time>2014-10-12T09:49:31Z</time>
      </trkpt>
      <trkpt lat="44.32639" lon="6.23025">
        <ele>1449</ele>
        <time>2014-10-12T09:49:52Z</time>
      </trkpt>
      <trkpt lat="44.32635" lon="6.23036">
        <ele>1450</ele>
        <time>2014-10-12T09:50:07Z</time>
      </trkpt>
      <trkpt lat="44.32629" lon="6.23046">
        <ele>1451</ele>
        <time>2014-10-12T09:50:27Z</time>
      </trkpt>
      <trkpt lat="44.32621" lon="6.23052">
        <ele>1453</ele>
        <time>2014-10-12T09:50:50Z</time>
      </trkpt>
      <trkpt lat="44.32616" lon="6.23063">
        <ele>1454</ele>
        <time>2014-10-12T09:51:09Z</time>
      </trkpt>
      <trkpt lat="44.32607" lon="6.23066">
        <ele>1457</ele>
        <time>2014-10-12T09:51:27Z</time>
      </trkpt>
      <trkpt lat="44.32598" lon="6.23071">
        <ele>1460</ele>
        <time>2014-10-12T09:51:44Z</time>
      </trkpt>
      <trkpt lat="44.32589" lon="6.23067">
        <ele>1461</ele>
        <time>2014-10-12T09:52:08Z</time>
      </trkpt>
      <trkpt lat="44.3258" lon="6.23065">
        <ele>1474</ele>
        <time>2014-10-12T09:52:21Z</time>
      </trkpt>
      <trkpt lat="44.32571" lon="6.23072">
        <ele>1474</ele>
        <time>2014-10-12T09:52:45Z</time>
      </trkpt>
      <trkpt lat="44.32562" lon="6.23069">
        <ele>1476</ele>
        <time>2014-10-12T09:53:03Z</time>
      </trkpt>
      <trkpt lat="44.32553" lon="6.23064">
        <ele>1478</ele>
        <time>2014-10-12T09:53:13Z</time>
      </trkpt>
      <trkpt lat="44.32545" lon="6.23072">
        <ele>1480</ele>
        <time>2014-10-12T09:53:40Z</time>
      </trkpt>
      <trkpt lat="44.32536" lon="6.23075">
        <ele>1482</ele>
        <time>2014-10-12T09:53:57Z</time>
      </trkpt>
      <trkpt lat="44.32532" lon="6.23087">
        <ele>1479</ele>
        <time>2014-10-12T09:54:25Z</time>
      </trkpt>
      <trkpt lat="44.32524" lon="6.23082">
        <ele>1486</ele>
        <time>2014-10-12T09:54:40Z</time>
      </trkpt>
      <trkpt lat="44.32514" lon="6.23078">
        <ele>1489</ele>
        <time>2014-10-12T09:54:59Z</time>
      </trkpt>
      <trkpt lat="44.32505" lon="6.2308">
        <ele>1494</ele>
        <time>2014-10-12T09:55:19Z</time>
      </trkpt>
      <trkpt lat="44.32499" lon="6.23089">
        <ele>1499</ele>
        <time>2014-10-12T09:55:36Z</time>
      </trkpt>
      <trkpt lat="44.3249" lon="6.23086">
        <ele>1499</ele>
        <time>2014-10-12T09:55:54Z</time>
      </trkpt>
      <trkpt lat="44.32481" lon="6.23087">
        <ele>1501</ele>
        <time>2014-10-12T09:56:14Z</time>
      </trkpt>
      <trkpt lat="44.32472" lon="6.23087">
        <ele>1503</ele>
        <time>2014-10-12T09:56:29Z</time>
      </trkpt>
      <trkpt lat="44.32463" lon="6.23087">
        <ele>1505</ele>
        <time>2014-10-12T09:58:09Z</time>
      </trkpt>
      <trkpt lat="44.32454" lon="6.23088">
        <ele>1507</ele>
        <time>2014-10-12T10:03:53Z</time>
      </trkpt>
      <trkpt lat="44.32444" lon="6.23087">
        <ele>1511</ele>
        <time>2014-10-12T10:04:06Z</time>
      </trkpt>
      <trkpt lat="44.32435" lon="6.23089">
        <ele>1514</ele>
        <time>2014-10-12T10:04:16Z</time>
      </trkpt>
      <trkpt lat="44.32426" lon="6.2309">
        <ele>1519</ele>
        <time>2014-10-12T10:04:26Z</time>
      </trkpt>
      <trkpt lat="44.32416" lon="6.23092">
        <ele>1529</ele>
        <time>2014-10-12T10:04:41Z</time>
      </trkpt>
      <trkpt lat="44.32407" lon="6.23096">
        <ele>1529</ele>
        <time>2014-10-12T10:04:56Z</time>
      </trkpt>
      <trkpt lat="44.32399" lon="6.231">
        <ele>1530</ele>
        <time>2014-10-12T10:05:10Z</time>
      </trkpt>
      <trkpt lat="44.3239" lon="6.23103">
        <ele>1531</ele>
        <time>2014-10-12T10:05:29Z</time>
      </trkpt>
      <trkpt lat="44.32381" lon="6.23106">
        <ele>1532</ele>
        <time>2014-10-12T10:05:51Z</time>
      </trkpt>
      <trkpt lat="44.32373" lon="6.23098">
        <ele>1533</ele>
        <time>2014-10-12T10:05:59Z</time>
      </trkpt>
      <trkpt lat="44.32363" lon="6.23096">
        <ele>1535</ele>
        <time>2014-10-12T10:06:09Z</time>
      </trkpt>
      <trkpt lat="44.32354" lon="6.23093">
        <ele>1537</ele>
        <time>2014-10-12T10:06:23Z</time>
      </trkpt>
      <trkpt lat="44.32346" lon="6.231">
        <ele>1538</ele>
        <time>2014-10-12T10:06:44Z</time>
      </trkpt>
      <trkpt lat="44.32336" lon="6.231">
        <ele>1539</ele>
        <time>2014-10-12T10:06:55Z</time>
      </trkpt>
      <trkpt lat="44.32327" lon="6.23103">
        <ele>1550</ele>
        <time>2014-10-12T10:07:16Z</time>
      </trkpt>
      <trkpt lat="44.32318" lon="6.23101">
        <ele>1550</ele>
        <time>2014-10-12T10:07:28Z</time>
      </trkpt>
      <trkpt lat="44.32308" lon="6.23099">
        <ele>1552</ele>
        <time>2014-10-12T10:07:40Z</time>
      </trkpt>
      <trkpt lat="44.32299" lon="6.23104">
        <ele>1553</ele>
        <time>2014-10-12T10:07:56Z</time>
      </trkpt>
      <trkpt lat="44.32291" lon="6.2311">
        <ele>1554</ele>
        <time>2014-10-12T10:08:07Z</time>
      </trkpt>
      <trkpt lat="44.32282" lon="6.2311">
        <ele>1556</ele>
        <time>2014-10-12T10:08:20Z</time>
      </trkpt>
      <trkpt lat="44.32273" lon="6.23115">
        <ele>1556</ele>
        <time>2014-10-12T10:08:38Z</time>
      </trkpt>
      <trkpt lat="44.32265" lon="6.23116">
        <ele>1557</ele>
        <time>2014-10-12T10:08:49Z</time>
      </trkpt>
      <trkpt lat="44.32255" lon="6.23114">
        <ele>1558</ele>
        <time>2014-10-12T10:09:00Z</time>
      </trkpt>
      <trkpt lat="44.32246" lon="6.23113">
        <ele>1570</ele>
        <time>2014-10-12T10:09:10Z</time>
      </trkpt>
      <trkpt lat="44.32236" lon="6.23113">
        <ele>1571</ele>
        <time>2014-10-12T10:09:22Z</time>
      </trkpt>
      <trkpt lat="44.32227" lon="6.23114">
        <ele>1572</ele>
        <time>2014-10-12T10:09:36Z</time>
      </trkpt>
      <trkpt lat="44.32218" lon="6.2312">
        <ele>1573</ele>
        <time>2014-10-12T10:09:49Z</time>
      </trkpt>
      <trkpt lat="44.32209" lon="6.23124">
        <ele>1574</ele>
        <time>2014-10-12T10:09:58Z</time>
      </trkpt>
      <trkpt lat="44.322" lon="6.23125">
        <ele>1575</ele>
        <time>2014-10-12T10:10:11Z</time>
      </trkpt>
      <trkpt lat="44.32191" lon="6.23126">
        <ele>1576</ele>
        <time>2014-10-12T10:10:25Z</time>
      </trkpt>
      <trkpt lat="44.32182" lon="6.23129">
        <ele>1578</ele>
        <time>2014-10-12T10:10:45Z</time>
      </trkpt>
      <trkpt lat="44.32172" lon="6.23131">
        <ele>1578</ele>
        <time>2014-10-12T10:10:59Z</time>
      </trkpt>
      <trkpt lat="44.32163" lon="6.23133">
        <ele>1589</ele>
        <time>2014-10-12T10:11:36Z</time>
      </trkpt>
      <trkpt lat="44.32156" lon="6.23141">
        <ele>1590</ele>
        <time>2014-10-12T10:11:50Z</time>
      </trkpt>
      <trkpt lat="44.32147" lon="6.23143">
        <ele>1591</ele>
        <time>2014-10-12T10:12:08Z</time>
      </trkpt>
      <trkpt lat="44.32138" lon="6.23142">
        <ele>1591</ele>
        <time>2014-10-12T10:12:30Z</time>
      </trkpt>
      <trkpt lat="44.32128" lon="6.23143">
        <ele>1592</ele>
        <time>2014-10-12T10:12:44Z</time>
      </trkpt>
      <trkpt lat="44.32119" lon="6.23146">
        <ele>1594</ele>
        <time>2014-10-12T10:13:00Z</time>
      </trkpt>
      <trkpt lat="44.32111" lon="6.23152">
        <ele>1596</ele>
        <time>2014-10-12T10:13:45Z</time>
      </trkpt>
      <trkpt lat="44.32114" lon="6.23149">
        <ele>1595</ele>
        <time>2014-10-12T10:15:02Z</time>
      </trkpt>
      <trkpt lat="44.32117" lon="6.23161">
        <ele>1595</ele>
        <time>2014-10-12T10:44:36Z</time>
      </trkpt>
      <trkpt lat="44.32112" lon="6.23171">
        <ele>1602</ele>
        <time>2014-10-12T10:45:52Z</time>
      </trkpt>
      <trkpt lat="44.32103" lon="6.23176">
        <ele>1603</ele>
        <time>2014-10-12T10:46:03Z</time>
      </trkpt>
      <trkpt lat="44.32095" lon="6.23186">
        <ele>1604</ele>
        <time>2014-10-12T10:46:11Z</time>
      </trkpt>
      <trkpt lat="44.32087" lon="6.23192">
        <ele>1604</ele>
        <time>2014-10-12T10:46:35Z</time>
      </trkpt>
      <trkpt lat="44.32079" lon="6.23198">
        <ele>1612</ele>
        <time>2014-10-12T10:46:44Z</time>
      </trkpt>
      <trkpt lat="44.3207" lon="6.23203">
        <ele>1612</ele>
        <time>2014-10-12T10:46:51Z</time>
      </trkpt>
      <trkpt lat="44.32063" lon="6.23212">
        <ele>1613</ele>
        <time>2014-10-12T10:47:10Z</time>
      </trkpt>
      <trkpt lat="44.32057" lon="6.23221">
        <ele>1613</ele>
        <time>2014-10-12T10:47:19Z</time>
      </trkpt>
      <trkpt lat="44.32049" lon="6.23228">
        <ele>1614</ele>
        <time>2014-10-12T10:47:41Z</time>
      </trkpt>
      <trkpt lat="44.3204" lon="6.23233">
        <ele>1615</ele>
        <time>2014-10-12T10:47:51Z</time>
      </trkpt>
      <trkpt lat="44.32033" lon="6.23242">
        <ele>1616</ele>
        <time>2014-10-12T10:48:01Z</time>
      </trkpt>
      <trkpt lat="44.32026" lon="6.23251">
        <ele>1621</ele>
        <time>2014-10-12T10:48:11Z</time>
      </trkpt>
      <trkpt lat="44.3202" lon="6.23261">
        <ele>1622</ele>
        <time>2014-10-12T10:48:20Z</time>
      </trkpt>
      <trkpt lat="44.32013" lon="6.23269">
        <ele>1622</ele>
        <time>2014-10-12T10:49:12Z</time>
      </trkpt>
      <trkpt lat="44.32007" lon="6.2328">
        <ele>1623</ele>
        <time>2014-10-12T10:49:20Z</time>
      </trkpt>
      <trkpt lat="44.32" lon="6.23288">
        <ele>1624</ele>
        <time>2014-10-12T10:49:32Z</time>
      </trkpt>
      <trkpt lat="44.31996" lon="6.233">
        <ele>1634</ele>
        <time>2014-10-12T10:49:48Z</time>
      </trkpt>
      <trkpt lat="44.31987" lon="6.23308">
        <ele>1635</ele>
        <time>2014-10-12T10:50:03Z</time>
      </trkpt>
      <trkpt lat="44.31981" lon="6.23317">
        <ele>1636</ele>
        <time>2014-10-12T10:50:14Z</time>
      </trkpt>
      <trkpt lat="44.31975" lon="6.23326">
        <ele>1637</ele>
        <time>2014-10-12T10:50:26Z</time>
      </trkpt>
      <trkpt lat="44.31969" lon="6.23337">
        <ele>1644</ele>
        <time>2014-10-12T10:50:40Z</time>
      </trkpt>
      <trkpt lat="44.31961" lon="6.23344">
        <ele>1645</ele>
        <time>2014-10-12T10:50:54Z</time>
      </trkpt>
      <trkpt lat="44.31953" lon="6.23351">
        <ele>1647</ele>
        <time>2014-10-12T10:51:07Z</time>
      </trkpt>
      <trkpt lat="44.31944" lon="6.23356">
        <ele>1648</ele>
        <time>2014-10-12T10:51:18Z</time>
      </trkpt>
      <trkpt lat="44.31935" lon="6.23356">
        <ele>1649</ele>
        <time>2014-10-12T10:51:34Z</time>
      </trkpt>
      <trkpt lat="44.31928" lon="6.23365">
        <ele>1650</ele>
        <time>2014-10-12T10:51:46Z</time>
      </trkpt>
      <trkpt lat="44.3192" lon="6.23371">
        <ele>1650</ele>
        <time>2014-10-12T10:52:01Z</time>
      </trkpt>
      <trkpt lat="44.31912" lon="6.23378">
        <ele>1662</ele>
        <time>2014-10-12T10:52:16Z</time>
      </trkpt>
      <trkpt lat="44.31905" lon="6.23387">
        <ele>1662</ele>
        <time>2014-10-12T10:52:28Z</time>
      </trkpt>
      <trkpt lat="44.31898" lon="6.23396">
        <ele>1663</ele>
        <time>2014-10-12T10:52:40Z</time>
      </trkpt>
      <trkpt lat="44.3189" lon="6.23402">
        <ele>1664</ele>
        <time>2014-10-12T10:52:54Z</time>
      </trkpt>
      <trkpt lat="44.31882" lon="6.23409">
        <ele>1665</ele>
        <time>2014-10-12T10:53:09Z</time>
      </trkpt>
      <trkpt lat="44.31877" lon="6.2342">
        <ele>1673</ele>
        <time>2014-10-12T10:53:20Z</time>
      </trkpt>
      <trkpt lat="44.31872" lon="6.2343">
        <ele>1674</ele>
        <time>2014-10-12T10:53:36Z</time>
      </trkpt>
      <trkpt lat="44.31862" lon="6.23434">
        <ele>1676</ele>
        <time>2014-10-12T10:54:37Z</time>
      </trkpt>
      <trkpt lat="44.31853" lon="6.23431">
        <ele>1677</ele>
        <time>2014-10-12T10:54:51Z</time>
      </trkpt>
      <trkpt lat="44.31845" lon="6.23425">
        <ele>1678</ele>
        <time>2014-10-12T10:55:03Z</time>
      </trkpt>
      <trkpt lat="44.31837" lon="6.23431">
        <ele>1679</ele>
        <time>2014-10-12T10:55:17Z</time>
      </trkpt>
      <trkpt lat="44.31827" lon="6.23434">
        <ele>1687</ele>
        <time>2014-10-12T10:55:26Z</time>
      </trkpt>
      <trkpt lat="44.31819" lon="6.23441">
        <ele>1689</ele>
        <time>2014-10-12T10:55:35Z</time>
      </trkpt>
      <trkpt lat="44.3181" lon="6.23445">
        <ele>1690</ele>
        <time>2014-10-12T10:55:43Z</time>
      </trkpt>
      <trkpt lat="44.31801" lon="6.23447">
        <ele>1691</ele>
        <time>2014-10-12T10:55:52Z</time>
      </trkpt>
      <trkpt lat="44.31791" lon="6.23449">
        <ele>1691</ele>
        <time>2014-10-12T10:56:02Z</time>
      </trkpt>
      <trkpt lat="44.31783" lon="6.23455">
        <ele>1692</ele>
        <time>2014-10-12T10:56:10Z</time>
      </trkpt>
      <trkpt lat="44.31776" lon="6.23465">
        <ele>1694</ele>
        <time>2014-10-12T10:56:19Z</time>
      </trkpt>
      <trkpt lat="44.31769" lon="6.23474">
        <ele>1695</ele>
        <time>2014-10-12T10:56:28Z</time>
      </trkpt>
      <trkpt lat="44.31763" lon="6.23484">
        <ele>1697</ele>
        <time>2014-10-12T10:56:37Z</time>
      </trkpt>
      <trkpt lat="44.31756" lon="6.23492">
        <ele>1700</ele>
        <time>2014-10-12T10:56:48Z</time>
      </trkpt>
      <trkpt lat="44.31747" lon="6.23488">
        <ele>1703</ele>
        <time>2014-10-12T10:57:23Z</time>
      </trkpt>
      <trkpt lat="44.31739" lon="6.23495">
        <ele>1703</ele>
        <time>2014-10-12T10:57:33Z</time>
      </trkpt>
      <trkpt lat="44.31729" lon="6.23497">
        <ele>1703</ele>
        <time>2014-10-12T10:57:42Z</time>
      </trkpt>
      <trkpt lat="44.3172" lon="6.23501">
        <ele>1707</ele>
        <time>2014-10-12T10:58:05Z</time>
      </trkpt>
      <trkpt lat="44.31714" lon="6.23489">
        <ele>1704</ele>
        <time>2014-10-12T10:59:36Z</time>
      </trkpt>
      <trkpt lat="44.31709" lon="6.23477">
        <ele>1704</ele>
        <time>2014-10-12T11:01:11Z</time>
      </trkpt>
      <trkpt lat="44.31702" lon="6.23467">
        <ele>1704</ele>
        <time>2014-10-12T11:01:18Z</time>
      </trkpt>
      <trkpt lat="44.31694" lon="6.23459">
        <ele>1704</ele>
        <time>2014-10-12T11:01:27Z</time>
      </trkpt>
      <trkpt lat="44.31687" lon="6.23451">
        <ele>1704</ele>
        <time>2014-10-12T11:01:36Z</time>
      </trkpt>
      <trkpt lat="44.3168" lon="6.23441">
        <ele>1705</ele>
        <time>2014-10-12T11:01:44Z</time>
      </trkpt>
      <trkpt lat="44.31675" lon="6.23431">
        <ele>1706</ele>
        <time>2014-10-12T11:02:01Z</time>
      </trkpt>
      <trkpt lat="44.31668" lon="6.23422">
        <ele>1709</ele>
        <time>2014-10-12T11:02:11Z</time>
      </trkpt>
      <trkpt lat="44.31662" lon="6.23412">
        <ele>1711</ele>
        <time>2014-10-12T11:02:24Z</time>
      </trkpt>
      <trkpt lat="44.31656" lon="6.23402">
        <ele>1712</ele>
        <time>2014-10-12T11:02:35Z</time>
      </trkpt>
      <trkpt lat="44.31651" lon="6.23391">
        <ele>1712</ele>
        <time>2014-10-12T11:02:46Z</time>
      </trkpt>
      <trkpt lat="44.31646" lon="6.23379">
        <ele>1712</ele>
        <time>2014-10-12T11:02:55Z</time>
      </trkpt>
      <trkpt lat="44.31638" lon="6.2337">
        <ele>1713</ele>
        <time>2014-10-12T11:03:04Z</time>
      </trkpt>
      <trkpt lat="44.31634" lon="6.23357">
        <ele>1713</ele>
        <time>2014-10-12T11:03:28Z</time>
      </trkpt>
      <trkpt lat="44.31635" lon="6.23344">
        <ele>1712</ele>
        <time>2014-10-12T11:03:50Z</time>
      </trkpt>
      <trkpt lat="44.31631" lon="6.23332">
        <ele>1712</ele>
        <time>2014-10-12T11:04:02Z</time>
      </trkpt>
      <trkpt lat="44.31633" lon="6.23319">
        <ele>1711</ele>
        <time>2014-10-12T11:04:15Z</time>
      </trkpt>
      <trkpt lat="44.31629" lon="6.23306">
        <ele>1712</ele>
        <time>2014-10-12T11:04:29Z</time>
      </trkpt>
      <trkpt lat="44.31627" lon="6.23293">
        <ele>1712</ele>
        <time>2014-10-12T11:04:39Z</time>
      </trkpt>
      <trkpt lat="44.31623" lon="6.23281">
        <ele>1712</ele>
        <time>2014-10-12T11:04:47Z</time>
      </trkpt>
      <trkpt lat="44.3162" lon="6.23269">
        <ele>1713</ele>
        <time>2014-10-12T11:04:58Z</time>
      </trkpt>
      <trkpt lat="44.31614" lon="6.23257">
        <ele>1715</ele>
        <time>2014-10-12T11:05:08Z</time>
      </trkpt>
      <trkpt lat="44.31612" lon="6.23244">
        <ele>1713</ele>
        <time>2014-10-12T11:05:19Z</time>
      </trkpt>
      <trkpt lat="44.31607" lon="6.23232">
        <ele>1714</ele>
        <time>2014-10-12T11:05:27Z</time>
      </trkpt>
      <trkpt lat="44.31609" lon="6.2322">
        <ele>1713</ele>
        <time>2014-10-12T11:05:34Z</time>
      </trkpt>
      <trkpt lat="44.31608" lon="6.23206">
        <ele>1713</ele>
        <time>2014-10-12T11:05:44Z</time>
      </trkpt>
      <trkpt lat="44.3161" lon="6.23192">
        <ele>1713</ele>
        <time>2014-10-12T11:05:53Z</time>
      </trkpt>
      <trkpt lat="44.3161" lon="6.23179">
        <ele>1714</ele>
        <time>2014-10-12T11:06:05Z</time>
      </trkpt>
      <trkpt lat="44.3161" lon="6.23165">
        <ele>1716</ele>
        <time>2014-10-12T11:06:12Z</time>
      </trkpt>
      <trkpt lat="44.31612" lon="6.23152">
        <ele>1715</ele>
        <time>2014-10-12T11:06:24Z</time>
      </trkpt>
      <trkpt lat="44.31618" lon="6.23142">
        <ele>1713</ele>
        <time>2014-10-12T11:06:37Z</time>
      </trkpt>
      <trkpt lat="44.31624" lon="6.23133">
        <ele>1711</ele>
        <time>2014-10-12T11:06:51Z</time>
      </trkpt>
      <trkpt lat="44.31629" lon="6.23121">
        <ele>1710</ele>
        <time>2014-10-12T11:07:01Z</time>
      </trkpt>
      <trkpt lat="44.31637" lon="6.23115">
        <ele>1709</ele>
        <time>2014-10-12T11:07:18Z</time>
      </trkpt>
      <trkpt lat="44.31642" lon="6.23102">
        <ele>1707</ele>
        <time>2014-10-12T11:07:24Z</time>
      </trkpt>
      <trkpt lat="44.31645" lon="6.2309">
        <ele>1705</ele>
        <time>2014-10-12T11:07:39Z</time>
      </trkpt>
      <trkpt lat="44.31653" lon="6.23084">
        <ele>1702</ele>
        <time>2014-10-12T11:07:49Z</time>
      </trkpt>
      <trkpt lat="44.31659" lon="6.23074">
        <ele>1701</ele>
        <time>2014-10-12T11:08:08Z</time>
      </trkpt>
      <trkpt lat="44.31656" lon="6.23062">
        <ele>1704</ele>
        <time>2014-10-12T11:08:19Z</time>
      </trkpt>
      <trkpt lat="44.31649" lon="6.23052">
        <ele>1706</ele>
        <time>2014-10-12T11:08:33Z</time>
      </trkpt>
      <trkpt lat="44.3164" lon="6.23052">
        <ele>1708</ele>
        <time>2014-10-12T11:08:43Z</time>
      </trkpt>
      <trkpt lat="44.31631" lon="6.23051">
        <ele>1710</ele>
        <time>2014-10-12T11:09:07Z</time>
      </trkpt>
      <trkpt lat="44.31622" lon="6.23053">
        <ele>1713</ele>
        <time>2014-10-12T11:09:31Z</time>
      </trkpt>
      <trkpt lat="44.31612" lon="6.23053">
        <ele>1715</ele>
        <time>2014-10-12T11:09:48Z</time>
      </trkpt>
      <trkpt lat="44.31603" lon="6.23048">
        <ele>1716</ele>
        <time>2014-10-12T11:10:15Z</time>
      </trkpt>
      <trkpt lat="44.31597" lon="6.23036">
        <ele>1716</ele>
        <time>2014-10-12T11:10:27Z</time>
      </trkpt>
      <trkpt lat="44.31588" lon="6.23033">
        <ele>1717</ele>
        <time>2014-10-12T11:10:35Z</time>
      </trkpt>
      <trkpt lat="44.31579" lon="6.23029">
        <ele>1736</ele>
        <time>2014-10-12T11:10:47Z</time>
      </trkpt>
      <trkpt lat="44.3157" lon="6.23027">
        <ele>1737</ele>
        <time>2014-10-12T11:10:58Z</time>
      </trkpt>
      <trkpt lat="44.31561" lon="6.23026">
        <ele>1738</ele>
        <time>2014-10-12T11:11:11Z</time>
      </trkpt>
      <trkpt lat="44.3155" lon="6.23025">
        <ele>1740</ele>
        <time>2014-10-12T11:11:20Z</time>
      </trkpt>
      <trkpt lat="44.31541" lon="6.23023">
        <ele>1742</ele>
        <time>2014-10-12T11:11:31Z</time>
      </trkpt>
      <trkpt lat="44.31532" lon="6.23018">
        <ele>1744</ele>
        <time>2014-10-12T11:11:42Z</time>
      </trkpt>
      <trkpt lat="44.31524" lon="6.23024">
        <ele>1746</ele>
        <time>2014-10-12T11:12:04Z</time>
      </trkpt>
      <trkpt lat="44.31515" lon="6.23023">
        <ele>1747</ele>
        <time>2014-10-12T11:12:17Z</time>
      </trkpt>
      <trkpt lat="44.31507" lon="6.23016">
        <ele>1749</ele>
        <time>2014-10-12T11:12:38Z</time>
      </trkpt>
      <trkpt lat="44.31498" lon="6.2301">
        <ele>1757</ele>
        <time>2014-10-12T11:12:44Z</time>
      </trkpt>
      <trkpt lat="44.31492" lon="6.23">
        <ele>1756</ele>
        <time>2014-10-12T11:12:52Z</time>
      </trkpt>
      <trkpt lat="44.31487" lon="6.2299">
        <ele>1758</ele>
        <time>2014-10-12T11:13:02Z</time>
      </trkpt>
      <trkpt lat="44.31478" lon="6.22991">
        <ele>1758</ele>
        <time>2014-10-12T11:13:15Z</time>
      </trkpt>
      <trkpt lat="44.31468" lon="6.22987">
        <ele>1759</ele>
        <time>2014-10-12T11:13:25Z</time>
      </trkpt>
      <trkpt lat="44.31459" lon="6.22982">
        <ele>1760</ele>
        <time>2014-10-12T11:13:36Z</time>
      </trkpt>
      <trkpt lat="44.31457" lon="6.22968">
        <ele>1760</ele>
        <time>2014-10-12T11:13:47Z</time>
      </trkpt>
      <trkpt lat="44.31453" lon="6.22956">
        <ele>1761</ele>
        <time>2014-10-12T11:13:57Z</time>
      </trkpt>
      <trkpt lat="44.3145" lon="6.22943">
        <ele>1761</ele>
        <time>2014-10-12T11:14:09Z</time>
      </trkpt>
      <trkpt lat="44.31448" lon="6.2293">
        <ele>1762</ele>
        <time>2014-10-12T11:14:20Z</time>
      </trkpt>
      <trkpt lat="44.31446" lon="6.22917">
        <ele>1762</ele>
        <time>2014-10-12T11:14:31Z</time>
      </trkpt>
      <trkpt lat="44.31446" lon="6.22904">
        <ele>1763</ele>
        <time>2014-10-12T11:14:41Z</time>
      </trkpt>
      <trkpt lat="44.31441" lon="6.22893">
        <ele>1763</ele>
        <time>2014-10-12T11:14:53Z</time>
      </trkpt>
      <trkpt lat="44.31435" lon="6.22882">
        <ele>1763</ele>
        <time>2014-10-12T11:18:49Z</time>
      </trkpt>
      <trkpt lat="44.3143" lon="6.22871">
        <ele>1764</ele>
        <time>2014-10-12T11:18:59Z</time>
      </trkpt>
      <trkpt lat="44.31425" lon="6.22859">
        <ele>1765</ele>
        <time>2014-10-12T11:19:09Z</time>
      </trkpt>
      <trkpt lat="44.31418" lon="6.2285">
        <ele>1767</ele>
        <time>2014-10-12T11:19:18Z</time>
      </trkpt>
      <trkpt lat="44.3141" lon="6.22842">
        <ele>1772</ele>
        <time>2014-10-12T11:19:28Z</time>
      </trkpt>
      <trkpt lat="44.31401" lon="6.22838">
        <ele>1772</ele>
        <time>2014-10-12T11:19:38Z</time>
      </trkpt>
      <trkpt lat="44.31397" lon="6.22827">
        <ele>1776</ele>
        <time>2014-10-12T11:19:47Z</time>
      </trkpt>
      <trkpt lat="44.31395" lon="6.22814">
        <ele>1777</ele>
        <time>2014-10-12T11:19:57Z</time>
      </trkpt>
      <trkpt lat="44.31394" lon="6.22801">
        <ele>1778</ele>
        <time>2014-10-12T11:20:06Z</time>
      </trkpt>
      <trkpt lat="44.31392" lon="6.22788">
        <ele>1779</ele>
        <time>2014-10-12T11:20:21Z</time>
      </trkpt>
      <trkpt lat="44.31389" lon="6.22777">
        <ele>1779</ele>
        <time>2014-10-12T11:20:32Z</time>
      </trkpt>
      <trkpt lat="44.31388" lon="6.22764">
        <ele>1780</ele>
        <time>2014-10-12T11:20:43Z</time>
      </trkpt>
      <trkpt lat="44.31391" lon="6.22749">
        <ele>1783</ele>
        <time>2014-10-12T11:20:56Z</time>
      </trkpt>
      <trkpt lat="44.31397" lon="6.2274">
        <ele>1784</ele>
        <time>2014-10-12T11:21:16Z</time>
      </trkpt>
      <trkpt lat="44.31399" lon="6.22727">
        <ele>1784</ele>
        <time>2014-10-12T11:21:24Z</time>
      </trkpt>
      <trkpt lat="44.31403" lon="6.22714">
        <ele>1784</ele>
        <time>2014-10-12T11:21:33Z</time>
      </trkpt>
      <trkpt lat="44.31405" lon="6.227">
        <ele>1785</ele>
        <time>2014-10-12T11:21:41Z</time>
      </trkpt>
      <trkpt lat="44.31405" lon="6.22687">
        <ele>1786</ele>
        <time>2014-10-12T11:21:50Z</time>
      </trkpt>
      <trkpt lat="44.31411" lon="6.22676">
        <ele>1789</ele>
        <time>2014-10-12T11:22:04Z</time>
      </trkpt>
      <trkpt lat="44.31417" lon="6.22666">
        <ele>1792</ele>
        <time>2014-10-12T11:22:18Z</time>
      </trkpt>
      <trkpt lat="44.31422" lon="6.22655">
        <ele>1793</ele>
        <time>2014-10-12T11:22:29Z</time>
      </trkpt>
      <trkpt lat="44.31426" lon="6.22642">
        <ele>1793</ele>
        <time>2014-10-12T11:22:39Z</time>
      </trkpt>
      <trkpt lat="44.31428" lon="6.22629">
        <ele>1794</ele>
        <time>2014-10-12T11:22:50Z</time>
      </trkpt>
      <trkpt lat="44.31429" lon="6.22616">
        <ele>1794</ele>
        <time>2014-10-12T11:23:00Z</time>
      </trkpt>
      <trkpt lat="44.31432" lon="6.22604">
        <ele>1795</ele>
        <time>2014-10-12T11:23:12Z</time>
      </trkpt>
      <trkpt lat="44.31434" lon="6.22591">
        <ele>1795</ele>
        <time>2014-10-12T11:23:24Z</time>
      </trkpt>
      <trkpt lat="44.31439" lon="6.22581">
        <ele>1803</ele>
        <time>2014-10-12T11:23:36Z</time>
      </trkpt>
      <trkpt lat="44.31443" lon="6.22568">
        <ele>1804</ele>
        <time>2014-10-12T11:23:52Z</time>
      </trkpt>
      <trkpt lat="44.31447" lon="6.22556">
        <ele>1806</ele>
        <time>2014-10-12T11:24:06Z</time>
      </trkpt>
      <trkpt lat="44.3145" lon="6.22544">
        <ele>1808</ele>
        <time>2014-10-12T11:24:18Z</time>
      </trkpt>
      <trkpt lat="44.31451" lon="6.22531">
        <ele>1809</ele>
        <time>2014-10-12T11:24:28Z</time>
      </trkpt>
      <trkpt lat="44.31455" lon="6.22519">
        <ele>1810</ele>
        <time>2014-10-12T11:24:43Z</time>
      </trkpt>
      <trkpt lat="44.31458" lon="6.22506">
        <ele>1811</ele>
        <time>2014-10-12T11:24:56Z</time>
      </trkpt>
      <trkpt lat="44.3146" lon="6.22493">
        <ele>1827</ele>
        <time>2014-10-12T11:25:27Z</time>
      </trkpt>
      <trkpt lat="44.31463" lon="6.22481">
        <ele>1828</ele>
        <time>2014-10-12T11:25:37Z</time>
      </trkpt>
      <trkpt lat="44.31468" lon="6.2247">
        <ele>1830</ele>
        <time>2014-10-12T11:25:50Z</time>
      </trkpt>
      <trkpt lat="44.31471" lon="6.22458">
        <ele>1831</ele>
        <time>2014-10-12T11:26:18Z</time>
      </trkpt>
      <trkpt lat="44.31477" lon="6.22448">
        <ele>1833</ele>
        <time>2014-10-12T11:26:35Z</time>
      </trkpt>
      <trkpt lat="44.31481" lon="6.22436">
        <ele>1835</ele>
        <time>2014-10-12T11:26:51Z</time>
      </trkpt>
      <trkpt lat="44.31479" lon="6.22424">
        <ele>1836</ele>
        <time>2014-10-12T11:27:08Z</time>
      </trkpt>
      <trkpt lat="44.31481" lon="6.22411">
        <ele>1851</ele>
        <time>2014-10-12T11:27:37Z</time>
      </trkpt>
      <trkpt lat="44.31478" lon="6.22399">
        <ele>1854</ele>
        <time>2014-10-12T11:27:55Z</time>
      </trkpt>
      <trkpt lat="44.31482" lon="6.22387">
        <ele>1856</ele>
        <time>2014-10-12T11:28:09Z</time>
      </trkpt>
      <trkpt lat="44.31484" lon="6.22375">
        <ele>1859</ele>
        <time>2014-10-12T11:28:27Z</time>
      </trkpt>
      <trkpt lat="44.31492" lon="6.22367">
        <ele>1860</ele>
        <time>2014-10-12T11:28:49Z</time>
      </trkpt>
      <trkpt lat="44.31494" lon="6.22354">
        <ele>1863</ele>
        <time>2014-10-12T11:29:05Z</time>
      </trkpt>
      <trkpt lat="44.31487" lon="6.22347">
        <ele>1864</ele>
        <time>2014-10-12T11:29:24Z</time>
      </trkpt>
      <trkpt lat="44.31478" lon="6.22343">
        <ele>1864</ele>
        <time>2014-10-12T11:29:50Z</time>
      </trkpt>
      <trkpt lat="44.31469" lon="6.22343">
        <ele>1864</ele>
        <time>2014-10-12T11:30:08Z</time>
      </trkpt>
      <trkpt lat="44.31461" lon="6.22336">
        <ele>1866</ele>
        <time>2014-10-12T11:30:38Z</time>
      </trkpt>
      <trkpt lat="44.31452" lon="6.22332">
        <ele>1885</ele>
        <time>2014-10-12T11:30:51Z</time>
      </trkpt>
      <trkpt lat="44.31444" lon="6.22327">
        <ele>1886</ele>
        <time>2014-10-12T11:31:08Z</time>
      </trkpt>
      <trkpt lat="44.31434" lon="6.22324">
        <ele>1886</ele>
        <time>2014-10-12T11:31:31Z</time>
      </trkpt>
      <trkpt lat="44.31425" lon="6.22322">
        <ele>1886</ele>
        <time>2014-10-12T11:31:53Z</time>
      </trkpt>
      <trkpt lat="44.31417" lon="6.22315">
        <ele>1887</ele>
        <time>2014-10-12T11:32:07Z</time>
      </trkpt>
      <trkpt lat="44.31408" lon="6.22313">
        <ele>1896</ele>
        <time>2014-10-12T11:32:23Z</time>
      </trkpt>
      <trkpt lat="44.31401" lon="6.22303">
        <ele>1900</ele>
        <time>2014-10-12T11:32:39Z</time>
      </trkpt>
      <trkpt lat="44.31392" lon="6.223">
        <ele>1901</ele>
        <time>2014-10-12T11:32:52Z</time>
      </trkpt>
      <trkpt lat="44.31383" lon="6.22299">
        <ele>1902</ele>
        <time>2014-10-12T11:33:11Z</time>
      </trkpt>
      <trkpt lat="44.31376" lon="6.22291">
        <ele>1904</ele>
        <time>2014-10-12T11:33:42Z</time>
      </trkpt>
      <trkpt lat="44.31367" lon="6.22288">
        <ele>1905</ele>
        <time>2014-10-12T11:34:04Z</time>
      </trkpt>
      <trkpt lat="44.31361" lon="6.22279">
        <ele>1908</ele>
        <time>2014-10-12T11:34:18Z</time>
      </trkpt>
      <trkpt lat="44.31353" lon="6.22273">
        <ele>1910</ele>
        <time>2014-10-12T11:34:47Z</time>
      </trkpt>
      <trkpt lat="44.31346" lon="6.22263">
        <ele>1914</ele>
        <time>2014-10-12T11:35:07Z</time>
      </trkpt>
      <trkpt lat="44.31338" lon="6.22255">
        <ele>1919</ele>
        <time>2014-10-12T11:35:30Z</time>
      </trkpt>
      <trkpt lat="44.31331" lon="6.22246">
        <ele>1927</ele>
        <time>2014-10-12T11:35:57Z</time>
      </trkpt>
      <trkpt lat="44.31323" lon="6.22242">
        <ele>1933</ele>
        <time>2014-10-12T11:36:29Z</time>
      </trkpt>
      <trkpt lat="44.31317" lon="6.22232">
        <ele>1937</ele>
        <time>2014-10-12T11:36:48Z</time>
      </trkpt>
      <trkpt lat="44.31308" lon="6.22228">
        <ele>1940</ele>
        <time>2014-10-12T11:37:06Z</time>
      </trkpt>
      <trkpt lat="44.31299" lon="6.22231">
        <ele>1941</ele>
        <time>2014-10-12T11:37:18Z</time>
      </trkpt>
      <trkpt lat="44.31289" lon="6.22233">
        <ele>1941</ele>
        <time>2014-10-12T11:37:28Z</time>
      </trkpt>
      <trkpt lat="44.31281" lon="6.22225">
        <ele>1943</ele>
        <time>2014-10-12T11:37:41Z</time>
      </trkpt>
      <trkpt lat="44.31275" lon="6.22216">
        <ele>1945</ele>
        <time>2014-10-12T11:37:56Z</time>
      </trkpt>
      <trkpt lat="44.31267" lon="6.22211">
        <ele>1946</ele>
        <time>2014-10-12T11:38:11Z</time>
      </trkpt>
      <trkpt lat="44.31258" lon="6.22208">
        <ele>1947</ele>
        <time>2014-10-12T11:38:26Z</time>
      </trkpt>
      <trkpt lat="44.31249" lon="6.22206">
        <ele>1955</ele>
        <time>2014-10-12T11:38:40Z</time>
      </trkpt>
      <trkpt lat="44.3124" lon="6.22202">
        <ele>1956</ele>
        <time>2014-10-12T11:38:58Z</time>
      </trkpt>
      <trkpt lat="44.31231" lon="6.22201">
        <ele>1956</ele>
        <time>2014-10-12T11:39:11Z</time>
      </trkpt>
      <trkpt lat="44.31221" lon="6.222">
        <ele>1956</ele>
        <time>2014-10-12T11:39:24Z</time>
      </trkpt>
      <trkpt lat="44.31212" lon="6.22199">
        <ele>1957</ele>
        <time>2014-10-12T11:39:37Z</time>
      </trkpt>
      <trkpt lat="44.31203" lon="6.22199">
        <ele>1958</ele>
        <time>2014-10-12T11:39:50Z</time>
      </trkpt>
      <trkpt lat="44.31194" lon="6.22195">
        <ele>1959</ele>
        <time>2014-10-12T11:40:04Z</time>
      </trkpt>
      <trkpt lat="44.31185" lon="6.22196">
        <ele>1960</ele>
        <time>2014-10-12T11:40:16Z</time>
      </trkpt>
      <trkpt lat="44.31175" lon="6.22197">
        <ele>1960</ele>
        <time>2014-10-12T11:40:27Z</time>
      </trkpt>
      <trkpt lat="44.31166" lon="6.22195">
        <ele>1966</ele>
        <time>2014-10-12T11:40:41Z</time>
      </trkpt>
      <trkpt lat="44.31157" lon="6.22194">
        <ele>1966</ele>
        <time>2014-10-12T11:40:58Z</time>
      </trkpt>
      <trkpt lat="44.31148" lon="6.22189">
        <ele>1967</ele>
        <time>2014-10-12T11:41:17Z</time>
      </trkpt>
      <trkpt lat="44.3114" lon="6.22185">
        <ele>1967</ele>
        <time>2014-10-12T11:41:31Z</time>
      </trkpt>
      <trkpt lat="44.31131" lon="6.22182">
        <ele>1967</ele>
        <time>2014-10-12T11:41:46Z</time>
      </trkpt>
      <trkpt lat="44.31122" lon="6.22177">
        <ele>1968</ele>
        <time>2014-10-12T11:41:58Z</time>
      </trkpt>
      <trkpt lat="44.31113" lon="6.22174">
        <ele>1970</ele>
        <time>2014-10-12T11:42:10Z</time>
      </trkpt>
      <trkpt lat="44.31106" lon="6.22167">
        <ele>1972</ele>
        <time>2014-10-12T11:42:23Z</time>
      </trkpt>
      <trkpt lat="44.31098" lon="6.22159">
        <ele>1986</ele>
        <time>2014-10-12T11:42:43Z</time>
      </trkpt>
      <trkpt lat="44.31091" lon="6.22151">
        <ele>1987</ele>
        <time>2014-10-12T11:42:57Z</time>
      </trkpt>
      <trkpt lat="44.31083" lon="6.22144">
        <ele>1987</ele>
        <time>2014-10-12T11:43:14Z</time>
      </trkpt>
      <trkpt lat="44.31076" lon="6.22135">
        <ele>1988</ele>
        <time>2014-10-12T11:43:27Z</time>
      </trkpt>
      <trkpt lat="44.31068" lon="6.2213">
        <ele>1989</ele>
        <time>2014-10-12T11:43:39Z</time>
      </trkpt>
      <trkpt lat="44.31061" lon="6.22121">
        <ele>1991</ele>
        <time>2014-10-12T11:43:52Z</time>
      </trkpt>
      <trkpt lat="44.31053" lon="6.22113">
        <ele>1992</ele>
        <time>2014-10-12T11:44:04Z</time>
      </trkpt>
      <trkpt lat="44.31045" lon="6.22106">
        <ele>1992</ele>
        <time>2014-10-12T11:44:16Z</time>
      </trkpt>
      <trkpt lat="44.31037" lon="6.221">
        <ele>1992</ele>
        <time>2014-10-12T11:44:26Z</time>
      </trkpt>
      <trkpt lat="44.3103" lon="6.22091">
        <ele>1993</ele>
        <time>2014-10-12T11:44:37Z</time>
      </trkpt>
      <trkpt lat="44.31023" lon="6.22083">
        <ele>2006</ele>
        <time>2014-10-12T11:44:50Z</time>
      </trkpt>
      <trkpt lat="44.31016" lon="6.22075">
        <ele>2005</ele>
        <time>2014-10-12T11:45:04Z</time>
      </trkpt>
      <trkpt lat="44.31008" lon="6.22068">
        <ele>2005</ele>
        <time>2014-10-12T11:45:21Z</time>
      </trkpt>
      <trkpt lat="44.31" lon="6.22061">
        <ele>2007</ele>
        <time>2014-10-12T11:45:34Z</time>
      </trkpt>
      <trkpt lat="44.30994" lon="6.2205">
        <ele>2001</ele>
        <time>2014-10-12T11:45:48Z</time>
      </trkpt>
      <trkpt lat="44.30989" lon="6.22039">
        <ele>2003</ele>
        <time>2014-10-12T11:45:59Z</time>
      </trkpt>
      <trkpt lat="44.30982" lon="6.2203">
        <ele>2004</ele>
        <time>2014-10-12T11:46:32Z</time>
      </trkpt>
      <trkpt lat="44.30974" lon="6.22022">
        <ele>2004</ele>
        <time>2014-10-12T11:46:44Z</time>
      </trkpt>
      <trkpt lat="44.30969" lon="6.22012">
        <ele>2005</ele>
        <time>2014-10-12T11:46:56Z</time>
      </trkpt>
      <trkpt lat="44.30963" lon="6.22001">
        <ele>2005</ele>
        <time>2014-10-12T11:47:18Z</time>
      </trkpt>
      <trkpt lat="44.30959" lon="6.21988">
        <ele>2013</ele>
        <time>2014-10-12T11:47:26Z</time>
      </trkpt>
      <trkpt lat="44.30954" lon="6.21977">
        <ele>2012</ele>
        <time>2014-10-12T11:47:37Z</time>
      </trkpt>
      <trkpt lat="44.30949" lon="6.21966">
        <ele>2012</ele>
        <time>2014-10-12T11:47:48Z</time>
      </trkpt>
      <trkpt lat="44.30945" lon="6.21955">
        <ele>2013</ele>
        <time>2014-10-12T11:47:58Z</time>
      </trkpt>
      <trkpt lat="44.3094" lon="6.21943">
        <ele>2013</ele>
        <time>2014-10-12T11:48:09Z</time>
      </trkpt>
      <trkpt lat="44.30934" lon="6.21933">
        <ele>2014</ele>
        <time>2014-10-12T11:48:21Z</time>
      </trkpt>
      <trkpt lat="44.30927" lon="6.21925">
        <ele>2015</ele>
        <time>2014-10-12T11:48:41Z</time>
      </trkpt>
      <trkpt lat="44.30924" lon="6.21912">
        <ele>2015</ele>
        <time>2014-10-12T11:48:50Z</time>
      </trkpt>
      <trkpt lat="44.3092" lon="6.21899">
        <ele>2012</ele>
        <time>2014-10-12T11:48:56Z</time>
      </trkpt>
      <trkpt lat="44.30916" lon="6.21888">
        <ele>2010</ele>
        <time>2014-10-12T11:49:02Z</time>
      </trkpt>
      <trkpt lat="44.3091" lon="6.21877">
        <ele>2009</ele>
        <time>2014-10-12T11:50:43Z</time>
      </trkpt>
      <trkpt lat="44.30904" lon="6.21866">
        <ele>2009</ele>
        <time>2014-10-12T11:50:51Z</time>
      </trkpt>
      <trkpt lat="44.30897" lon="6.21857">
        <ele>2008</ele>
        <time>2014-10-12T11:51:00Z</time>
      </trkpt>
      <trkpt lat="44.30892" lon="6.21845">
        <ele>2009</ele>
        <time>2014-10-12T11:51:08Z</time>
      </trkpt>
      <trkpt lat="44.30887" lon="6.21833">
        <ele>2012</ele>
        <time>2014-10-12T11:51:15Z</time>
      </trkpt>
      <trkpt lat="44.30885" lon="6.21819">
        <ele>2012</ele>
        <time>2014-10-12T11:51:22Z</time>
      </trkpt>
      <trkpt lat="44.30883" lon="6.21806">
        <ele>2012</ele>
        <time>2014-10-12T11:51:31Z</time>
      </trkpt>
      <trkpt lat="44.30875" lon="6.21799">
        <ele>2012</ele>
        <time>2014-10-12T11:51:45Z</time>
      </trkpt>
      <trkpt lat="44.30873" lon="6.21786">
        <ele>2012</ele>
        <time>2014-10-12T11:55:09Z</time>
      </trkpt>
      <trkpt lat="44.30865" lon="6.21778">
        <ele>2013</ele>
        <time>2014-10-12T11:55:23Z</time>
      </trkpt>
      <trkpt lat="44.30859" lon="6.21768">
        <ele>2014</ele>
        <time>2014-10-12T11:57:16Z</time>
      </trkpt>
      <trkpt lat="44.30854" lon="6.21756">
        <ele>2014</ele>
        <time>2014-10-12T11:57:31Z</time>
      </trkpt>
      <trkpt lat="44.30849" lon="6.21745">
        <ele>2012</ele>
        <time>2014-10-12T11:57:39Z</time>
      </trkpt>
      <trkpt lat="44.30846" lon="6.21732">
        <ele>2011</ele>
        <time>2014-10-12T11:57:46Z</time>
      </trkpt>
      <trkpt lat="44.30842" lon="6.21719">
        <ele>2009</ele>
        <time>2014-10-12T11:57:52Z</time>
      </trkpt>
      <trkpt lat="44.30838" lon="6.21707">
        <ele>2009</ele>
        <time>2014-10-12T11:58:19Z</time>
      </trkpt>
      <trkpt lat="44.30831" lon="6.21699">
        <ele>2008</ele>
        <time>2014-10-12T11:58:28Z</time>
      </trkpt>
      <trkpt lat="44.30825" lon="6.21689">
        <ele>2008</ele>
        <time>2014-10-12T11:58:38Z</time>
      </trkpt>
      <trkpt lat="44.30818" lon="6.21679">
        <ele>2009</ele>
        <time>2014-10-12T11:58:45Z</time>
      </trkpt>
      <trkpt lat="44.30811" lon="6.2167">
        <ele>2008</ele>
        <time>2014-10-12T11:58:51Z</time>
      </trkpt>
      <trkpt lat="44.30806" lon="6.21658">
        <ele>2008</ele>
        <time>2014-10-12T11:58:57Z</time>
      </trkpt>
      <trkpt lat="44.30799" lon="6.21648">
        <ele>2007</ele>
        <time>2014-10-12T11:59:14Z</time>
      </trkpt>
      <trkpt lat="44.30796" lon="6.21635">
        <ele>2006</ele>
        <time>2014-10-12T11:59:24Z</time>
      </trkpt>
      <trkpt lat="44.30795" lon="6.21622">
        <ele>2006</ele>
        <time>2014-10-12T11:59:33Z</time>
      </trkpt>
      <trkpt lat="44.30789" lon="6.21612">
        <ele>2006</ele>
        <time>2014-10-12T11:59:41Z</time>
      </trkpt>
      <trkpt lat="44.30781" lon="6.21603">
        <ele>2007</ele>
        <time>2014-10-12T11:59:48Z</time>
      </trkpt>
      <trkpt lat="44.30776" lon="6.21593">
        <ele>2008</ele>
        <time>2014-10-12T11:59:55Z</time>
      </trkpt>
      <trkpt lat="44.30772" lon="6.21581">
        <ele>2008</ele>
        <time>2014-10-12T12:00:02Z</time>
      </trkpt>
      <trkpt lat="44.30767" lon="6.2157">
        <ele>2008</ele>
        <time>2014-10-12T12:00:09Z</time>
      </trkpt>
      <trkpt lat="44.30762" lon="6.21558">
        <ele>2008</ele>
        <time>2014-10-12T12:00:17Z</time>
      </trkpt>
      <trkpt lat="44.30757" lon="6.21547">
        <ele>2008</ele>
        <time>2014-10-12T12:00:23Z</time>
      </trkpt>
      <trkpt lat="44.30752" lon="6.21535">
        <ele>2009</ele>
        <time>2014-10-12T12:00:37Z</time>
      </trkpt>
      <trkpt lat="44.3075" lon="6.21523">
        <ele>2014</ele>
        <time>2014-10-12T12:00:44Z</time>
      </trkpt>
      <trkpt lat="44.30747" lon="6.21511">
        <ele>2018</ele>
        <time>2014-10-12T12:00:52Z</time>
      </trkpt>
      <trkpt lat="44.30745" lon="6.21498">
        <ele>2023</ele>
        <time>2014-10-12T12:01:02Z</time>
      </trkpt>
      <trkpt lat="44.30743" lon="6.21485">
        <ele>2022</ele>
        <time>2014-10-12T12:01:22Z</time>
      </trkpt>
      <trkpt lat="44.30739" lon="6.21472">
        <ele>2022</ele>
        <time>2014-10-12T12:01:31Z</time>
      </trkpt>
      <trkpt lat="44.30735" lon="6.21461">
        <ele>2022</ele>
        <time>2014-10-12T12:01:46Z</time>
      </trkpt>
      <trkpt lat="44.30729" lon="6.21451">
        <ele>2022</ele>
        <time>2014-10-12T12:02:15Z</time>
      </trkpt>
      <trkpt lat="44.30724" lon="6.2144">
        <ele>2023</ele>
        <time>2014-10-12T12:02:31Z</time>
      </trkpt>
      <trkpt lat="44.30723" lon="6.21427">
        <ele>2023</ele>
        <time>2014-10-12T12:02:56Z</time>
      </trkpt>
      <trkpt lat="44.30717" lon="6.21417">
        <ele>2030</ele>
        <time>2014-10-12T12:03:17Z</time>
      </trkpt>
      <trkpt lat="44.30712" lon="6.21405">
        <ele>2031</ele>
        <time>2014-10-12T12:03:32Z</time>
      </trkpt>
      <trkpt lat="44.30708" lon="6.21394">
        <ele>2031</ele>
        <time>2014-10-12T12:03:48Z</time>
      </trkpt>
      <trkpt lat="44.30703" lon="6.21382">
        <ele>2032</ele>
        <time>2014-10-12T12:04:04Z</time>
      </trkpt>
      <trkpt lat="44.30697" lon="6.21372">
        <ele>2033</ele>
        <time>2014-10-12T12:04:57Z</time>
      </trkpt>
      <trkpt lat="44.3069" lon="6.21363">
        <ele>2035</ele>
        <time>2014-10-12T12:05:13Z</time>
      </trkpt>
      <trkpt lat="44.30687" lon="6.21359">
        <ele>2036</ele>
        <time>2014-10-12T12:09:11Z</time>
      </trkpt>
      <trkpt lat="44.30682" lon="6.21348">
        <ele>2039</ele>
        <time>2014-10-12T12:17:37Z</time>
      </trkpt>
      <trkpt lat="44.30677" lon="6.21337">
        <ele>2042</ele>
        <time>2014-10-12T12:17:48Z</time>
      </trkpt>
      <trkpt lat="44.3067" lon="6.21328">
        <ele>2043</ele>
        <time>2014-10-12T12:18:06Z</time>
      </trkpt>
      <trkpt lat="44.30669" lon="6.21314">
        <ele>2037</ele>
        <time>2014-10-12T12:18:21Z</time>
      </trkpt>
      <trkpt lat="44.30669" lon="6.21301">
        <ele>2033</ele>
        <time>2014-10-12T12:18:34Z</time>
      </trkpt>
      <trkpt lat="44.30677" lon="6.21307">
        <ele>2033</ele>
        <time>2014-10-12T12:18:49Z</time>
      </trkpt>
      <trkpt lat="44.30683" lon="6.21297">
        <ele>2030</ele>
        <time>2014-10-12T12:19:04Z</time>
      </trkpt>
      <trkpt lat="44.30682" lon="6.21284">
        <ele>2028</ele>
        <time>2014-10-12T12:19:17Z</time>
      </trkpt>
      <trkpt lat="44.3068" lon="6.21271">
        <ele>2027</ele>
        <time>2014-10-12T12:19:30Z</time>
      </trkpt>
      <trkpt lat="44.3068" lon="6.21258">
        <ele>2026</ele>
        <time>2014-10-12T12:19:39Z</time>
      </trkpt>
      <trkpt lat="44.30684" lon="6.21247">
        <ele>2016</ele>
        <time>2014-10-12T12:19:54Z</time>
      </trkpt>
      <trkpt lat="44.30688" lon="6.21236">
        <ele>2014</ele>
        <time>2014-10-12T12:20:06Z</time>
      </trkpt>
      <trkpt lat="44.30693" lon="6.21225">
        <ele>2011</ele>
        <time>2014-10-12T12:20:15Z</time>
      </trkpt>
      <trkpt lat="44.30696" lon="6.21213">
        <ele>2009</ele>
        <time>2014-10-12T12:20:23Z</time>
      </trkpt>
      <trkpt lat="44.30697" lon="6.21199">
        <ele>2008</ele>
        <time>2014-10-12T12:20:29Z</time>
      </trkpt>
      <trkpt lat="44.30697" lon="6.21186">
        <ele>2006</ele>
        <time>2014-10-12T12:20:35Z</time>
      </trkpt>
      <trkpt lat="44.30697" lon="6.21172">
        <ele>2005</ele>
        <time>2014-10-12T12:20:42Z</time>
      </trkpt>
      <trkpt lat="44.30701" lon="6.2116">
        <ele>1993</ele>
        <time>2014-10-12T12:20:50Z</time>
      </trkpt>
      <trkpt lat="44.30709" lon="6.21156">
        <ele>1992</ele>
        <time>2014-10-12T12:20:59Z</time>
      </trkpt>
      <trkpt lat="44.30718" lon="6.21151">
        <ele>1992</ele>
        <time>2014-10-12T12:21:09Z</time>
      </trkpt>
      <trkpt lat="44.30724" lon="6.21141">
        <ele>1991</ele>
        <time>2014-10-12T12:21:17Z</time>
      </trkpt>
      <trkpt lat="44.30729" lon="6.2113">
        <ele>1990</ele>
        <time>2014-10-12T12:21:26Z</time>
      </trkpt>
      <trkpt lat="44.30732" lon="6.21117">
        <ele>1988</ele>
        <time>2014-10-12T12:21:33Z</time>
      </trkpt>
      <trkpt lat="44.30733" lon="6.21103">
        <ele>1987</ele>
        <time>2014-10-12T12:21:42Z</time>
      </trkpt>
      <trkpt lat="44.30734" lon="6.21089">
        <ele>1986</ele>
        <time>2014-10-12T12:21:49Z</time>
      </trkpt>
      <trkpt lat="44.30735" lon="6.21076">
        <ele>1976</ele>
        <time>2014-10-12T12:21:57Z</time>
      </trkpt>
      <trkpt lat="44.30737" lon="6.21063">
        <ele>1974</ele>
        <time>2014-10-12T12:22:06Z</time>
      </trkpt>
      <trkpt lat="44.30743" lon="6.21052">
        <ele>1972</ele>
        <time>2014-10-12T12:22:18Z</time>
      </trkpt>
      <trkpt lat="44.30745" lon="6.21039">
        <ele>1970</ele>
        <time>2014-10-12T12:22:26Z</time>
      </trkpt>
      <trkpt lat="44.30746" lon="6.21027">
        <ele>1968</ele>
        <time>2014-10-12T12:22:33Z</time>
      </trkpt>
      <trkpt lat="44.3075" lon="6.21014">
        <ele>1967</ele>
        <time>2014-10-12T12:22:41Z</time>
      </trkpt>
      <trkpt lat="44.30751" lon="6.21001">
        <ele>1966</ele>
        <time>2014-10-12T12:22:50Z</time>
      </trkpt>
      <trkpt lat="44.30753" lon="6.20988">
        <ele>1960</ele>
        <time>2014-10-12T12:22:59Z</time>
      </trkpt>
      <trkpt lat="44.30754" lon="6.20975">
        <ele>1955</ele>
        <time>2014-10-12T12:23:07Z</time>
      </trkpt>
      <trkpt lat="44.30754" lon="6.20961">
        <ele>1953</ele>
        <time>2014-10-12T12:23:13Z</time>
      </trkpt>
      <trkpt lat="44.30754" lon="6.20949">
        <ele>1951</ele>
        <time>2014-10-12T12:23:18Z</time>
      </trkpt>
      <trkpt lat="44.30754" lon="6.20936">
        <ele>1950</ele>
        <time>2014-10-12T12:23:23Z</time>
      </trkpt>
      <trkpt lat="44.30763" lon="6.20939">
        <ele>1950</ele>
        <time>2014-10-12T12:23:29Z</time>
      </trkpt>
      <trkpt lat="44.30772" lon="6.20935">
        <ele>1949</ele>
        <time>2014-10-12T12:23:37Z</time>
      </trkpt>
      <trkpt lat="44.30779" lon="6.20927">
        <ele>1949</ele>
        <time>2014-10-12T12:23:45Z</time>
      </trkpt>
      <trkpt lat="44.30784" lon="6.20915">
        <ele>1941</ele>
        <time>2014-10-12T12:23:53Z</time>
      </trkpt>
      <trkpt lat="44.30789" lon="6.20904">
        <ele>1940</ele>
        <time>2014-10-12T12:24:00Z</time>
      </trkpt>
      <trkpt lat="44.30794" lon="6.20891">
        <ele>1939</ele>
        <time>2014-10-12T12:24:08Z</time>
      </trkpt>
      <trkpt lat="44.30795" lon="6.20877">
        <ele>1938</ele>
        <time>2014-10-12T12:24:16Z</time>
      </trkpt>
      <trkpt lat="44.30803" lon="6.20889">
        <ele>1939</ele>
        <time>2014-10-12T12:24:18Z</time>
      </trkpt>
      <trkpt lat="44.30807" lon="6.20877">
        <ele>1938</ele>
        <time>2014-10-12T12:24:33Z</time>
      </trkpt>
      <trkpt lat="44.30811" lon="6.20865">
        <ele>1937</ele>
        <time>2014-10-12T12:24:40Z</time>
      </trkpt>
      <trkpt lat="44.30808" lon="6.20854">
        <ele>1936</ele>
        <time>2014-10-12T12:24:46Z</time>
      </trkpt>
      <trkpt lat="44.30807" lon="6.20839">
        <ele>1936</ele>
        <time>2014-10-12T12:24:51Z</time>
      </trkpt>
      <trkpt lat="44.30812" lon="6.20828">
        <ele>1928</ele>
        <time>2014-10-12T12:24:58Z</time>
      </trkpt>
      <trkpt lat="44.30817" lon="6.20817">
        <ele>1928</ele>
        <time>2014-10-12T12:25:07Z</time>
      </trkpt>
      <trkpt lat="44.30819" lon="6.20804">
        <ele>1926</ele>
        <time>2014-10-12T12:25:16Z</time>
      </trkpt>
      <trkpt lat="44.3082" lon="6.2079">
        <ele>1925</ele>
        <time>2014-10-12T12:25:26Z</time>
      </trkpt>
      <trkpt lat="44.3082" lon="6.20778">
        <ele>1924</ele>
        <time>2014-10-12T12:25:33Z</time>
      </trkpt>
      <trkpt lat="44.30825" lon="6.20766">
        <ele>1923</ele>
        <time>2014-10-12T12:25:42Z</time>
      </trkpt>
      <trkpt lat="44.30827" lon="6.20754">
        <ele>1924</ele>
        <time>2014-10-12T12:25:48Z</time>
      </trkpt>
      <trkpt lat="44.3083" lon="6.20742">
        <ele>1919</ele>
        <time>2014-10-12T12:26:07Z</time>
      </trkpt>
      <trkpt lat="44.30833" lon="6.2073">
        <ele>1915</ele>
        <time>2014-10-12T12:26:15Z</time>
      </trkpt>
      <trkpt lat="44.30836" lon="6.20718">
        <ele>1914</ele>
        <time>2014-10-12T12:26:22Z</time>
      </trkpt>
      <trkpt lat="44.3084" lon="6.20705">
        <ele>1913</ele>
        <time>2014-10-12T12:26:30Z</time>
      </trkpt>
      <trkpt lat="44.30845" lon="6.20694">
        <ele>1912</ele>
        <time>2014-10-12T12:26:36Z</time>
      </trkpt>
      <trkpt lat="44.30848" lon="6.2068">
        <ele>1912</ele>
        <time>2014-10-12T12:26:43Z</time>
      </trkpt>
      <trkpt lat="44.30851" lon="6.20668">
        <ele>1912</ele>
        <time>2014-10-12T12:26:50Z</time>
      </trkpt>
      <trkpt lat="44.30853" lon="6.20655">
        <ele>1907</ele>
        <time>2014-10-12T12:26:57Z</time>
      </trkpt>
      <trkpt lat="44.30853" lon="6.20641">
        <ele>1906</ele>
        <time>2014-10-12T12:27:03Z</time>
      </trkpt>
      <trkpt lat="44.30856" lon="6.20629">
        <ele>1904</ele>
        <time>2014-10-12T12:27:10Z</time>
      </trkpt>
      <trkpt lat="44.3086" lon="6.20616">
        <ele>1903</ele>
        <time>2014-10-12T12:27:18Z</time>
      </trkpt>
      <trkpt lat="44.30861" lon="6.20602">
        <ele>1903</ele>
        <time>2014-10-12T12:27:25Z</time>
      </trkpt>
      <trkpt lat="44.30867" lon="6.20591">
        <ele>1902</ele>
        <time>2014-10-12T12:27:33Z</time>
      </trkpt>
      <trkpt lat="44.30872" lon="6.2058">
        <ele>1896</ele>
        <time>2014-10-12T12:27:41Z</time>
      </trkpt>
      <trkpt lat="44.30876" lon="6.20567">
        <ele>1896</ele>
        <time>2014-10-12T12:27:48Z</time>
      </trkpt>
      <trkpt lat="44.30878" lon="6.20553">
        <ele>1895</ele>
        <time>2014-10-12T12:27:56Z</time>
      </trkpt>
      <trkpt lat="44.30885" lon="6.20546">
        <ele>1894</ele>
        <time>2014-10-12T12:28:05Z</time>
      </trkpt>
      <trkpt lat="44.30891" lon="6.20534">
        <ele>1894</ele>
        <time>2014-10-12T12:28:15Z</time>
      </trkpt>
      <trkpt lat="44.30893" lon="6.2052">
        <ele>1893</ele>
        <time>2014-10-12T12:28:22Z</time>
      </trkpt>
      <trkpt lat="44.30897" lon="6.20507">
        <ele>1892</ele>
        <time>2014-10-12T12:28:29Z</time>
      </trkpt>
      <trkpt lat="44.309" lon="6.20495">
        <ele>1887</ele>
        <time>2014-10-12T12:28:36Z</time>
      </trkpt>
      <trkpt lat="44.30906" lon="6.20485">
        <ele>1886</ele>
        <time>2014-10-12T12:28:46Z</time>
      </trkpt>
      <trkpt lat="44.3091" lon="6.20472">
        <ele>1885</ele>
        <time>2014-10-12T12:28:56Z</time>
      </trkpt>
      <trkpt lat="44.30915" lon="6.20461">
        <ele>1884</ele>
        <time>2014-10-12T12:29:04Z</time>
      </trkpt>
      <trkpt lat="44.30917" lon="6.20447">
        <ele>1877</ele>
        <time>2014-10-12T12:29:12Z</time>
      </trkpt>
      <trkpt lat="44.30921" lon="6.20435">
        <ele>1878</ele>
        <time>2014-10-12T12:29:22Z</time>
      </trkpt>
      <trkpt lat="44.30922" lon="6.20422">
        <ele>1879</ele>
        <time>2014-10-12T12:33:53Z</time>
      </trkpt>
      <trkpt lat="44.30925" lon="6.20411">
        <ele>1877</ele>
        <time>2014-10-12T12:34:03Z</time>
      </trkpt>
      <trkpt lat="44.30925" lon="6.20397">
        <ele>1874</ele>
        <time>2014-10-12T12:34:12Z</time>
      </trkpt>
      <trkpt lat="44.30927" lon="6.20385">
        <ele>1872</ele>
        <time>2014-10-12T12:34:19Z</time>
      </trkpt>
      <trkpt lat="44.30934" lon="6.20375">
        <ele>1871</ele>
        <time>2014-10-12T12:34:27Z</time>
      </trkpt>
      <trkpt lat="44.30941" lon="6.20366">
        <ele>1870</ele>
        <time>2014-10-12T12:34:33Z</time>
      </trkpt>
      <trkpt lat="44.30944" lon="6.20354">
        <ele>1869</ele>
        <time>2014-10-12T12:34:40Z</time>
      </trkpt>
      <trkpt lat="44.30949" lon="6.20343">
        <ele>1869</ele>
        <time>2014-10-12T12:34:48Z</time>
      </trkpt>
      <trkpt lat="44.30949" lon="6.20329">
        <ele>1864</ele>
        <time>2014-10-12T12:34:55Z</time>
      </trkpt>
      <trkpt lat="44.30954" lon="6.20317">
        <ele>1863</ele>
        <time>2014-10-12T12:35:03Z</time>
      </trkpt>
      <trkpt lat="44.30956" lon="6.20305">
        <ele>1862</ele>
        <time>2014-10-12T12:35:10Z</time>
      </trkpt>
      <trkpt lat="44.30958" lon="6.20291">
        <ele>1862</ele>
        <time>2014-10-12T12:35:18Z</time>
      </trkpt>
      <trkpt lat="44.3096" lon="6.20277">
        <ele>1861</ele>
        <time>2014-10-12T12:35:26Z</time>
      </trkpt>
      <trkpt lat="44.30968" lon="6.20272">
        <ele>1860</ele>
        <time>2014-10-12T12:35:34Z</time>
      </trkpt>
      <trkpt lat="44.30971" lon="6.20259">
        <ele>1860</ele>
        <time>2014-10-12T12:35:42Z</time>
      </trkpt>
      <trkpt lat="44.3097" lon="6.20245">
        <ele>1856</ele>
        <time>2014-10-12T12:35:48Z</time>
      </trkpt>
      <trkpt lat="44.30973" lon="6.20233">
        <ele>1855</ele>
        <time>2014-10-12T12:35:55Z</time>
      </trkpt>
      <trkpt lat="44.30976" lon="6.20219">
        <ele>1855</ele>
        <time>2014-10-12T12:36:02Z</time>
      </trkpt>
      <trkpt lat="44.30976" lon="6.20205">
        <ele>1855</ele>
        <time>2014-10-12T12:36:08Z</time>
      </trkpt>
      <trkpt lat="44.30978" lon="6.20192">
        <ele>1855</ele>
        <time>2014-10-12T12:36:14Z</time>
      </trkpt>
      <trkpt lat="44.30979" lon="6.20178">
        <ele>1854</ele>
        <time>2014-10-12T12:36:20Z</time>
      </trkpt>
      <trkpt lat="44.30978" lon="6.20164">
        <ele>1850</ele>
        <time>2014-10-12T12:36:26Z</time>
      </trkpt>
      <trkpt lat="44.30979" lon="6.20151">
        <ele>1850</ele>
        <time>2014-10-12T12:36:32Z</time>
      </trkpt>
      <trkpt lat="44.3098" lon="6.20137">
        <ele>1849</ele>
        <time>2014-10-12T12:36:38Z</time>
      </trkpt>
      <trkpt lat="44.3098" lon="6.20124">
        <ele>1848</ele>
        <time>2014-10-12T12:36:44Z</time>
      </trkpt>
      <trkpt lat="44.30989" lon="6.20121">
        <ele>1848</ele>
        <time>2014-10-12T12:36:52Z</time>
      </trkpt>
      <trkpt lat="44.30999" lon="6.20122">
        <ele>1848</ele>
        <time>2014-10-12T12:37:00Z</time>
      </trkpt>
      <trkpt lat="44.31003" lon="6.20111">
        <ele>1837</ele>
        <time>2014-10-12T12:37:08Z</time>
      </trkpt>
      <trkpt lat="44.31006" lon="6.20097">
        <ele>1840</ele>
        <time>2014-10-12T12:37:16Z</time>
      </trkpt>
      <trkpt lat="44.31007" lon="6.20083">
        <ele>1843</ele>
        <time>2014-10-12T12:37:23Z</time>
      </trkpt>
      <trkpt lat="44.3101" lon="6.2007">
        <ele>1838</ele>
        <time>2014-10-12T12:37:30Z</time>
      </trkpt>
      <trkpt lat="44.31013" lon="6.20057">
        <ele>1835</ele>
        <time>2014-10-12T12:37:38Z</time>
      </trkpt>
      <trkpt lat="44.31014" lon="6.20043">
        <ele>1833</ele>
        <time>2014-10-12T12:37:45Z</time>
      </trkpt>
      <trkpt lat="44.31017" lon="6.2003">
        <ele>1832</ele>
        <time>2014-10-12T12:37:52Z</time>
      </trkpt>
      <trkpt lat="44.31021" lon="6.20018">
        <ele>1832</ele>
        <time>2014-10-12T12:38:02Z</time>
      </trkpt>
      <trkpt lat="44.31021" lon="6.20005">
        <ele>1832</ele>
        <time>2014-10-12T12:38:09Z</time>
      </trkpt>
      <trkpt lat="44.31022" lon="6.19992">
        <ele>1832</ele>
        <time>2014-10-12T12:38:15Z</time>
      </trkpt>
      <trkpt lat="44.31023" lon="6.19979">
        <ele>1831</ele>
        <time>2014-10-12T12:38:22Z</time>
      </trkpt>
      <trkpt lat="44.31027" lon="6.19966">
        <ele>1830</ele>
        <time>2014-10-12T12:38:30Z</time>
      </trkpt>
      <trkpt lat="44.3103" lon="6.19953">
        <ele>1830</ele>
        <time>2014-10-12T12:38:38Z</time>
      </trkpt>
      <trkpt lat="44.31032" lon="6.1994">
        <ele>1830</ele>
        <time>2014-10-12T12:38:45Z</time>
      </trkpt>
      <trkpt lat="44.31032" lon="6.19925">
        <ele>1830</ele>
        <time>2014-10-12T12:38:52Z</time>
      </trkpt>
      <trkpt lat="44.31034" lon="6.19912">
        <ele>1829</ele>
        <time>2014-10-12T12:38:58Z</time>
      </trkpt>
      <trkpt lat="44.31038" lon="6.19901">
        <ele>1829</ele>
        <time>2014-10-12T12:39:05Z</time>
      </trkpt>
      <trkpt lat="44.3104" lon="6.19888">
        <ele>1829</ele>
        <time>2014-10-12T12:39:12Z</time>
      </trkpt>
      <trkpt lat="44.31043" lon="6.19875">
        <ele>1828</ele>
        <time>2014-10-12T12:39:20Z</time>
      </trkpt>
      <trkpt lat="44.3105" lon="6.19865">
        <ele>1828</ele>
        <time>2014-10-12T12:39:30Z</time>
      </trkpt>
      <trkpt lat="44.31053" lon="6.19852">
        <ele>1828</ele>
        <time>2014-10-12T12:39:38Z</time>
      </trkpt>
      <trkpt lat="44.31057" lon="6.19839">
        <ele>1828</ele>
        <time>2014-10-12T12:39:46Z</time>
      </trkpt>
      <trkpt lat="44.31057" lon="6.19825">
        <ele>1827</ele>
        <time>2014-10-12T12:39:52Z</time>
      </trkpt>
      <trkpt lat="44.31061" lon="6.19812">
        <ele>1827</ele>
        <time>2014-10-12T12:40:00Z</time>
      </trkpt>
      <trkpt lat="44.31066" lon="6.198">
        <ele>1827</ele>
        <time>2014-10-12T12:40:07Z</time>
      </trkpt>
      <trkpt lat="44.3107" lon="6.19788">
        <ele>1828</ele>
        <time>2014-10-12T12:40:14Z</time>
      </trkpt>
      <trkpt lat="44.31073" lon="6.19775">
        <ele>1828</ele>
        <time>2014-10-12T12:40:22Z</time>
      </trkpt>
      <trkpt lat="44.31078" lon="6.19763">
        <ele>1829</ele>
        <time>2014-10-12T12:40:30Z</time>
      </trkpt>
      <trkpt lat="44.31082" lon="6.19749">
        <ele>1831</ele>
        <time>2014-10-12T12:40:38Z</time>
      </trkpt>
      <trkpt lat="44.31083" lon="6.19737">
        <ele>1828</ele>
        <time>2014-10-12T12:40:46Z</time>
      </trkpt>
      <trkpt lat="44.31088" lon="6.19726">
        <ele>1829</ele>
        <time>2014-10-12T12:40:56Z</time>
      </trkpt>
      <trkpt lat="44.31092" lon="6.19714">
        <ele>1829</ele>
        <time>2014-10-12T12:41:05Z</time>
      </trkpt>
      <trkpt lat="44.31096" lon="6.19702">
        <ele>1829</ele>
        <time>2014-10-12T12:41:14Z</time>
      </trkpt>
      <trkpt lat="44.311" lon="6.1969">
        <ele>1829</ele>
        <time>2014-10-12T12:41:45Z</time>
      </trkpt>
      <trkpt lat="44.31104" lon="6.19678">
        <ele>1829</ele>
        <time>2014-10-12T12:41:54Z</time>
      </trkpt>
      <trkpt lat="44.31107" lon="6.19665">
        <ele>1831</ele>
        <time>2014-10-12T12:42:03Z</time>
      </trkpt>
      <trkpt lat="44.31112" lon="6.19653">
        <ele>1832</ele>
        <time>2014-10-12T12:42:13Z</time>
      </trkpt>
      <trkpt lat="44.31117" lon="6.19642">
        <ele>1832</ele>
        <time>2014-10-12T12:42:22Z</time>
      </trkpt>
      <trkpt lat="44.31122" lon="6.19631">
        <ele>1832</ele>
        <time>2014-10-12T12:42:32Z</time>
      </trkpt>
      <trkpt lat="44.31125" lon="6.19618">
        <ele>1833</ele>
        <time>2014-10-12T12:42:43Z</time>
      </trkpt>
      <trkpt lat="44.31129" lon="6.19606">
        <ele>1834</ele>
        <time>2014-10-12T12:42:52Z</time>
      </trkpt>
      <trkpt lat="44.31133" lon="6.19594">
        <ele>1834</ele>
        <time>2014-10-12T12:43:00Z</time>
      </trkpt>
      <trkpt lat="44.31139" lon="6.19583">
        <ele>1836</ele>
        <time>2014-10-12T12:43:13Z</time>
      </trkpt>
      <trkpt lat="44.31145" lon="6.19572">
        <ele>1836</ele>
        <time>2014-10-12T12:43:21Z</time>
      </trkpt>
      <trkpt lat="44.31151" lon="6.19561">
        <ele>1836</ele>
        <time>2014-10-12T12:43:29Z</time>
      </trkpt>
      <trkpt lat="44.31156" lon="6.1955">
        <ele>1836</ele>
        <time>2014-10-12T12:43:37Z</time>
      </trkpt>
      <trkpt lat="44.31159" lon="6.19537">
        <ele>1836</ele>
        <time>2014-10-12T12:43:45Z</time>
      </trkpt>
      <trkpt lat="44.31166" lon="6.19528">
        <ele>1836</ele>
        <time>2014-10-12T12:43:54Z</time>
      </trkpt>
      <trkpt lat="44.31169" lon="6.19516">
        <ele>1836</ele>
        <time>2014-10-12T12:44:04Z</time>
      </trkpt>
      <trkpt lat="44.3117" lon="6.19503">
        <ele>1838</ele>
        <time>2014-10-12T12:44:13Z</time>
      </trkpt>
      <trkpt lat="44.31166" lon="6.1949">
        <ele>1836</ele>
        <time>2014-10-12T12:44:20Z</time>
      </trkpt>
      <trkpt lat="44.31165" lon="6.19477">
        <ele>1833</ele>
        <time>2014-10-12T12:44:30Z</time>
      </trkpt>
      <trkpt lat="44.31167" lon="6.19465">
        <ele>1832</ele>
        <time>2014-10-12T12:44:40Z</time>
      </trkpt>
      <trkpt lat="44.31171" lon="6.19452">
        <ele>1833</ele>
        <time>2014-10-12T12:44:58Z</time>
      </trkpt>
      <trkpt lat="44.31172" lon="6.19439">
        <ele>1833</ele>
        <time>2014-10-12T12:45:06Z</time>
      </trkpt>
      <trkpt lat="44.31171" lon="6.19426">
        <ele>1834</ele>
        <time>2014-10-12T12:45:14Z</time>
      </trkpt>
      <trkpt lat="44.31173" lon="6.19413">
        <ele>1834</ele>
        <time>2014-10-12T12:45:22Z</time>
      </trkpt>
      <trkpt lat="44.31177" lon="6.19401">
        <ele>1833</ele>
        <time>2014-10-12T12:45:30Z</time>
      </trkpt>
      <trkpt lat="44.31179" lon="6.19389">
        <ele>1832</ele>
        <time>2014-10-12T12:45:37Z</time>
      </trkpt>
      <trkpt lat="44.31181" lon="6.19376">
        <ele>1832</ele>
        <time>2014-10-12T12:45:45Z</time>
      </trkpt>
      <trkpt lat="44.31183" lon="6.19363">
        <ele>1832</ele>
        <time>2014-10-12T12:45:54Z</time>
      </trkpt>
      <trkpt lat="44.31185" lon="6.1935">
        <ele>1833</ele>
        <time>2014-10-12T12:46:03Z</time>
      </trkpt>
      <trkpt lat="44.31189" lon="6.19337">
        <ele>1833</ele>
        <time>2014-10-12T12:46:13Z</time>
      </trkpt>
      <trkpt lat="44.31191" lon="6.19324">
        <ele>1833</ele>
        <time>2014-10-12T12:46:21Z</time>
      </trkpt>
      <trkpt lat="44.31193" lon="6.19311">
        <ele>1833</ele>
        <time>2014-10-12T12:46:28Z</time>
      </trkpt>
      <trkpt lat="44.31195" lon="6.19299">
        <ele>1833</ele>
        <time>2014-10-12T12:46:36Z</time>
      </trkpt>
      <trkpt lat="44.31198" lon="6.19286">
        <ele>1832</ele>
        <time>2014-10-12T12:46:45Z</time>
      </trkpt>
      <trkpt lat="44.312" lon="6.19272">
        <ele>1832</ele>
        <time>2014-10-12T12:46:54Z</time>
      </trkpt>
      <trkpt lat="44.31202" lon="6.19259">
        <ele>1832</ele>
        <time>2014-10-12T12:47:05Z</time>
      </trkpt>
      <trkpt lat="44.31206" lon="6.19246">
        <ele>1833</ele>
        <time>2014-10-12T12:47:13Z</time>
      </trkpt>
      <trkpt lat="44.31209" lon="6.19233">
        <ele>1833</ele>
        <time>2014-10-12T12:47:21Z</time>
      </trkpt>
      <trkpt lat="44.31207" lon="6.19219">
        <ele>1833</ele>
        <time>2014-10-12T12:47:29Z</time>
      </trkpt>
      <trkpt lat="44.3121" lon="6.19207">
        <ele>1834</ele>
        <time>2014-10-12T12:47:37Z</time>
      </trkpt>
      <trkpt lat="44.31212" lon="6.19195">
        <ele>1834</ele>
        <time>2014-10-12T12:47:44Z</time>
      </trkpt>
      <trkpt lat="44.31215" lon="6.19183">
        <ele>1834</ele>
        <time>2014-10-12T12:47:51Z</time>
      </trkpt>
      <trkpt lat="44.31222" lon="6.19174">
        <ele>1835</ele>
        <time>2014-10-12T12:47:58Z</time>
      </trkpt>
      <trkpt lat="44.31226" lon="6.19162">
        <ele>1836</ele>
        <time>2014-10-12T12:48:08Z</time>
      </trkpt>
      <trkpt lat="44.31225" lon="6.19148">
        <ele>1836</ele>
        <time>2014-10-12T12:48:17Z</time>
      </trkpt>
      <trkpt lat="44.31227" lon="6.19136">
        <ele>1836</ele>
        <time>2014-10-12T12:48:26Z</time>
      </trkpt>
      <trkpt lat="44.31228" lon="6.19123">
        <ele>1837</ele>
        <time>2014-10-12T12:48:34Z</time>
      </trkpt>
      <trkpt lat="44.31227" lon="6.19109">
        <ele>1837</ele>
        <time>2014-10-12T12:48:41Z</time>
      </trkpt>
      <trkpt lat="44.31231" lon="6.19097">
        <ele>1839</ele>
        <time>2014-10-12T12:48:50Z</time>
      </trkpt>
      <trkpt lat="44.31237" lon="6.19086">
        <ele>1840</ele>
        <time>2014-10-12T12:49:09Z</time>
      </trkpt>
      <trkpt lat="44.31237" lon="6.19073">
        <ele>1839</ele>
        <time>2014-10-12T12:49:17Z</time>
      </trkpt>
      <trkpt lat="44.31238" lon="6.19058">
        <ele>1838</ele>
        <time>2014-10-12T12:49:24Z</time>
      </trkpt>
      <trkpt lat="44.3124" lon="6.19046">
        <ele>1837</ele>
        <time>2014-10-12T12:49:32Z</time>
      </trkpt>
      <trkpt lat="44.31243" lon="6.19034">
        <ele>1837</ele>
        <time>2014-10-12T12:49:40Z</time>
      </trkpt>
      <trkpt lat="44.31247" lon="6.19021">
        <ele>1837</ele>
        <time>2014-10-12T12:49:47Z</time>
      </trkpt>
      <trkpt lat="44.31249" lon="6.19009">
        <ele>1839</ele>
        <time>2014-10-12T12:49:54Z</time>
      </trkpt>
      <trkpt lat="44.31251" lon="6.18996">
        <ele>1840</ele>
        <time>2014-10-12T12:50:00Z</time>
      </trkpt>
      <trkpt lat="44.31253" lon="6.18983">
        <ele>1838</ele>
        <time>2014-10-12T12:50:07Z</time>
      </trkpt>
      <trkpt lat="44.31257" lon="6.1897">
        <ele>1837</ele>
        <time>2014-10-12T12:50:15Z</time>
      </trkpt>
      <trkpt lat="44.31265" lon="6.18963">
        <ele>1836</ele>
        <time>2014-10-12T12:52:47Z</time>
      </trkpt>
      <trkpt lat="44.31272" lon="6.18954">
        <ele>1835</ele>
        <time>2014-10-12T12:52:57Z</time>
      </trkpt>
      <trkpt lat="44.31278" lon="6.18944">
        <ele>1835</ele>
        <time>2014-10-12T12:53:05Z</time>
      </trkpt>
      <trkpt lat="44.31286" lon="6.18936">
        <ele>1835</ele>
        <time>2014-10-12T12:53:13Z</time>
      </trkpt>
      <trkpt lat="44.31294" lon="6.1893">
        <ele>1835</ele>
        <time>2014-10-12T12:53:21Z</time>
      </trkpt>
      <trkpt lat="44.31303" lon="6.18923">
        <ele>1835</ele>
        <time>2014-10-12T12:53:30Z</time>
      </trkpt>
      <trkpt lat="44.31309" lon="6.18912">
        <ele>1834</ele>
        <time>2014-10-12T12:53:39Z</time>
      </trkpt>
      <trkpt lat="44.31317" lon="6.18906">
        <ele>1834</ele>
        <time>2014-10-12T12:53:48Z</time>
      </trkpt>
      <trkpt lat="44.31323" lon="6.18896">
        <ele>1834</ele>
        <time>2014-10-12T12:53:57Z</time>
      </trkpt>
      <trkpt lat="44.31329" lon="6.18886">
        <ele>1833</ele>
        <time>2014-10-12T12:54:05Z</time>
      </trkpt>
      <trkpt lat="44.31337" lon="6.18879">
        <ele>1827</ele>
        <time>2014-10-12T12:54:14Z</time>
      </trkpt>
      <trkpt lat="44.31346" lon="6.18872">
        <ele>1826</ele>
        <time>2014-10-12T12:54:23Z</time>
      </trkpt>
      <trkpt lat="44.31353" lon="6.18863">
        <ele>1826</ele>
        <time>2014-10-12T12:54:36Z</time>
      </trkpt>
      <trkpt lat="44.31354" lon="6.18849">
        <ele>1826</ele>
        <time>2014-10-12T12:54:45Z</time>
      </trkpt>
      <trkpt lat="44.31358" lon="6.18837">
        <ele>1827</ele>
        <time>2014-10-12T12:54:53Z</time>
      </trkpt>
      <trkpt lat="44.31364" lon="6.18825">
        <ele>1825</ele>
        <time>2014-10-12T12:55:01Z</time>
      </trkpt>
      <trkpt lat="44.31372" lon="6.18818">
        <ele>1824</ele>
        <time>2014-10-12T12:55:09Z</time>
      </trkpt>
      <trkpt lat="44.31377" lon="6.18807">
        <ele>1823</ele>
        <time>2014-10-12T12:55:30Z</time>
      </trkpt>
      <trkpt lat="44.31382" lon="6.18796">
        <ele>1823</ele>
        <time>2014-10-12T12:55:47Z</time>
      </trkpt>
      <trkpt lat="44.31388" lon="6.18786">
        <ele>1822</ele>
        <time>2014-10-12T12:56:41Z</time>
      </trkpt>
      <trkpt lat="44.31395" lon="6.18779">
        <ele>1822</ele>
        <time>2014-10-12T12:57:29Z</time>
      </trkpt>
      <trkpt lat="44.31402" lon="6.1877">
        <ele>1821</ele>
        <time>2014-10-12T12:57:38Z</time>
      </trkpt>
      <trkpt lat="44.31406" lon="6.18757">
        <ele>1821</ele>
        <time>2014-10-12T12:57:52Z</time>
      </trkpt>
      <trkpt lat="44.31407" lon="6.18744">
        <ele>1818</ele>
        <time>2014-10-12T12:58:36Z</time>
      </trkpt>
      <trkpt lat="44.31402" lon="6.18734">
        <ele>1817</ele>
        <time>2014-10-12T12:58:44Z</time>
      </trkpt>
      <trkpt lat="44.31397" lon="6.18722">
        <ele>1816</ele>
        <time>2014-10-12T12:58:52Z</time>
      </trkpt>
      <trkpt lat="44.31391" lon="6.18712">
        <ele>1815</ele>
        <time>2014-10-12T12:59:01Z</time>
      </trkpt>
      <trkpt lat="44.31385" lon="6.18701">
        <ele>1814</ele>
        <time>2014-10-12T12:59:13Z</time>
      </trkpt>
      <trkpt lat="44.31384" lon="6.18688">
        <ele>1814</ele>
        <time>2014-10-12T12:59:25Z</time>
      </trkpt>
      <trkpt lat="44.31379" lon="6.18678">
        <ele>1813</ele>
        <time>2014-10-12T12:59:36Z</time>
      </trkpt>
      <trkpt lat="44.31378" lon="6.18665">
        <ele>1803</ele>
        <time>2014-10-12T12:59:47Z</time>
      </trkpt>
      <trkpt lat="44.31379" lon="6.18651">
        <ele>1802</ele>
        <time>2014-10-12T12:59:58Z</time>
      </trkpt>
      <trkpt lat="44.31388" lon="6.18656">
        <ele>1803</ele>
        <time>2014-10-12T13:00:13Z</time>
      </trkpt>
      <trkpt lat="44.31397" lon="6.18659">
        <ele>1804</ele>
        <time>2014-10-12T13:01:04Z</time>
      </trkpt>
      <trkpt lat="44.31389" lon="6.18656">
        <ele>1803</ele>
        <time>2014-10-12T13:01:54Z</time>
      </trkpt>
      <trkpt lat="44.31384" lon="6.18643">
        <ele>1801</ele>
        <time>2014-10-12T13:02:03Z</time>
      </trkpt>
      <trkpt lat="44.31382" lon="6.1863">
        <ele>1800</ele>
        <time>2014-10-12T13:02:09Z</time>
      </trkpt>
      <trkpt lat="44.31378" lon="6.18618">
        <ele>1798</ele>
        <time>2014-10-12T13:02:15Z</time>
      </trkpt>
      <trkpt lat="44.31375" lon="6.18606">
        <ele>1797</ele>
        <time>2014-10-12T13:02:22Z</time>
      </trkpt>
      <trkpt lat="44.31378" lon="6.18594">
        <ele>1796</ele>
        <time>2014-10-12T13:02:35Z</time>
      </trkpt>
      <trkpt lat="44.31379" lon="6.18581">
        <ele>1782</ele>
        <time>2014-10-12T13:02:46Z</time>
      </trkpt>
      <trkpt lat="44.31378" lon="6.18568">
        <ele>1781</ele>
        <time>2014-10-12T13:03:00Z</time>
      </trkpt>
      <trkpt lat="44.31375" lon="6.18555">
        <ele>1780</ele>
        <time>2014-10-12T13:03:19Z</time>
      </trkpt>
      <trkpt lat="44.31373" lon="6.18543">
        <ele>1778</ele>
        <time>2014-10-12T13:03:32Z</time>
      </trkpt>
      <trkpt lat="44.31372" lon="6.18529">
        <ele>1776</ele>
        <time>2014-10-12T13:03:45Z</time>
      </trkpt>
      <trkpt lat="44.3137" lon="6.18517">
        <ele>1774</ele>
        <time>2014-10-12T13:03:54Z</time>
      </trkpt>
      <trkpt lat="44.31371" lon="6.18505">
        <ele>1773</ele>
        <time>2014-10-12T13:04:05Z</time>
      </trkpt>
      <trkpt lat="44.31366" lon="6.18494">
        <ele>1760</ele>
        <time>2014-10-12T13:04:15Z</time>
      </trkpt>
      <trkpt lat="44.3136" lon="6.18485">
        <ele>1759</ele>
        <time>2014-10-12T13:04:24Z</time>
      </trkpt>
      <trkpt lat="44.31361" lon="6.18471">
        <ele>1758</ele>
        <time>2014-10-12T13:04:34Z</time>
      </trkpt>
      <trkpt lat="44.31364" lon="6.18459">
        <ele>1756</ele>
        <time>2014-10-12T13:04:46Z</time>
      </trkpt>
      <trkpt lat="44.3136" lon="6.18448">
        <ele>1754</ele>
        <time>2014-10-12T13:05:04Z</time>
      </trkpt>
      <trkpt lat="44.31365" lon="6.18437">
        <ele>1753</ele>
        <time>2014-10-12T13:05:23Z</time>
      </trkpt>
      <trkpt lat="44.3136" lon="6.18426">
        <ele>1752</ele>
        <time>2014-10-12T13:05:39Z</time>
      </trkpt>
      <trkpt lat="44.3136" lon="6.18413">
        <ele>1740</ele>
        <time>2014-10-12T13:05:56Z</time>
      </trkpt>
      <trkpt lat="44.31364" lon="6.18401">
        <ele>1739</ele>
        <time>2014-10-12T13:06:12Z</time>
      </trkpt>
      <trkpt lat="44.3137" lon="6.18391">
        <ele>1737</ele>
        <time>2014-10-12T13:06:26Z</time>
      </trkpt>
      <trkpt lat="44.31361" lon="6.1839">
        <ele>1738</ele>
        <time>2014-10-12T13:07:24Z</time>
      </trkpt>
      <trkpt lat="44.31364" lon="6.18377">
        <ele>1736</ele>
        <time>2014-10-12T13:08:26Z</time>
      </trkpt>
      <trkpt lat="44.31364" lon="6.18365">
        <ele>1734</ele>
        <time>2014-10-12T13:08:32Z</time>
      </trkpt>
      <trkpt lat="44.31364" lon="6.1835">
        <ele>1733</ele>
        <time>2014-10-12T13:08:38Z</time>
      </trkpt>
      <trkpt lat="44.31366" lon="6.18338">
        <ele>1732</ele>
        <time>2014-10-12T13:08:46Z</time>
      </trkpt>
      <trkpt lat="44.31367" lon="6.18324">
        <ele>1721</ele>
        <time>2014-10-12T13:08:53Z</time>
      </trkpt>
      <trkpt lat="44.31365" lon="6.18311">
        <ele>1721</ele>
        <time>2014-10-12T13:10:07Z</time>
      </trkpt>
      <trkpt lat="44.31365" lon="6.18297">
        <ele>1720</ele>
        <time>2014-10-12T13:10:17Z</time>
      </trkpt>
      <trkpt lat="44.3137" lon="6.18286">
        <ele>1719</ele>
        <time>2014-10-12T13:10:29Z</time>
      </trkpt>
      <trkpt lat="44.3137" lon="6.18273">
        <ele>1718</ele>
        <time>2014-10-12T13:10:38Z</time>
      </trkpt>
      <trkpt lat="44.31366" lon="6.1826">
        <ele>1717</ele>
        <time>2014-10-12T13:10:47Z</time>
      </trkpt>
      <trkpt lat="44.31363" lon="6.18247">
        <ele>1712</ele>
        <time>2014-10-12T13:10:55Z</time>
      </trkpt>
      <trkpt lat="44.31362" lon="6.18235">
        <ele>1712</ele>
        <time>2014-10-12T13:11:02Z</time>
      </trkpt>
      <trkpt lat="44.31364" lon="6.18222">
        <ele>1712</ele>
        <time>2014-10-12T13:11:12Z</time>
      </trkpt>
      <trkpt lat="44.31365" lon="6.18208">
        <ele>1711</ele>
        <time>2014-10-12T13:11:22Z</time>
      </trkpt>
      <trkpt lat="44.31364" lon="6.18194">
        <ele>1711</ele>
        <time>2014-10-12T13:11:32Z</time>
      </trkpt>
      <trkpt lat="44.31363" lon="6.18181">
        <ele>1711</ele>
        <time>2014-10-12T13:11:41Z</time>
      </trkpt>
      <trkpt lat="44.31361" lon="6.18168">
        <ele>1711</ele>
        <time>2014-10-12T13:11:48Z</time>
      </trkpt>
      <trkpt lat="44.31366" lon="6.18157">
        <ele>1708</ele>
        <time>2014-10-12T13:11:57Z</time>
      </trkpt>
      <trkpt lat="44.3137" lon="6.18145">
        <ele>1708</ele>
        <time>2014-10-12T13:12:06Z</time>
      </trkpt>
      <trkpt lat="44.31367" lon="6.18132">
        <ele>1708</ele>
        <time>2014-10-12T13:12:18Z</time>
      </trkpt>
      <trkpt lat="44.31361" lon="6.18123">
        <ele>1708</ele>
        <time>2014-10-12T13:12:28Z</time>
      </trkpt>
      <trkpt lat="44.31368" lon="6.18115">
        <ele>1708</ele>
        <time>2014-10-12T13:13:41Z</time>
      </trkpt>
      <trkpt lat="44.31366" lon="6.18103">
        <ele>1708</ele>
        <time>2014-10-12T13:13:48Z</time>
      </trkpt>
      <trkpt lat="44.31361" lon="6.18092">
        <ele>1708</ele>
        <time>2014-10-12T13:13:54Z</time>
      </trkpt>
      <trkpt lat="44.31368" lon="6.18082">
        <ele>1705</ele>
        <time>2014-10-12T13:14:09Z</time>
      </trkpt>
      <trkpt lat="44.31368" lon="6.18068">
        <ele>1705</ele>
        <time>2014-10-12T13:14:21Z</time>
      </trkpt>
      <trkpt lat="44.31367" lon="6.18055">
        <ele>1704</ele>
        <time>2014-10-12T13:14:27Z</time>
      </trkpt>
      <trkpt lat="44.31366" lon="6.18043">
        <ele>1703</ele>
        <time>2014-10-12T13:14:36Z</time>
      </trkpt>
      <trkpt lat="44.31365" lon="6.18029">
        <ele>1703</ele>
        <time>2014-10-12T13:14:50Z</time>
      </trkpt>
      <trkpt lat="44.31366" lon="6.18014">
        <ele>1702</ele>
        <time>2014-10-12T13:15:00Z</time>
      </trkpt>
      <trkpt lat="44.31368" lon="6.18002">
        <ele>1702</ele>
        <time>2014-10-12T13:15:08Z</time>
      </trkpt>
      <trkpt lat="44.31368" lon="6.17988">
        <ele>1694</ele>
        <time>2014-10-12T13:15:16Z</time>
      </trkpt>
      <trkpt lat="44.31366" lon="6.17976">
        <ele>1693</ele>
        <time>2014-10-12T13:15:23Z</time>
      </trkpt>
      <trkpt lat="44.31364" lon="6.17963">
        <ele>1692</ele>
        <time>2014-10-12T13:15:32Z</time>
      </trkpt>
      <trkpt lat="44.3136" lon="6.17951">
        <ele>1690</ele>
        <time>2014-10-12T13:15:41Z</time>
      </trkpt>
      <trkpt lat="44.31357" lon="6.17939">
        <ele>1689</ele>
        <time>2014-10-12T13:15:50Z</time>
      </trkpt>
      <trkpt lat="44.31354" lon="6.17926">
        <ele>1687</ele>
        <time>2014-10-12T13:15:59Z</time>
      </trkpt>
      <trkpt lat="44.31351" lon="6.17913">
        <ele>1677</ele>
        <time>2014-10-12T13:16:08Z</time>
      </trkpt>
      <trkpt lat="44.31349" lon="6.179">
        <ele>1676</ele>
        <time>2014-10-12T13:16:17Z</time>
      </trkpt>
      <trkpt lat="44.31347" lon="6.17887">
        <ele>1674</ele>
        <time>2014-10-12T13:16:25Z</time>
      </trkpt>
      <trkpt lat="44.31347" lon="6.17875">
        <ele>1672</ele>
        <time>2014-10-12T13:16:35Z</time>
      </trkpt>
      <trkpt lat="44.31345" lon="6.17862">
        <ele>1669</ele>
        <time>2014-10-12T13:16:44Z</time>
      </trkpt>
      <trkpt lat="44.31336" lon="6.17857">
        <ele>1668</ele>
        <time>2014-10-12T13:17:26Z</time>
      </trkpt>
      <trkpt lat="44.3133" lon="6.17847">
        <ele>1662</ele>
        <time>2014-10-12T13:17:40Z</time>
      </trkpt>
      <trkpt lat="44.31326" lon="6.17836">
        <ele>1661</ele>
        <time>2014-10-12T13:17:57Z</time>
      </trkpt>
      <trkpt lat="44.31319" lon="6.17827">
        <ele>1653</ele>
        <time>2014-10-12T13:18:20Z</time>
      </trkpt>
      <trkpt lat="44.3131" lon="6.17824">
        <ele>1651</ele>
        <time>2014-10-12T13:18:32Z</time>
      </trkpt>
      <trkpt lat="44.31302" lon="6.17816">
        <ele>1650</ele>
        <time>2014-10-12T13:18:49Z</time>
      </trkpt>
      <trkpt lat="44.31297" lon="6.17805">
        <ele>1648</ele>
        <time>2014-10-12T13:19:03Z</time>
      </trkpt>
      <trkpt lat="44.3129" lon="6.17797">
        <ele>1647</ele>
        <time>2014-10-12T13:19:22Z</time>
      </trkpt>
      <trkpt lat="44.31284" lon="6.17786">
        <ele>1646</ele>
        <time>2014-10-12T13:19:45Z</time>
      </trkpt>
      <trkpt lat="44.31282" lon="6.17774">
        <ele>1644</ele>
        <time>2014-10-12T13:20:05Z</time>
      </trkpt>
      <trkpt lat="44.3129" lon="6.17766">
        <ele>1644</ele>
        <time>2014-10-12T13:22:03Z</time>
      </trkpt>
      <trkpt lat="44.31299" lon="6.17761">
        <ele>1643</ele>
        <time>2014-10-12T13:22:12Z</time>
      </trkpt>
      <trkpt lat="44.31308" lon="6.17756">
        <ele>1641</ele>
        <time>2014-10-12T13:22:21Z</time>
      </trkpt>
      <trkpt lat="44.31316" lon="6.17751">
        <ele>1639</ele>
        <time>2014-10-12T13:22:33Z</time>
      </trkpt>
      <trkpt lat="44.31325" lon="6.17743">
        <ele>1630</ele>
        <time>2014-10-12T13:22:41Z</time>
      </trkpt>
      <trkpt lat="44.31334" lon="6.1774">
        <ele>1631</ele>
        <time>2014-10-12T13:22:50Z</time>
      </trkpt>
      <trkpt lat="44.31343" lon="6.17737">
        <ele>1630</ele>
        <time>2014-10-12T13:23:00Z</time>
      </trkpt>
      <trkpt lat="44.31353" lon="6.17735">
        <ele>1629</ele>
        <time>2014-10-12T13:23:10Z</time>
      </trkpt>
      <trkpt lat="44.31362" lon="6.17734">
        <ele>1629</ele>
        <time>2014-10-12T13:23:17Z</time>
      </trkpt>
      <trkpt lat="44.31371" lon="6.17728">
        <ele>1629</ele>
        <time>2014-10-12T13:23:27Z</time>
      </trkpt>
      <trkpt lat="44.3138" lon="6.17724">
        <ele>1629</ele>
        <time>2014-10-12T13:23:35Z</time>
      </trkpt>
      <trkpt lat="44.3138" lon="6.17711">
        <ele>1628</ele>
        <time>2014-10-12T13:23:44Z</time>
      </trkpt>
      <trkpt lat="44.31371" lon="6.17717">
        <ele>1628</ele>
        <time>2014-10-12T13:23:53Z</time>
      </trkpt>
      <trkpt lat="44.31363" lon="6.17722">
        <ele>1628</ele>
        <time>2014-10-12T13:24:01Z</time>
      </trkpt>
      <trkpt lat="44.31354" lon="6.17727">
        <ele>1628</ele>
        <time>2014-10-12T13:24:09Z</time>
      </trkpt>
      <trkpt lat="44.31345" lon="6.17728">
        <ele>1629</ele>
        <time>2014-10-12T13:24:28Z</time>
      </trkpt>
      <trkpt lat="44.31335" lon="6.17733">
        <ele>1629</ele>
        <time>2014-10-12T13:24:36Z</time>
      </trkpt>
      <trkpt lat="44.31326" lon="6.17733">
        <ele>1629</ele>
        <time>2014-10-12T13:24:48Z</time>
      </trkpt>
      <trkpt lat="44.31316" lon="6.17735">
        <ele>1629</ele>
        <time>2014-10-12T13:24:56Z</time>
      </trkpt>
      <trkpt lat="44.31307" lon="6.17738">
        <ele>1629</ele>
        <time>2014-10-12T13:25:03Z</time>
      </trkpt>
      <trkpt lat="44.31298" lon="6.17742">
        <ele>1629</ele>
        <time>2014-10-12T13:25:09Z</time>
      </trkpt>
      <trkpt lat="44.31288" lon="6.17743">
        <ele>1630</ele>
        <time>2014-10-12T13:25:16Z</time>
      </trkpt>
      <trkpt lat="44.31281" lon="6.17735">
        <ele>1630</ele>
        <time>2014-10-12T13:25:24Z</time>
      </trkpt>
      <trkpt lat="44.3128" lon="6.17722">
        <ele>1628</ele>
        <time>2014-10-12T13:25:33Z</time>
      </trkpt>
      <trkpt lat="44.3128" lon="6.17708">
        <ele>1626</ele>
        <time>2014-10-12T13:25:44Z</time>
      </trkpt>
      <trkpt lat="44.31282" lon="6.17695">
        <ele>1625</ele>
        <time>2014-10-12T13:25:51Z</time>
      </trkpt>
      <trkpt lat="44.31278" lon="6.17683">
        <ele>1624</ele>
        <time>2014-10-12T13:26:12Z</time>
      </trkpt>
      <trkpt lat="44.31276" lon="6.17669">
        <ele>1623</ele>
        <time>2014-10-12T13:26:19Z</time>
      </trkpt>
      <trkpt lat="44.31274" lon="6.17657">
        <ele>1614</ele>
        <time>2014-10-12T13:26:27Z</time>
      </trkpt>
      <trkpt lat="44.31271" lon="6.17644">
        <ele>1613</ele>
        <time>2014-10-12T13:26:35Z</time>
      </trkpt>
      <trkpt lat="44.31269" lon="6.17632">
        <ele>1612</ele>
        <time>2014-10-12T13:26:43Z</time>
      </trkpt>
      <trkpt lat="44.31267" lon="6.17619">
        <ele>1610</ele>
        <time>2014-10-12T13:26:50Z</time>
      </trkpt>
      <trkpt lat="44.31267" lon="6.17606">
        <ele>1610</ele>
        <time>2014-10-12T13:26:58Z</time>
      </trkpt>
      <trkpt lat="44.31267" lon="6.17592">
        <ele>1609</ele>
        <time>2014-10-12T13:27:06Z</time>
      </trkpt>
      <trkpt lat="44.31265" lon="6.17579">
        <ele>1603</ele>
        <time>2014-10-12T13:27:15Z</time>
      </trkpt>
      <trkpt lat="44.31263" lon="6.17565">
        <ele>1602</ele>
        <time>2014-10-12T13:27:23Z</time>
      </trkpt>
      <trkpt lat="44.31261" lon="6.17552">
        <ele>1600</ele>
        <time>2014-10-12T13:27:30Z</time>
      </trkpt>
      <trkpt lat="44.3126" lon="6.17538">
        <ele>1598</ele>
        <time>2014-10-12T13:27:38Z</time>
      </trkpt>
      <trkpt lat="44.31258" lon="6.17525">
        <ele>1596</ele>
        <time>2014-10-12T13:27:46Z</time>
      </trkpt>
      <trkpt lat="44.31255" lon="6.17511">
        <ele>1595</ele>
        <time>2014-10-12T13:27:55Z</time>
      </trkpt>
      <trkpt lat="44.31252" lon="6.17499">
        <ele>1592</ele>
        <time>2014-10-12T13:28:03Z</time>
      </trkpt>
      <trkpt lat="44.31249" lon="6.17485">
        <ele>1591</ele>
        <time>2014-10-12T13:28:11Z</time>
      </trkpt>
      <trkpt lat="44.31246" lon="6.17473">
        <ele>1589</ele>
        <time>2014-10-12T13:28:19Z</time>
      </trkpt>
      <trkpt lat="44.31241" lon="6.17461">
        <ele>1588</ele>
        <time>2014-10-12T13:28:27Z</time>
      </trkpt>
      <trkpt lat="44.31232" lon="6.17456">
        <ele>1588</ele>
        <time>2014-10-12T13:28:35Z</time>
      </trkpt>
      <trkpt lat="44.31223" lon="6.17452">
        <ele>1588</ele>
        <time>2014-10-12T13:28:44Z</time>
      </trkpt>
      <trkpt lat="44.31214" lon="6.1745">
        <ele>1588</ele>
        <time>2014-10-12T13:28:52Z</time>
      </trkpt>
      <trkpt lat="44.31204" lon="6.17447">
        <ele>1589</ele>
        <time>2014-10-12T13:29:00Z</time>
      </trkpt>
      <trkpt lat="44.31194" lon="6.17445">
        <ele>1589</ele>
        <time>2014-10-12T13:29:07Z</time>
      </trkpt>
      <trkpt lat="44.31185" lon="6.17444">
        <ele>1590</ele>
        <time>2014-10-12T13:29:14Z</time>
      </trkpt>
      <trkpt lat="44.31176" lon="6.17444">
        <ele>1590</ele>
        <time>2014-10-12T13:29:22Z</time>
      </trkpt>
      <trkpt lat="44.31167" lon="6.17438">
        <ele>1590</ele>
        <time>2014-10-12T13:29:29Z</time>
      </trkpt>
      <trkpt lat="44.31167" lon="6.17425">
        <ele>1595</ele>
        <time>2014-10-12T13:29:36Z</time>
      </trkpt>
      <trkpt lat="44.31171" lon="6.17412">
        <ele>1588</ele>
        <time>2014-10-12T13:29:44Z</time>
      </trkpt>
      <trkpt lat="44.31178" lon="6.17403">
        <ele>1586</ele>
        <time>2014-10-12T13:29:54Z</time>
      </trkpt>
      <trkpt lat="44.31182" lon="6.17392">
        <ele>1585</ele>
        <time>2014-10-12T13:30:02Z</time>
      </trkpt>
      <trkpt lat="44.31189" lon="6.17381">
        <ele>1584</ele>
        <time>2014-10-12T13:30:09Z</time>
      </trkpt>
      <trkpt lat="44.31194" lon="6.1737">
        <ele>1583</ele>
        <time>2014-10-12T13:30:16Z</time>
      </trkpt>
      <trkpt lat="44.312" lon="6.1736">
        <ele>1583</ele>
        <time>2014-10-12T13:30:25Z</time>
      </trkpt>
      <trkpt lat="44.31206" lon="6.1735">
        <ele>1582</ele>
        <time>2014-10-12T13:30:34Z</time>
      </trkpt>
      <trkpt lat="44.31212" lon="6.1734">
        <ele>1580</ele>
        <time>2014-10-12T13:30:42Z</time>
      </trkpt>
      <trkpt lat="44.31218" lon="6.17329">
        <ele>1578</ele>
        <time>2014-10-12T13:30:52Z</time>
      </trkpt>
      <trkpt lat="44.31225" lon="6.17319">
        <ele>1577</ele>
        <time>2014-10-12T13:31:00Z</time>
      </trkpt>
      <trkpt lat="44.31231" lon="6.17309">
        <ele>1576</ele>
        <time>2014-10-12T13:31:06Z</time>
      </trkpt>
      <trkpt lat="44.31235" lon="6.17297">
        <ele>1576</ele>
        <time>2014-10-12T13:31:13Z</time>
      </trkpt>
      <trkpt lat="44.31238" lon="6.17285">
        <ele>1576</ele>
        <time>2014-10-12T13:31:20Z</time>
      </trkpt>
      <trkpt lat="44.31242" lon="6.17272">
        <ele>1574</ele>
        <time>2014-10-12T13:31:27Z</time>
      </trkpt>
      <trkpt lat="44.31243" lon="6.17259">
        <ele>1571</ele>
        <time>2014-10-12T13:31:35Z</time>
      </trkpt>
      <trkpt lat="44.31243" lon="6.17246">
        <ele>1568</ele>
        <time>2014-10-12T13:31:46Z</time>
      </trkpt>
      <trkpt lat="44.31243" lon="6.17232">
        <ele>1570</ele>
        <time>2014-10-12T13:31:53Z</time>
      </trkpt>
      <trkpt lat="44.31243" lon="6.17219">
        <ele>1570</ele>
        <time>2014-10-12T13:32:00Z</time>
      </trkpt>
      <trkpt lat="44.31242" lon="6.17205">
        <ele>1569</ele>
        <time>2014-10-12T13:32:07Z</time>
      </trkpt>
      <trkpt lat="44.31241" lon="6.17192">
        <ele>1567</ele>
        <time>2014-10-12T13:32:15Z</time>
      </trkpt>
      <trkpt lat="44.31243" lon="6.17179">
        <ele>1563</ele>
        <time>2014-10-12T13:32:26Z</time>
      </trkpt>
      <trkpt lat="44.31239" lon="6.17166">
        <ele>1558</ele>
        <time>2014-10-12T13:32:35Z</time>
      </trkpt>
      <trkpt lat="44.31232" lon="6.17156">
        <ele>1559</ele>
        <time>2014-10-12T13:32:44Z</time>
      </trkpt>
      <trkpt lat="44.31229" lon="6.17143">
        <ele>1560</ele>
        <time>2014-10-12T13:32:51Z</time>
      </trkpt>
      <trkpt lat="44.31227" lon="6.1713">
        <ele>1559</ele>
        <time>2014-10-12T13:32:57Z</time>
      </trkpt>
      <trkpt lat="44.31237" lon="6.17129">
        <ele>1558</ele>
        <time>2014-10-12T13:33:08Z</time>
      </trkpt>
      <trkpt lat="44.31241" lon="6.17141">
        <ele>1558</ele>
        <time>2014-10-12T13:33:15Z</time>
      </trkpt>
      <trkpt lat="44.3124" lon="6.17154">
        <ele>1558</ele>
        <time>2014-10-12T13:33:23Z</time>
      </trkpt>
      <trkpt lat="44.31248" lon="6.17164">
        <ele>1556</ele>
        <time>2014-10-12T13:33:31Z</time>
      </trkpt>
      <trkpt lat="44.31252" lon="6.17176">
        <ele>1555</ele>
        <time>2014-10-12T13:33:38Z</time>
      </trkpt>
      <trkpt lat="44.31257" lon="6.17189">
        <ele>1556</ele>
        <time>2014-10-12T13:33:46Z</time>
      </trkpt>
      <trkpt lat="44.31259" lon="6.17201">
        <ele>1556</ele>
        <time>2014-10-12T13:33:55Z</time>
      </trkpt>
      <trkpt lat="44.31262" lon="6.17213">
        <ele>1557</ele>
        <time>2014-10-12T13:34:03Z</time>
      </trkpt>
      <trkpt lat="44.31267" lon="6.17225">
        <ele>1558</ele>
        <time>2014-10-12T13:34:12Z</time>
      </trkpt>
      <trkpt lat="44.31271" lon="6.17238">
        <ele>1559</ele>
        <time>2014-10-12T13:34:21Z</time>
      </trkpt>
      <trkpt lat="44.31274" lon="6.1725">
        <ele>1564</ele>
        <time>2014-10-12T13:34:28Z</time>
      </trkpt>
      <trkpt lat="44.31276" lon="6.17263">
        <ele>1563</ele>
        <time>2014-10-12T13:34:35Z</time>
      </trkpt>
      <trkpt lat="44.31279" lon="6.17277">
        <ele>1563</ele>
        <time>2014-10-12T13:34:43Z</time>
      </trkpt>
      <trkpt lat="44.31287" lon="6.17282">
        <ele>1563</ele>
        <time>2014-10-12T13:34:50Z</time>
      </trkpt>
      <trkpt lat="44.31296" lon="6.17285">
        <ele>1563</ele>
        <time>2014-10-12T13:34:57Z</time>
      </trkpt>
      <trkpt lat="44.31306" lon="6.17282">
        <ele>1562</ele>
        <time>2014-10-12T13:35:04Z</time>
      </trkpt>
      <trkpt lat="44.31311" lon="6.17272">
        <ele>1561</ele>
        <time>2014-10-12T13:35:11Z</time>
      </trkpt>
      <trkpt lat="44.31317" lon="6.1726">
        <ele>1559</ele>
        <time>2014-10-12T13:35:18Z</time>
      </trkpt>
      <trkpt lat="44.31322" lon="6.17249">
        <ele>1555</ele>
        <time>2014-10-12T13:35:24Z</time>
      </trkpt>
      <trkpt lat="44.31324" lon="6.17237">
        <ele>1554</ele>
        <time>2014-10-12T13:35:30Z</time>
      </trkpt>
      <trkpt lat="44.31328" lon="6.17225">
        <ele>1554</ele>
        <time>2014-10-12T13:35:37Z</time>
      </trkpt>
      <trkpt lat="44.31329" lon="6.17212">
        <ele>1553</ele>
        <time>2014-10-12T13:35:44Z</time>
      </trkpt>
      <trkpt lat="44.31333" lon="6.17197">
        <ele>1552</ele>
        <time>2014-10-12T13:35:51Z</time>
      </trkpt>
      <trkpt lat="44.31338" lon="6.17186">
        <ele>1551</ele>
        <time>2014-10-12T13:35:57Z</time>
      </trkpt>
      <trkpt lat="44.31345" lon="6.17178">
        <ele>1550</ele>
        <time>2014-10-12T13:36:04Z</time>
      </trkpt>
      <trkpt lat="44.3135" lon="6.17167">
        <ele>1546</ele>
        <time>2014-10-12T13:36:11Z</time>
      </trkpt>
      <trkpt lat="44.31357" lon="6.17157">
        <ele>1547</ele>
        <time>2014-10-12T13:36:21Z</time>
      </trkpt>
      <trkpt lat="44.31363" lon="6.17146">
        <ele>1547</ele>
        <time>2014-10-12T13:36:29Z</time>
      </trkpt>
      <trkpt lat="44.31372" lon="6.17139">
        <ele>1547</ele>
        <time>2014-10-12T13:36:36Z</time>
      </trkpt>
      <trkpt lat="44.31378" lon="6.1713">
        <ele>1547</ele>
        <time>2014-10-12T13:36:44Z</time>
      </trkpt>
      <trkpt lat="44.31379" lon="6.17117">
        <ele>1547</ele>
        <time>2014-10-12T13:36:51Z</time>
      </trkpt>
      <trkpt lat="44.31382" lon="6.17104">
        <ele>1546</ele>
        <time>2014-10-12T13:36:58Z</time>
      </trkpt>
      <trkpt lat="44.31386" lon="6.17092">
        <ele>1546</ele>
        <time>2014-10-12T13:37:10Z</time>
      </trkpt>
      <trkpt lat="44.31387" lon="6.17078">
        <ele>1545</ele>
        <time>2014-10-12T13:39:33Z</time>
      </trkpt>
      <trkpt lat="44.31396" lon="6.17078">
        <ele>1545</ele>
        <time>2014-10-12T13:39:42Z</time>
      </trkpt>
      <trkpt lat="44.31405" lon="6.17081">
        <ele>1546</ele>
        <time>2014-10-12T13:39:53Z</time>
      </trkpt>
      <trkpt lat="44.31414" lon="6.17088">
        <ele>1546</ele>
        <time>2014-10-12T13:40:08Z</time>
      </trkpt>
      <trkpt lat="44.31421" lon="6.17096">
        <ele>1543</ele>
        <time>2014-10-12T13:40:17Z</time>
      </trkpt>
      <trkpt lat="44.3143" lon="6.17102">
        <ele>1542</ele>
        <time>2014-10-12T13:40:23Z</time>
      </trkpt>
      <trkpt lat="44.31437" lon="6.17109">
        <ele>1540</ele>
        <time>2014-10-12T13:40:30Z</time>
      </trkpt>
      <trkpt lat="44.31446" lon="6.17114">
        <ele>1539</ele>
        <time>2014-10-12T13:40:35Z</time>
      </trkpt>
      <trkpt lat="44.31455" lon="6.17121">
        <ele>1538</ele>
        <time>2014-10-12T13:40:41Z</time>
      </trkpt>
      <trkpt lat="44.31462" lon="6.1713">
        <ele>1538</ele>
        <time>2014-10-12T13:40:48Z</time>
      </trkpt>
      <trkpt lat="44.31463" lon="6.17143">
        <ele>1539</ele>
        <time>2014-10-12T13:40:59Z</time>
      </trkpt>
      <trkpt lat="44.3147" lon="6.17152">
        <ele>1538</ele>
        <time>2014-10-12T13:41:25Z</time>
      </trkpt>
      <trkpt lat="44.31475" lon="6.17164">
        <ele>1537</ele>
        <time>2014-10-12T13:41:34Z</time>
      </trkpt>
      <trkpt lat="44.31481" lon="6.17174">
        <ele>1543</ele>
        <time>2014-10-12T13:41:43Z</time>
      </trkpt>
      <trkpt lat="44.31486" lon="6.17185">
        <ele>1544</ele>
        <time>2014-10-12T13:41:52Z</time>
      </trkpt>
      <trkpt lat="44.31494" lon="6.17192">
        <ele>1544</ele>
        <time>2014-10-12T13:41:58Z</time>
      </trkpt>
      <trkpt lat="44.31504" lon="6.17196">
        <ele>1524</ele>
        <time>2014-10-12T13:42:02Z</time>
      </trkpt>
      <trkpt lat="44.31499" lon="6.17208">
        <ele>1547</ele>
        <time>2014-10-12T13:42:09Z</time>
      </trkpt>
      <trkpt lat="44.31505" lon="6.17221">
        <ele>1528</ele>
        <time>2014-10-12T13:42:21Z</time>
      </trkpt>
      <trkpt lat="44.31514" lon="6.17225">
        <ele>1527</ele>
        <time>2014-10-12T13:42:24Z</time>
      </trkpt>
      <trkpt lat="44.31522" lon="6.17232">
        <ele>1526</ele>
        <time>2014-10-12T13:42:32Z</time>
      </trkpt>
      <trkpt lat="44.31522" lon="6.17245">
        <ele>1528</ele>
        <time>2014-10-12T13:42:44Z</time>
      </trkpt>
      <trkpt lat="44.31516" lon="6.17255">
        <ele>1536</ele>
        <time>2014-10-12T13:43:11Z</time>
      </trkpt>
      <trkpt lat="44.31516" lon="6.17268">
        <ele>1534</ele>
        <time>2014-10-12T13:43:20Z</time>
      </trkpt>
      <trkpt lat="44.31516" lon="6.17281">
        <ele>1532</ele>
        <time>2014-10-12T13:43:28Z</time>
      </trkpt>
      <trkpt lat="44.31515" lon="6.17295">
        <ele>1532</ele>
        <time>2014-10-12T13:43:36Z</time>
      </trkpt>
      <trkpt lat="44.31518" lon="6.17307">
        <ele>1533</ele>
        <time>2014-10-12T13:43:43Z</time>
      </trkpt>
      <trkpt lat="44.31519" lon="6.1732">
        <ele>1536</ele>
        <time>2014-10-12T13:43:52Z</time>
      </trkpt>
      <trkpt lat="44.31526" lon="6.1733">
        <ele>1534</ele>
        <time>2014-10-12T13:44:00Z</time>
      </trkpt>
      <trkpt lat="44.31535" lon="6.17336">
        <ele>1530</ele>
        <time>2014-10-12T13:44:08Z</time>
      </trkpt>
      <trkpt lat="44.31542" lon="6.17344">
        <ele>1526</ele>
        <time>2014-10-12T13:44:15Z</time>
      </trkpt>
      <trkpt lat="44.31544" lon="6.17357">
        <ele>1525</ele>
        <time>2014-10-12T13:44:26Z</time>
      </trkpt>
      <trkpt lat="44.31543" lon="6.1737">
        <ele>1526</ele>
        <time>2014-10-12T13:44:33Z</time>
      </trkpt>
      <trkpt lat="44.3154" lon="6.17383">
        <ele>1527</ele>
        <time>2014-10-12T13:44:42Z</time>
      </trkpt>
      <trkpt lat="44.31537" lon="6.17396">
        <ele>1529</ele>
        <time>2014-10-12T13:44:51Z</time>
      </trkpt>
      <trkpt lat="44.31534" lon="6.17408">
        <ele>1531</ele>
        <time>2014-10-12T13:45:00Z</time>
      </trkpt>
      <trkpt lat="44.31534" lon="6.17422">
        <ele>1535</ele>
        <time>2014-10-12T13:45:10Z</time>
      </trkpt>
      <trkpt lat="44.31533" lon="6.17435">
        <ele>1534</ele>
        <time>2014-10-12T13:45:31Z</time>
      </trkpt>
      <trkpt lat="44.31532" lon="6.17449">
        <ele>1535</ele>
        <time>2014-10-12T13:45:43Z</time>
      </trkpt>
      <trkpt lat="44.31537" lon="6.1746">
        <ele>1534</ele>
        <time>2014-10-12T13:45:51Z</time>
      </trkpt>
      <trkpt lat="44.31539" lon="6.17473">
        <ele>1534</ele>
        <time>2014-10-12T13:46:01Z</time>
      </trkpt>
      <trkpt lat="44.31541" lon="6.17487">
        <ele>1533</ele>
        <time>2014-10-12T13:46:09Z</time>
      </trkpt>
      <trkpt lat="44.31537" lon="6.17499">
        <ele>1536</ele>
        <time>2014-10-12T13:46:18Z</time>
      </trkpt>
      <trkpt lat="44.31537" lon="6.17486">
        <ele>1535</ele>
        <time>2014-10-12T13:47:16Z</time>
      </trkpt>
      <trkpt lat="44.31537" lon="6.17471">
        <ele>1534</ele>
        <time>2014-10-12T13:47:27Z</time>
      </trkpt>
      <trkpt lat="44.31535" lon="6.17458">
        <ele>1534</ele>
        <time>2014-10-12T13:47:34Z</time>
      </trkpt>
      <trkpt lat="44.31533" lon="6.17444">
        <ele>1535</ele>
        <time>2014-10-12T13:47:40Z</time>
      </trkpt>
      <trkpt lat="44.31533" lon="6.17431">
        <ele>1535</ele>
        <time>2014-10-12T13:47:47Z</time>
      </trkpt>
      <trkpt lat="44.31538" lon="6.17419">
        <ele>1532</ele>
        <time>2014-10-12T13:47:55Z</time>
      </trkpt>
      <trkpt lat="44.31541" lon="6.17406">
        <ele>1527</ele>
        <time>2014-10-12T13:48:10Z</time>
      </trkpt>
      <trkpt lat="44.3154" lon="6.17393">
        <ele>1528</ele>
        <time>2014-10-12T13:48:22Z</time>
      </trkpt>
      <trkpt lat="44.3154" lon="6.1738">
        <ele>1527</ele>
        <time>2014-10-12T13:48:30Z</time>
      </trkpt>
      <trkpt lat="44.31538" lon="6.17365">
        <ele>1528</ele>
        <time>2014-10-12T13:48:37Z</time>
      </trkpt>
      <trkpt lat="44.31534" lon="6.17354">
        <ele>1530</ele>
        <time>2014-10-12T13:48:42Z</time>
      </trkpt>
      <trkpt lat="44.31535" lon="6.17341">
        <ele>1530</ele>
        <time>2014-10-12T13:48:56Z</time>
      </trkpt>
      <trkpt lat="44.31531" lon="6.17329">
        <ele>1531</ele>
        <time>2014-10-12T13:49:11Z</time>
      </trkpt>
      <trkpt lat="44.31537" lon="6.17339">
        <ele>1529</ele>
        <time>2014-10-12T13:51:19Z</time>
      </trkpt>
      <trkpt lat="44.31542" lon="6.17349">
        <ele>1526</ele>
        <time>2014-10-12T13:51:28Z</time>
      </trkpt>
      <trkpt lat="44.31539" lon="6.17362">
        <ele>1527</ele>
        <time>2014-10-12T13:51:47Z</time>
      </trkpt>
      <trkpt lat="44.31539" lon="6.17375">
        <ele>1527</ele>
        <time>2014-10-12T13:51:57Z</time>
      </trkpt>
      <trkpt lat="44.3154" lon="6.17388">
        <ele>1527</ele>
        <time>2014-10-12T13:52:05Z</time>
      </trkpt>
      <trkpt lat="44.31539" lon="6.17401">
        <ele>1528</ele>
        <time>2014-10-12T13:52:14Z</time>
      </trkpt>
      <trkpt lat="44.31535" lon="6.17413">
        <ele>1531</ele>
        <time>2014-10-12T13:52:24Z</time>
      </trkpt>
      <trkpt lat="44.31533" lon="6.17426">
        <ele>1535</ele>
        <time>2014-10-12T13:52:33Z</time>
      </trkpt>
      <trkpt lat="44.31534" lon="6.17439">
        <ele>1534</ele>
        <time>2014-10-12T13:52:41Z</time>
      </trkpt>
      <trkpt lat="44.31536" lon="6.17452">
        <ele>1533</ele>
        <time>2014-10-12T13:52:49Z</time>
      </trkpt>
      <trkpt lat="44.31538" lon="6.17466">
        <ele>1533</ele>
        <time>2014-10-12T13:53:00Z</time>
      </trkpt>
      <trkpt lat="44.31541" lon="6.17479">
        <ele>1533</ele>
        <time>2014-10-12T13:53:10Z</time>
      </trkpt>
      <trkpt lat="44.31542" lon="6.17492">
        <ele>1533</ele>
        <time>2014-10-12T13:53:18Z</time>
      </trkpt>
      <trkpt lat="44.31542" lon="6.17506">
        <ele>1541</ele>
        <time>2014-10-12T13:53:25Z</time>
      </trkpt>
      <trkpt lat="44.31545" lon="6.17518">
        <ele>1540</ele>
        <time>2014-10-12T13:53:34Z</time>
      </trkpt>
      <trkpt lat="44.31548" lon="6.17532">
        <ele>1541</ele>
        <time>2014-10-12T13:53:43Z</time>
      </trkpt>
      <trkpt lat="44.31553" lon="6.17543">
        <ele>1540</ele>
        <time>2014-10-12T13:53:53Z</time>
      </trkpt>
      <trkpt lat="44.31559" lon="6.17552">
        <ele>1538</ele>
        <time>2014-10-12T13:54:02Z</time>
      </trkpt>
      <trkpt lat="44.31565" lon="6.17562">
        <ele>1535</ele>
        <time>2014-10-12T13:54:10Z</time>
      </trkpt>
      <trkpt lat="44.31571" lon="6.17572">
        <ele>1531</ele>
        <time>2014-10-12T13:54:18Z</time>
      </trkpt>
      <trkpt lat="44.31577" lon="6.17582">
        <ele>1524</ele>
        <time>2014-10-12T13:54:27Z</time>
      </trkpt>
      <trkpt lat="44.31586" lon="6.17586">
        <ele>1517</ele>
        <time>2014-10-12T13:54:35Z</time>
      </trkpt>
      <trkpt lat="44.31595" lon="6.17591">
        <ele>1516</ele>
        <time>2014-10-12T13:54:43Z</time>
      </trkpt>
      <trkpt lat="44.31603" lon="6.17599">
        <ele>1514</ele>
        <time>2014-10-12T13:54:51Z</time>
      </trkpt>
      <trkpt lat="44.31605" lon="6.17613">
        <ele>1515</ele>
        <time>2014-10-12T13:55:00Z</time>
      </trkpt>
      <trkpt lat="44.31615" lon="6.17618">
        <ele>1514</ele>
        <time>2014-10-12T13:55:07Z</time>
      </trkpt>
      <trkpt lat="44.31622" lon="6.17625">
        <ele>1513</ele>
        <time>2014-10-12T13:55:16Z</time>
      </trkpt>
      <trkpt lat="44.3163" lon="6.17633">
        <ele>1513</ele>
        <time>2014-10-12T13:55:26Z</time>
      </trkpt>
      <trkpt lat="44.31638" lon="6.17642">
        <ele>1512</ele>
        <time>2014-10-12T13:55:38Z</time>
      </trkpt>
      <trkpt lat="44.31646" lon="6.1765">
        <ele>1511</ele>
        <time>2014-10-12T13:55:45Z</time>
      </trkpt>
      <trkpt lat="44.31653" lon="6.17657">
        <ele>1509</ele>
        <time>2014-10-12T13:55:55Z</time>
      </trkpt>
      <trkpt lat="44.31662" lon="6.17659">
        <ele>1507</ele>
        <time>2014-10-12T13:56:04Z</time>
      </trkpt>
      <trkpt lat="44.31671" lon="6.17663">
        <ele>1498</ele>
        <time>2014-10-12T13:56:11Z</time>
      </trkpt>
      <trkpt lat="44.31679" lon="6.1767">
        <ele>1506</ele>
        <time>2014-10-12T13:56:19Z</time>
      </trkpt>
      <trkpt lat="44.31688" lon="6.17676">
        <ele>1507</ele>
        <time>2014-10-12T13:56:28Z</time>
      </trkpt>
      <trkpt lat="44.31697" lon="6.1768">
        <ele>1506</ele>
        <time>2014-10-12T13:56:44Z</time>
      </trkpt>
      <trkpt lat="44.31706" lon="6.17683">
        <ele>1505</ele>
        <time>2014-10-12T13:56:58Z</time>
      </trkpt>
      <trkpt lat="44.31714" lon="6.17679">
        <ele>1503</ele>
        <time>2014-10-12T13:57:22Z</time>
      </trkpt>
      <trkpt lat="44.31707" lon="6.17669">
        <ele>1503</ele>
        <time>2014-10-12T13:59:23Z</time>
      </trkpt>
      <trkpt lat="44.31699" lon="6.17662">
        <ele>1485</ele>
        <time>2014-10-12T13:59:31Z</time>
      </trkpt>
      <trkpt lat="44.31708" lon="6.17665">
        <ele>1482</ele>
        <time>2014-10-12T13:59:48Z</time>
      </trkpt>
      <trkpt lat="44.31715" lon="6.17657">
        <ele>1480</ele>
        <time>2014-10-12T13:59:55Z</time>
      </trkpt>
      <trkpt lat="44.31725" lon="6.17658">
        <ele>1479</ele>
        <time>2014-10-12T14:00:00Z</time>
      </trkpt>
      <trkpt lat="44.31715" lon="6.17654">
        <ele>1480</ele>
        <time>2014-10-12T14:00:15Z</time>
      </trkpt>
      <trkpt lat="44.31708" lon="6.17647">
        <ele>1480</ele>
        <time>2014-10-12T14:00:26Z</time>
      </trkpt>
      <trkpt lat="44.317" lon="6.17638">
        <ele>1480</ele>
        <time>2014-10-12T14:00:34Z</time>
      </trkpt>
      <trkpt lat="44.31698" lon="6.17624">
        <ele>1478</ele>
        <time>2014-10-12T14:00:43Z</time>
      </trkpt>
      <trkpt lat="44.31693" lon="6.17611">
        <ele>1476</ele>
        <time>2014-10-12T14:00:50Z</time>
      </trkpt>
      <trkpt lat="44.31687" lon="6.17603">
        <ele>1476</ele>
        <time>2014-10-12T14:00:56Z</time>
      </trkpt>
      <trkpt lat="44.31681" lon="6.17592">
        <ele>1476</ele>
        <time>2014-10-12T14:01:05Z</time>
      </trkpt>
      <trkpt lat="44.31673" lon="6.17587">
        <ele>1476</ele>
        <time>2014-10-12T14:01:10Z</time>
      </trkpt>
      <trkpt lat="44.31664" lon="6.17581">
        <ele>1478</ele>
        <time>2014-10-12T14:01:17Z</time>
      </trkpt>
      <trkpt lat="44.31659" lon="6.17569">
        <ele>1481</ele>
        <time>2014-10-12T14:01:25Z</time>
      </trkpt>
      <trkpt lat="44.31661" lon="6.17555">
        <ele>1482</ele>
        <time>2014-10-12T14:01:30Z</time>
      </trkpt>
      <trkpt lat="44.31654" lon="6.17547">
        <ele>1483</ele>
        <time>2014-10-12T14:01:41Z</time>
      </trkpt>
      <trkpt lat="44.31648" lon="6.17537">
        <ele>1482</ele>
        <time>2014-10-12T14:01:50Z</time>
      </trkpt>
      <trkpt lat="44.31641" lon="6.17529">
        <ele>1483</ele>
        <time>2014-10-12T14:01:58Z</time>
      </trkpt>
      <trkpt lat="44.31635" lon="6.17518">
        <ele>1483</ele>
        <time>2014-10-12T14:02:07Z</time>
      </trkpt>
      <trkpt lat="44.31634" lon="6.17505">
        <ele>1482</ele>
        <time>2014-10-12T14:02:15Z</time>
      </trkpt>
      <trkpt lat="44.31634" lon="6.17492">
        <ele>1472</ele>
        <time>2014-10-12T14:02:23Z</time>
      </trkpt>
      <trkpt lat="44.31634" lon="6.17478">
        <ele>1471</ele>
        <time>2014-10-12T14:02:45Z</time>
      </trkpt>
      <trkpt lat="44.31633" lon="6.17463">
        <ele>1470</ele>
        <time>2014-10-12T14:02:50Z</time>
      </trkpt>
      <trkpt lat="44.31634" lon="6.1745">
        <ele>1468</ele>
        <time>2014-10-12T14:03:05Z</time>
      </trkpt>
      <trkpt lat="44.31631" lon="6.17437">
        <ele>1468</ele>
        <time>2014-10-12T14:03:13Z</time>
      </trkpt>
      <trkpt lat="44.31626" lon="6.17423">
        <ele>1469</ele>
        <time>2014-10-12T14:03:19Z</time>
      </trkpt>
      <trkpt lat="44.31626" lon="6.1741">
        <ele>1464</ele>
        <time>2014-10-12T14:03:54Z</time>
      </trkpt>
      <trkpt lat="44.31624" lon="6.17397">
        <ele>1465</ele>
        <time>2014-10-12T14:04:07Z</time>
      </trkpt>
      <trkpt lat="44.31635" lon="6.17395">
        <ele>1460</ele>
        <time>2014-10-12T14:04:19Z</time>
      </trkpt>
      <trkpt lat="44.31635" lon="6.17382">
        <ele>1460</ele>
        <time>2014-10-12T14:04:30Z</time>
      </trkpt>
      <trkpt lat="44.31634" lon="6.17369">
        <ele>1461</ele>
        <time>2014-10-12T14:04:37Z</time>
      </trkpt>
      <trkpt lat="44.31633" lon="6.17356">
        <ele>1461</ele>
        <time>2014-10-12T14:04:44Z</time>
      </trkpt>
      <trkpt lat="44.31636" lon="6.17343">
        <ele>1458</ele>
        <time>2014-10-12T14:04:54Z</time>
      </trkpt>
      <trkpt lat="44.31636" lon="6.17331">
        <ele>1459</ele>
        <time>2014-10-12T14:05:02Z</time>
      </trkpt>
      <trkpt lat="44.31638" lon="6.17317">
        <ele>1459</ele>
        <time>2014-10-12T14:05:09Z</time>
      </trkpt>
      <trkpt lat="44.31643" lon="6.17304">
        <ele>1459</ele>
        <time>2014-10-12T14:05:17Z</time>
      </trkpt>
      <trkpt lat="44.31651" lon="6.17297">
        <ele>1457</ele>
        <time>2014-10-12T14:05:25Z</time>
      </trkpt>
      <trkpt lat="44.31655" lon="6.17285">
        <ele>1457</ele>
        <time>2014-10-12T14:05:34Z</time>
      </trkpt>
      <trkpt lat="44.31659" lon="6.17274">
        <ele>1455</ele>
        <time>2014-10-12T14:05:40Z</time>
      </trkpt>
      <trkpt lat="44.31663" lon="6.17262">
        <ele>1450</ele>
        <time>2014-10-12T14:05:45Z</time>
      </trkpt>
      <trkpt lat="44.31666" lon="6.17248">
        <ele>1442</ele>
        <time>2014-10-12T14:05:51Z</time>
      </trkpt>
      <trkpt lat="44.31671" lon="6.17236">
        <ele>1429</ele>
        <time>2014-10-12T14:05:57Z</time>
      </trkpt>
      <trkpt lat="44.31672" lon="6.17223">
        <ele>1425</ele>
        <time>2014-10-12T14:06:02Z</time>
      </trkpt>
      <trkpt lat="44.31675" lon="6.17211">
        <ele>1423</ele>
        <time>2014-10-12T14:06:11Z</time>
      </trkpt>
      <trkpt lat="44.31679" lon="6.17198">
        <ele>1423</ele>
        <time>2014-10-12T14:06:20Z</time>
      </trkpt>
      <trkpt lat="44.31674" lon="6.17186">
        <ele>1426</ele>
        <time>2014-10-12T14:06:27Z</time>
      </trkpt>
      <trkpt lat="44.3167" lon="6.17174">
        <ele>1432</ele>
        <time>2014-10-12T14:06:34Z</time>
      </trkpt>
      <trkpt lat="44.31663" lon="6.17164">
        <ele>1440</ele>
        <time>2014-10-12T14:06:43Z</time>
      </trkpt>
      <trkpt lat="44.31673" lon="6.17162">
        <ele>1431</ele>
        <time>2014-10-12T14:07:07Z</time>
      </trkpt>
      <trkpt lat="44.31683" lon="6.17165">
        <ele>1425</ele>
        <time>2014-10-12T14:07:17Z</time>
      </trkpt>
      <trkpt lat="44.3169" lon="6.17173">
        <ele>1423</ele>
        <time>2014-10-12T14:07:27Z</time>
      </trkpt>
      <trkpt lat="44.31692" lon="6.17185">
        <ele>1421</ele>
        <time>2014-10-12T14:07:38Z</time>
      </trkpt>
      <trkpt lat="44.31692" lon="6.17198">
        <ele>1420</ele>
        <time>2014-10-12T14:07:46Z</time>
      </trkpt>
      <trkpt lat="44.31694" lon="6.17211">
        <ele>1419</ele>
        <time>2014-10-12T14:07:54Z</time>
      </trkpt>
      <trkpt lat="44.31697" lon="6.17224">
        <ele>1419</ele>
        <time>2014-10-12T14:08:01Z</time>
      </trkpt>
      <trkpt lat="44.31698" lon="6.17238">
        <ele>1419</ele>
        <time>2014-10-12T14:08:07Z</time>
      </trkpt>
      <trkpt lat="44.31707" lon="6.17238">
        <ele>1415</ele>
        <time>2014-10-12T14:08:35Z</time>
      </trkpt>
      <trkpt lat="44.31715" lon="6.17233">
        <ele>1411</ele>
        <time>2014-10-12T14:08:40Z</time>
      </trkpt>
      <trkpt lat="44.3172" lon="6.17221">
        <ele>1411</ele>
        <time>2014-10-12T14:08:46Z</time>
      </trkpt>
      <trkpt lat="44.31721" lon="6.17207">
        <ele>1412</ele>
        <time>2014-10-12T14:08:53Z</time>
      </trkpt>
      <trkpt lat="44.31723" lon="6.17193">
        <ele>1412</ele>
        <time>2014-10-12T14:09:02Z</time>
      </trkpt>
      <trkpt lat="44.31727" lon="6.17181">
        <ele>1410</ele>
        <time>2014-10-12T14:09:11Z</time>
      </trkpt>
      <trkpt lat="44.31729" lon="6.17165">
        <ele>1407</ele>
        <time>2014-10-12T14:09:20Z</time>
      </trkpt>
      <trkpt lat="44.31729" lon="6.17152">
        <ele>1407</ele>
        <time>2014-10-12T14:09:30Z</time>
      </trkpt>
      <trkpt lat="44.31725" lon="6.17139">
        <ele>1408</ele>
        <time>2014-10-12T14:09:37Z</time>
      </trkpt>
      <trkpt lat="44.31719" lon="6.17128">
        <ele>1409</ele>
        <time>2014-10-12T14:09:45Z</time>
      </trkpt>
      <trkpt lat="44.3171" lon="6.17121">
        <ele>1410</ele>
        <time>2014-10-12T14:09:53Z</time>
      </trkpt>
      <trkpt lat="44.31708" lon="6.17107">
        <ele>1409</ele>
        <time>2014-10-12T14:10:01Z</time>
      </trkpt>
      <trkpt lat="44.31712" lon="6.17094">
        <ele>1407</ele>
        <time>2014-10-12T14:10:11Z</time>
      </trkpt>
      <trkpt lat="44.31719" lon="6.17085">
        <ele>1404</ele>
        <time>2014-10-12T14:10:17Z</time>
      </trkpt>
      <trkpt lat="44.31724" lon="6.17073">
        <ele>1397</ele>
        <time>2014-10-12T14:10:25Z</time>
      </trkpt>
      <trkpt lat="44.31723" lon="6.17059">
        <ele>1398</ele>
        <time>2014-10-12T14:10:35Z</time>
      </trkpt>
      <trkpt lat="44.31718" lon="6.17048">
        <ele>1399</ele>
        <time>2014-10-12T14:10:45Z</time>
      </trkpt>
      <trkpt lat="44.31712" lon="6.17035">
        <ele>1399</ele>
        <time>2014-10-12T14:10:51Z</time>
      </trkpt>
      <trkpt lat="44.31707" lon="6.17024">
        <ele>1400</ele>
        <time>2014-10-12T14:10:57Z</time>
      </trkpt>
      <trkpt lat="44.31717" lon="6.17024">
        <ele>1398</ele>
        <time>2014-10-12T14:11:05Z</time>
      </trkpt>
      <trkpt lat="44.31725" lon="6.17031">
        <ele>1397</ele>
        <time>2014-10-12T14:11:15Z</time>
      </trkpt>
      <trkpt lat="44.31733" lon="6.17039">
        <ele>1396</ele>
        <time>2014-10-12T14:11:25Z</time>
      </trkpt>
      <trkpt lat="44.31741" lon="6.17049">
        <ele>1395</ele>
        <time>2014-10-12T14:11:32Z</time>
      </trkpt>
      <trkpt lat="44.31749" lon="6.17054">
        <ele>1394</ele>
        <time>2014-10-12T14:11:39Z</time>
      </trkpt>
      <trkpt lat="44.31758" lon="6.17061">
        <ele>1379</ele>
        <time>2014-10-12T14:11:47Z</time>
      </trkpt>
      <trkpt lat="44.31765" lon="6.17072">
        <ele>1379</ele>
        <time>2014-10-12T14:11:56Z</time>
      </trkpt>
      <trkpt lat="44.31769" lon="6.17084">
        <ele>1379</ele>
        <time>2014-10-12T14:12:08Z</time>
      </trkpt>
      <trkpt lat="44.31775" lon="6.17093">
        <ele>1377</ele>
        <time>2014-10-12T14:12:19Z</time>
      </trkpt>
      <trkpt lat="44.31784" lon="6.171">
        <ele>1375</ele>
        <time>2014-10-12T14:12:26Z</time>
      </trkpt>
      <trkpt lat="44.31792" lon="6.17109">
        <ele>1373</ele>
        <time>2014-10-12T14:12:32Z</time>
      </trkpt>
      <trkpt lat="44.31802" lon="6.17112">
        <ele>1371</ele>
        <time>2014-10-12T14:12:42Z</time>
      </trkpt>
      <trkpt lat="44.31811" lon="6.17116">
        <ele>1369</ele>
        <time>2014-10-12T14:12:50Z</time>
      </trkpt>
      <trkpt lat="44.31817" lon="6.17126">
        <ele>1369</ele>
        <time>2014-10-12T14:12:59Z</time>
      </trkpt>
      <trkpt lat="44.31823" lon="6.17137">
        <ele>1367</ele>
        <time>2014-10-12T14:13:10Z</time>
      </trkpt>
      <trkpt lat="44.3183" lon="6.17146">
        <ele>1365</ele>
        <time>2014-10-12T14:13:19Z</time>
      </trkpt>
      <trkpt lat="44.31839" lon="6.17152">
        <ele>1346</ele>
        <time>2014-10-12T14:13:26Z</time>
      </trkpt>
      <trkpt lat="44.31846" lon="6.1716">
        <ele>1346</ele>
        <time>2014-10-12T14:13:33Z</time>
      </trkpt>
      <trkpt lat="44.31847" lon="6.17174">
        <ele>1339</ele>
        <time>2014-10-12T14:13:42Z</time>
      </trkpt>
      <trkpt lat="44.31846" lon="6.17188">
        <ele>1335</ele>
        <time>2014-10-12T14:13:51Z</time>
      </trkpt>
      <trkpt lat="44.31841" lon="6.17199">
        <ele>1332</ele>
        <time>2014-10-12T14:14:00Z</time>
      </trkpt>
      <trkpt lat="44.31839" lon="6.17213">
        <ele>1330</ele>
        <time>2014-10-12T14:14:12Z</time>
      </trkpt>
      <trkpt lat="44.31835" lon="6.17226">
        <ele>1330</ele>
        <time>2014-10-12T14:14:20Z</time>
      </trkpt>
      <trkpt lat="44.31831" lon="6.17237">
        <ele>1350</ele>
        <time>2014-10-12T14:14:27Z</time>
      </trkpt>
      <trkpt lat="44.31828" lon="6.17249">
        <ele>1344</ele>
        <time>2014-10-12T14:14:35Z</time>
      </trkpt>
      <trkpt lat="44.31825" lon="6.17262">
        <ele>1343</ele>
        <time>2014-10-12T14:14:41Z</time>
      </trkpt>
      <trkpt lat="44.31821" lon="6.17274">
        <ele>1344</ele>
        <time>2014-10-12T14:14:46Z</time>
      </trkpt>
      <trkpt lat="44.31818" lon="6.17287">
        <ele>1344</ele>
        <time>2014-10-12T14:14:53Z</time>
      </trkpt>
      <trkpt lat="44.31812" lon="6.17297">
        <ele>1343</ele>
        <time>2014-10-12T14:15:02Z</time>
      </trkpt>
      <trkpt lat="44.31804" lon="6.17303">
        <ele>1344</ele>
        <time>2014-10-12T14:15:09Z</time>
      </trkpt>
      <trkpt lat="44.31797" lon="6.17312">
        <ele>1345</ele>
        <time>2014-10-12T14:15:14Z</time>
      </trkpt>
      <trkpt lat="44.31791" lon="6.17323">
        <ele>1347</ele>
        <time>2014-10-12T14:15:21Z</time>
      </trkpt>
      <trkpt lat="44.31785" lon="6.17333">
        <ele>1349</ele>
        <time>2014-10-12T14:15:29Z</time>
      </trkpt>
      <trkpt lat="44.31792" lon="6.1734">
        <ele>1338</ele>
        <time>2014-10-12T14:15:42Z</time>
      </trkpt>
      <trkpt lat="44.31798" lon="6.1733">
        <ele>1342</ele>
        <time>2014-10-12T14:15:51Z</time>
      </trkpt>
      <trkpt lat="44.31808" lon="6.17324">
        <ele>1338</ele>
        <time>2014-10-12T14:16:04Z</time>
      </trkpt>
      <trkpt lat="44.31817" lon="6.17323">
        <ele>1333</ele>
        <time>2014-10-12T14:16:11Z</time>
      </trkpt>
      <trkpt lat="44.31827" lon="6.17321">
        <ele>1329</ele>
        <time>2014-10-12T14:16:17Z</time>
      </trkpt>
      <trkpt lat="44.31834" lon="6.17314">
        <ele>1307</ele>
        <time>2014-10-12T14:16:26Z</time>
      </trkpt>
      <trkpt lat="44.31844" lon="6.17311">
        <ele>1306</ele>
        <time>2014-10-12T14:16:35Z</time>
      </trkpt>
      <trkpt lat="44.31853" lon="6.17305">
        <ele>1304</ele>
        <time>2014-10-12T14:16:45Z</time>
      </trkpt>
      <trkpt lat="44.31859" lon="6.17294">
        <ele>1304</ele>
        <time>2014-10-12T14:16:54Z</time>
      </trkpt>
      <trkpt lat="44.31866" lon="6.17284">
        <ele>1303</ele>
        <time>2014-10-12T14:17:01Z</time>
      </trkpt>
      <trkpt lat="44.31874" lon="6.17277">
        <ele>1302</ele>
        <time>2014-10-12T14:17:08Z</time>
      </trkpt>
      <trkpt lat="44.31883" lon="6.17271">
        <ele>1299</ele>
        <time>2014-10-12T14:17:15Z</time>
      </trkpt>
      <trkpt lat="44.3189" lon="6.17264">
        <ele>1297</ele>
        <time>2014-10-12T14:17:24Z</time>
      </trkpt>
      <trkpt lat="44.31896" lon="6.17253">
        <ele>1295</ele>
        <time>2014-10-12T14:17:32Z</time>
      </trkpt>
      <trkpt lat="44.31901" lon="6.17242">
        <ele>1304</ele>
        <time>2014-10-12T14:17:38Z</time>
      </trkpt>
      <trkpt lat="44.31909" lon="6.17234">
        <ele>1303</ele>
        <time>2014-10-12T14:17:47Z</time>
      </trkpt>
      <trkpt lat="44.31917" lon="6.17226">
        <ele>1306</ele>
        <time>2014-10-12T14:17:54Z</time>
      </trkpt>
      <trkpt lat="44.31923" lon="6.17218">
        <ele>1278</ele>
        <time>2014-10-12T14:18:01Z</time>
      </trkpt>
      <trkpt lat="44.31928" lon="6.17207">
        <ele>1278</ele>
        <time>2014-10-12T14:18:08Z</time>
      </trkpt>
      <trkpt lat="44.31937" lon="6.17203">
        <ele>1277</ele>
        <time>2014-10-12T14:18:16Z</time>
      </trkpt>
      <trkpt lat="44.31945" lon="6.17196">
        <ele>1276</ele>
        <time>2014-10-12T14:18:24Z</time>
      </trkpt>
      <trkpt lat="44.31952" lon="6.17188">
        <ele>1274</ele>
        <time>2014-10-12T14:18:34Z</time>
      </trkpt>
      <trkpt lat="44.31958" lon="6.17177">
        <ele>1272</ele>
        <time>2014-10-12T14:18:45Z</time>
      </trkpt>
      <trkpt lat="44.31965" lon="6.17167">
        <ele>1281</ele>
        <time>2014-10-12T14:18:54Z</time>
      </trkpt>
      <trkpt lat="44.31973" lon="6.1716">
        <ele>1276</ele>
        <time>2014-10-12T14:19:01Z</time>
      </trkpt>
      <trkpt lat="44.31978" lon="6.17148">
        <ele>1276</ele>
        <time>2014-10-12T14:19:09Z</time>
      </trkpt>
      <trkpt lat="44.31985" lon="6.17156">
        <ele>1270</ele>
        <time>2014-10-12T14:19:17Z</time>
      </trkpt>
      <trkpt lat="44.31982" lon="6.1717">
        <ele>1261</ele>
        <time>2014-10-12T14:19:28Z</time>
      </trkpt>
      <trkpt lat="44.31977" lon="6.1718">
        <ele>1264</ele>
        <time>2014-10-12T14:19:37Z</time>
      </trkpt>
      <trkpt lat="44.31974" lon="6.17192">
        <ele>1266</ele>
        <time>2014-10-12T14:19:46Z</time>
      </trkpt>
      <trkpt lat="44.31969" lon="6.17205">
        <ele>1266</ele>
        <time>2014-10-12T14:19:54Z</time>
      </trkpt>
      <trkpt lat="44.31965" lon="6.17217">
        <ele>1266</ele>
        <time>2014-10-12T14:20:02Z</time>
      </trkpt>
      <trkpt lat="44.31961" lon="6.17228">
        <ele>1267</ele>
        <time>2014-10-12T14:20:08Z</time>
      </trkpt>
      <trkpt lat="44.31955" lon="6.1724">
        <ele>1268</ele>
        <time>2014-10-12T14:20:15Z</time>
      </trkpt>
      <trkpt lat="44.31954" lon="6.17254">
        <ele>1255</ele>
        <time>2014-10-12T14:20:22Z</time>
      </trkpt>
      <trkpt lat="44.31953" lon="6.17267">
        <ele>1254</ele>
        <time>2014-10-12T14:20:30Z</time>
      </trkpt>
      <trkpt lat="44.3195" lon="6.1728">
        <ele>1253</ele>
        <time>2014-10-12T14:20:39Z</time>
      </trkpt>
      <trkpt lat="44.31948" lon="6.17293">
        <ele>1251</ele>
        <time>2014-10-12T14:20:48Z</time>
      </trkpt>
      <trkpt lat="44.31948" lon="6.17307">
        <ele>1249</ele>
        <time>2014-10-12T14:20:58Z</time>
      </trkpt>
      <trkpt lat="44.31945" lon="6.17319">
        <ele>1250</ele>
        <time>2014-10-12T14:21:06Z</time>
      </trkpt>
      <trkpt lat="44.3194" lon="6.17331">
        <ele>1251</ele>
        <time>2014-10-12T14:21:14Z</time>
      </trkpt>
      <trkpt lat="44.31936" lon="6.17343">
        <ele>1245</ele>
        <time>2014-10-12T14:21:21Z</time>
      </trkpt>
      <trkpt lat="44.31935" lon="6.17356">
        <ele>1243</ele>
        <time>2014-10-12T14:21:30Z</time>
      </trkpt>
      <trkpt lat="44.31927" lon="6.17364">
        <ele>1243</ele>
        <time>2014-10-12T14:21:38Z</time>
      </trkpt>
      <trkpt lat="44.31921" lon="6.17373">
        <ele>1243</ele>
        <time>2014-10-12T14:21:43Z</time>
      </trkpt>
      <trkpt lat="44.31929" lon="6.17378">
        <ele>1241</ele>
        <time>2014-10-12T14:22:03Z</time>
      </trkpt>
      <trkpt lat="44.31937" lon="6.17369">
        <ele>1240</ele>
        <time>2014-10-12T14:22:15Z</time>
      </trkpt>
      <trkpt lat="44.31945" lon="6.17363">
        <ele>1239</ele>
        <time>2014-10-12T14:22:24Z</time>
      </trkpt>
      <trkpt lat="44.31953" lon="6.17356">
        <ele>1237</ele>
        <time>2014-10-12T14:22:30Z</time>
      </trkpt>
      <trkpt lat="44.31961" lon="6.1735">
        <ele>1234</ele>
        <time>2014-10-12T14:22:36Z</time>
      </trkpt>
      <trkpt lat="44.3197" lon="6.17345">
        <ele>1231</ele>
        <time>2014-10-12T14:22:44Z</time>
      </trkpt>
      <trkpt lat="44.31978" lon="6.17337">
        <ele>1227</ele>
        <time>2014-10-12T14:22:54Z</time>
      </trkpt>
      <trkpt lat="44.31986" lon="6.1733">
        <ele>1228</ele>
        <time>2014-10-12T14:23:03Z</time>
      </trkpt>
      <trkpt lat="44.31995" lon="6.17324">
        <ele>1225</ele>
        <time>2014-10-12T14:23:11Z</time>
      </trkpt>
      <trkpt lat="44.32002" lon="6.17314">
        <ele>1206</ele>
        <time>2014-10-12T14:23:19Z</time>
      </trkpt>
      <trkpt lat="44.32008" lon="6.17304">
        <ele>1205</ele>
        <time>2014-10-12T14:23:28Z</time>
      </trkpt>
      <trkpt lat="44.32014" lon="6.17293">
        <ele>1205</ele>
        <time>2014-10-12T14:23:34Z</time>
      </trkpt>
      <trkpt lat="44.3202" lon="6.17283">
        <ele>1205</ele>
        <time>2014-10-12T14:23:41Z</time>
      </trkpt>
      <trkpt lat="44.32025" lon="6.17272">
        <ele>1206</ele>
        <time>2014-10-12T14:23:48Z</time>
      </trkpt>
      <trkpt lat="44.32031" lon="6.17261">
        <ele>1205</ele>
        <time>2014-10-12T14:23:56Z</time>
      </trkpt>
      <trkpt lat="44.3204" lon="6.17255">
        <ele>1201</ele>
        <time>2014-10-12T14:24:04Z</time>
      </trkpt>
      <trkpt lat="44.32048" lon="6.17245">
        <ele>1206</ele>
        <time>2014-10-12T14:24:12Z</time>
      </trkpt>
      <trkpt lat="44.32052" lon="6.17234">
        <ele>1205</ele>
        <time>2014-10-12T14:24:20Z</time>
      </trkpt>
      <trkpt lat="44.32058" lon="6.17225">
        <ele>1204</ele>
        <time>2014-10-12T14:24:28Z</time>
      </trkpt>
      <trkpt lat="44.32067" lon="6.17218">
        <ele>1202</ele>
        <time>2014-10-12T14:24:35Z</time>
      </trkpt>
      <trkpt lat="44.32074" lon="6.1721">
        <ele>1201</ele>
        <time>2014-10-12T14:24:43Z</time>
      </trkpt>
      <trkpt lat="44.3208" lon="6.17199">
        <ele>1200</ele>
        <time>2014-10-12T14:24:51Z</time>
      </trkpt>
      <trkpt lat="44.32088" lon="6.17194">
        <ele>1169</ele>
        <time>2014-10-12T14:24:58Z</time>
      </trkpt>
      <trkpt lat="44.32089" lon="6.17181">
        <ele>1174</ele>
        <time>2014-10-12T14:25:04Z</time>
      </trkpt>
      <trkpt lat="44.32085" lon="6.17169">
        <ele>1182</ele>
        <time>2014-10-12T14:25:09Z</time>
      </trkpt>
      <trkpt lat="44.32093" lon="6.17176">
        <ele>1174</ele>
        <time>2014-10-12T14:25:23Z</time>
      </trkpt>
      <trkpt lat="44.321" lon="6.17184">
        <ele>1169</ele>
        <time>2014-10-12T14:25:33Z</time>
      </trkpt>
      <trkpt lat="44.32098" lon="6.17198">
        <ele>1167</ele>
        <time>2014-10-12T14:25:47Z</time>
      </trkpt>
      <trkpt lat="44.32106" lon="6.17203">
        <ele>1164</ele>
        <time>2014-10-12T14:26:07Z</time>
      </trkpt>
      <trkpt lat="44.32116" lon="6.17202">
        <ele>1162</ele>
        <time>2014-10-12T14:26:17Z</time>
      </trkpt>
      <trkpt lat="44.32125" lon="6.17198">
        <ele>1160</ele>
        <time>2014-10-12T14:26:34Z</time>
      </trkpt>
      <trkpt lat="44.32132" lon="6.17209">
        <ele>1158</ele>
        <time>2014-10-12T14:26:51Z</time>
      </trkpt>
      <trkpt lat="44.32135" lon="6.17215">
        <ele>1156</ele>
        <time>2014-10-12T14:39:19Z</time>
      </trkpt>
      <trkpt lat="44.32138" lon="6.17224">
        <ele>1155</ele>
        <time>2014-10-12T14:39:20Z</time>
      </trkpt>
      <trkpt lat="44.32139" lon="6.17232">
        <ele>1154</ele>
        <time>2014-10-12T14:40:17Z</time>
      </trkpt>
      <trkpt lat="44.32148" lon="6.17229">
        <ele>1151</ele>
        <time>2014-10-12T14:40:23Z</time>
      </trkpt>
      <trkpt lat="44.32157" lon="6.17224">
        <ele>1150</ele>
        <time>2014-10-12T14:40:30Z</time>
      </trkpt>
      <trkpt lat="44.32165" lon="6.17217">
        <ele>1150</ele>
        <time>2014-10-12T14:40:38Z</time>
      </trkpt>
      <trkpt lat="44.32172" lon="6.17207">
        <ele>1129</ele>
        <time>2014-10-12T14:40:48Z</time>
      </trkpt>
      <trkpt lat="44.32178" lon="6.17197">
        <ele>1129</ele>
        <time>2014-10-12T14:40:56Z</time>
      </trkpt>
      <trkpt lat="44.32185" lon="6.17186">
        <ele>1130</ele>
        <time>2014-10-12T14:41:03Z</time>
      </trkpt>
      <trkpt lat="44.3219" lon="6.17175">
        <ele>1130</ele>
        <time>2014-10-12T14:41:10Z</time>
      </trkpt>
      <trkpt lat="44.32186" lon="6.17162">
        <ele>1130</ele>
        <time>2014-10-12T14:41:18Z</time>
      </trkpt>
      <trkpt lat="44.32192" lon="6.17152">
        <ele>1126</ele>
        <time>2014-10-12T14:41:30Z</time>
      </trkpt>
      <trkpt lat="44.32202" lon="6.1715">
        <ele>1123</ele>
        <time>2014-10-12T14:41:37Z</time>
      </trkpt>
      <trkpt lat="44.32212" lon="6.17147">
        <ele>1120</ele>
        <time>2014-10-12T14:41:44Z</time>
      </trkpt>
      <trkpt lat="44.32222" lon="6.17148">
        <ele>1118</ele>
        <time>2014-10-12T14:41:50Z</time>
      </trkpt>
      <trkpt lat="44.32221" lon="6.17161">
        <ele>1118</ele>
        <time>2014-10-12T14:41:59Z</time>
      </trkpt>
      <trkpt lat="44.32218" lon="6.17174">
        <ele>1122</ele>
        <time>2014-10-12T14:42:06Z</time>
      </trkpt>
      <trkpt lat="44.32214" lon="6.17186">
        <ele>1123</ele>
        <time>2014-10-12T14:42:13Z</time>
      </trkpt>
      <trkpt lat="44.3221" lon="6.17198">
        <ele>1123</ele>
        <time>2014-10-12T14:42:20Z</time>
      </trkpt>
      <trkpt lat="44.32208" lon="6.1721">
        <ele>1123</ele>
        <time>2014-10-12T14:42:27Z</time>
      </trkpt>
      <trkpt lat="44.32205" lon="6.17224">
        <ele>1123</ele>
        <time>2014-10-12T14:42:35Z</time>
      </trkpt>
      <trkpt lat="44.32199" lon="6.17234">
        <ele>1124</ele>
        <time>2014-10-12T14:42:41Z</time>
      </trkpt>
      <trkpt lat="44.32195" lon="6.17246">
        <ele>1125</ele>
        <time>2014-10-12T14:42:47Z</time>
      </trkpt>
      <trkpt lat="44.3219" lon="6.17257">
        <ele>1124</ele>
        <time>2014-10-12T14:42:59Z</time>
      </trkpt>
      <trkpt lat="44.32183" lon="6.17268">
        <ele>1124</ele>
        <time>2014-10-12T14:43:05Z</time>
      </trkpt>
      <trkpt lat="44.32174" lon="6.17269">
        <ele>1125</ele>
        <time>2014-10-12T14:43:36Z</time>
      </trkpt>
      <trkpt lat="44.32169" lon="6.1728">
        <ele>1124</ele>
        <time>2014-10-12T14:43:42Z</time>
      </trkpt>
      <trkpt lat="44.32166" lon="6.17294">
        <ele>1143</ele>
        <time>2014-10-12T14:43:49Z</time>
      </trkpt>
      <trkpt lat="44.32164" lon="6.17307">
        <ele>1141</ele>
        <time>2014-10-12T14:43:54Z</time>
      </trkpt>
      <trkpt lat="44.32174" lon="6.17306">
        <ele>1122</ele>
        <time>2014-10-12T14:44:06Z</time>
      </trkpt>
      <trkpt lat="44.32181" lon="6.17297">
        <ele>1122</ele>
        <time>2014-10-12T14:44:14Z</time>
      </trkpt>
      <trkpt lat="44.32192" lon="6.17292">
        <ele>1121</ele>
        <time>2014-10-12T14:44:19Z</time>
      </trkpt>
      <trkpt lat="44.32201" lon="6.17286">
        <ele>1119</ele>
        <time>2014-10-12T14:44:23Z</time>
      </trkpt>
      <trkpt lat="44.3221" lon="6.17281">
        <ele>1118</ele>
        <time>2014-10-12T14:44:28Z</time>
      </trkpt>
      <trkpt lat="44.32218" lon="6.17274">
        <ele>1116</ele>
        <time>2014-10-12T14:44:35Z</time>
      </trkpt>
      <trkpt lat="44.32225" lon="6.17265">
        <ele>1115</ele>
        <time>2014-10-12T14:44:42Z</time>
      </trkpt>
      <trkpt lat="44.32233" lon="6.17257">
        <ele>1112</ele>
        <time>2014-10-12T14:44:49Z</time>
      </trkpt>
      <trkpt lat="44.32239" lon="6.17247">
        <ele>1111</ele>
        <time>2014-10-12T14:44:58Z</time>
      </trkpt>
      <trkpt lat="44.32244" lon="6.17235">
        <ele>1113</ele>
        <time>2014-10-12T14:45:08Z</time>
      </trkpt>
      <trkpt lat="44.3225" lon="6.17225">
        <ele>1115</ele>
        <time>2014-10-12T14:45:18Z</time>
      </trkpt>
      <trkpt lat="44.32258" lon="6.17218">
        <ele>1096</ele>
        <time>2014-10-12T14:45:26Z</time>
      </trkpt>
      <trkpt lat="44.32264" lon="6.17208">
        <ele>1095</ele>
        <time>2014-10-12T14:45:35Z</time>
      </trkpt>
      <trkpt lat="44.32271" lon="6.17199">
        <ele>1095</ele>
        <time>2014-10-12T14:45:52Z</time>
      </trkpt>
      <trkpt lat="44.32275" lon="6.17187">
        <ele>1095</ele>
        <time>2014-10-12T14:46:00Z</time>
      </trkpt>
      <trkpt lat="44.32281" lon="6.17175">
        <ele>1094</ele>
        <time>2014-10-12T14:46:07Z</time>
      </trkpt>
      <trkpt lat="44.32289" lon="6.17168">
        <ele>1091</ele>
        <time>2014-10-12T14:46:12Z</time>
      </trkpt>
      <trkpt lat="44.32296" lon="6.1716">
        <ele>1085</ele>
        <time>2014-10-12T14:46:24Z</time>
      </trkpt>
      <trkpt lat="44.32304" lon="6.17152">
        <ele>1082</ele>
        <time>2014-10-12T14:46:32Z</time>
      </trkpt>
      <trkpt lat="44.32313" lon="6.17153">
        <ele>1079</ele>
        <time>2014-10-12T14:46:38Z</time>
      </trkpt>
      <trkpt lat="44.32324" lon="6.17155">
        <ele>1076</ele>
        <time>2014-10-12T14:46:45Z</time>
      </trkpt>
      <trkpt lat="44.32321" lon="6.17167">
        <ele>1077</ele>
        <time>2014-10-12T14:47:02Z</time>
      </trkpt>
      <trkpt lat="44.3233" lon="6.17169">
        <ele>1071</ele>
        <time>2014-10-12T14:47:13Z</time>
      </trkpt>
      <trkpt lat="44.3234" lon="6.17169">
        <ele>1066</ele>
        <time>2014-10-12T14:47:20Z</time>
      </trkpt>
      <trkpt lat="44.32349" lon="6.17167">
        <ele>1065</ele>
        <time>2014-10-12T14:47:27Z</time>
      </trkpt>
      <trkpt lat="44.32358" lon="6.17167">
        <ele>1060</ele>
        <time>2014-10-12T14:47:32Z</time>
      </trkpt>
      <trkpt lat="44.32368" lon="6.17168">
        <ele>1061</ele>
        <time>2014-10-12T14:47:40Z</time>
      </trkpt>
      <trkpt lat="44.32377" lon="6.17165">
        <ele>1056</ele>
        <time>2014-10-12T14:47:49Z</time>
      </trkpt>
      <trkpt lat="44.32388" lon="6.17165">
        <ele>1053</ele>
        <time>2014-10-12T14:47:57Z</time>
      </trkpt>
      <trkpt lat="44.32398" lon="6.17167">
        <ele>1054</ele>
        <time>2014-10-12T14:48:04Z</time>
      </trkpt>
      <trkpt lat="44.32407" lon="6.17169">
        <ele>1050</ele>
        <time>2014-10-12T14:48:12Z</time>
      </trkpt>
      <trkpt lat="44.32416" lon="6.17167">
        <ele>1045</ele>
        <time>2014-10-12T14:48:19Z</time>
      </trkpt>
      <trkpt lat="44.32425" lon="6.17161">
        <ele>1043</ele>
        <time>2014-10-12T14:48:26Z</time>
      </trkpt>
      <trkpt lat="44.32434" lon="6.17163">
        <ele>1042</ele>
        <time>2014-10-12T14:48:34Z</time>
      </trkpt>
      <trkpt lat="44.32442" lon="6.17171">
        <ele>1041</ele>
        <time>2014-10-12T14:48:42Z</time>
      </trkpt>
      <trkpt lat="44.3245" lon="6.17161">
        <ele>1040</ele>
        <time>2014-10-12T14:48:51Z</time>
      </trkpt>
      <trkpt lat="44.32458" lon="6.17166">
        <ele>1039</ele>
        <time>2014-10-12T14:49:15Z</time>
      </trkpt>
      <trkpt lat="44.32467" lon="6.1716">
        <ele>1037</ele>
        <time>2014-10-12T14:49:46Z</time>
      </trkpt>
      <trkpt lat="44.32476" lon="6.17158">
        <ele>1036</ele>
        <time>2014-10-12T14:49:51Z</time>
      </trkpt>
      <trkpt lat="44.32486" lon="6.17163">
        <ele>1033</ele>
        <time>2014-10-12T14:49:58Z</time>
      </trkpt>
      <trkpt lat="44.32493" lon="6.17172">
        <ele>1030</ele>
        <time>2014-10-12T14:50:05Z</time>
      </trkpt>
      <trkpt lat="44.32497" lon="6.17183">
        <ele>1033</ele>
        <time>2014-10-12T14:50:12Z</time>
      </trkpt>
      <trkpt lat="44.32506" lon="6.17187">
        <ele>1023</ele>
        <time>2014-10-12T14:50:21Z</time>
      </trkpt>
      <trkpt lat="44.32515" lon="6.17185">
        <ele>1022</ele>
        <time>2014-10-12T14:50:29Z</time>
      </trkpt>
      <trkpt lat="44.32525" lon="6.17179">
        <ele>1021</ele>
        <time>2014-10-12T14:50:36Z</time>
      </trkpt>
      <trkpt lat="44.32534" lon="6.17184">
        <ele>1020</ele>
        <time>2014-10-12T14:50:44Z</time>
      </trkpt>
      <trkpt lat="44.32543" lon="6.17189">
        <ele>1019</ele>
        <time>2014-10-12T14:50:51Z</time>
      </trkpt>
      <trkpt lat="44.32551" lon="6.17185">
        <ele>1018</ele>
        <time>2014-10-12T14:50:58Z</time>
      </trkpt>
      <trkpt lat="44.32561" lon="6.17183">
        <ele>1017</ele>
        <time>2014-10-12T14:51:03Z</time>
      </trkpt>
      <trkpt lat="44.32571" lon="6.17183">
        <ele>1015</ele>
        <time>2014-10-12T14:51:08Z</time>
      </trkpt>
      <trkpt lat="44.3258" lon="6.17187">
        <ele>1015</ele>
        <time>2014-10-12T14:51:16Z</time>
      </trkpt>
      <trkpt lat="44.3259" lon="6.17186">
        <ele>1005</ele>
        <time>2014-10-12T14:51:21Z</time>
      </trkpt>
      <trkpt lat="44.32601" lon="6.17186">
        <ele>1004</ele>
        <time>2014-10-12T14:51:26Z</time>
      </trkpt>
      <trkpt lat="44.3261" lon="6.17185">
        <ele>1003</ele>
        <time>2014-10-12T14:51:31Z</time>
      </trkpt>
      <trkpt lat="44.32618" lon="6.17179">
        <ele>1002</ele>
        <time>2014-10-12T14:51:38Z</time>
      </trkpt>
      <trkpt lat="44.32627" lon="6.1718">
        <ele>1001</ele>
        <time>2014-10-12T14:51:50Z</time>
      </trkpt>
      <trkpt lat="44.32636" lon="6.17186">
        <ele>1000</ele>
        <time>2014-10-12T14:51:55Z</time>
      </trkpt>
      <trkpt lat="44.32647" lon="6.17189">
        <ele>998</ele>
        <time>2014-10-12T14:52:00Z</time>
      </trkpt>
      <trkpt lat="44.32657" lon="6.17191">
        <ele>997</ele>
        <time>2014-10-12T14:52:05Z</time>
      </trkpt>
      <trkpt lat="44.32667" lon="6.17191">
        <ele>997</ele>
        <time>2014-10-12T14:52:10Z</time>
      </trkpt>
      <trkpt lat="44.32675" lon="6.17196">
        <ele>988</ele>
        <time>2014-10-12T14:52:18Z</time>
      </trkpt>
      <trkpt lat="44.32686" lon="6.17194">
        <ele>988</ele>
        <time>2014-10-12T14:52:24Z</time>
      </trkpt>
      <trkpt lat="44.32696" lon="6.17192">
        <ele>987</ele>
        <time>2014-10-12T14:52:30Z</time>
      </trkpt>
      <trkpt lat="44.32705" lon="6.17193">
        <ele>986</ele>
        <time>2014-10-12T14:52:37Z</time>
      </trkpt>
      <trkpt lat="44.32714" lon="6.17188">
        <ele>985</ele>
        <time>2014-10-12T14:52:43Z</time>
      </trkpt>
      <trkpt lat="44.32724" lon="6.17184">
        <ele>984</ele>
        <time>2014-10-12T14:52:50Z</time>
      </trkpt>
      <trkpt lat="44.32733" lon="6.1718">
        <ele>983</ele>
        <time>2014-10-12T14:52:56Z</time>
      </trkpt>
      <trkpt lat="44.32741" lon="6.17185">
        <ele>983</ele>
        <time>2014-10-12T14:53:03Z</time>
      </trkpt>
      <trkpt lat="44.32751" lon="6.17186">
        <ele>977</ele>
        <time>2014-10-12T14:53:07Z</time>
      </trkpt>
      <trkpt lat="44.32761" lon="6.1719">
        <ele>976</ele>
        <time>2014-10-12T14:53:12Z</time>
      </trkpt>
      <trkpt lat="44.32769" lon="6.17194">
        <ele>975</ele>
        <time>2014-10-12T14:53:20Z</time>
      </trkpt>
      <trkpt lat="44.32778" lon="6.17195">
        <ele>974</ele>
        <time>2014-10-12T14:53:26Z</time>
      </trkpt>
      <trkpt lat="44.32788" lon="6.17197">
        <ele>973</ele>
        <time>2014-10-12T14:53:33Z</time>
      </trkpt>
      <trkpt lat="44.32797" lon="6.17197">
        <ele>973</ele>
        <time>2014-10-12T14:53:40Z</time>
      </trkpt>
      <trkpt lat="44.32806" lon="6.17199">
        <ele>972</ele>
        <time>2014-10-12T14:53:47Z</time>
      </trkpt>
      <trkpt lat="44.32815" lon="6.17205">
        <ele>971</ele>
        <time>2014-10-12T14:54:05Z</time>
      </trkpt>
      <trkpt lat="44.32825" lon="6.17203">
        <ele>971</ele>
        <time>2014-10-12T14:54:11Z</time>
      </trkpt>
      <trkpt lat="44.32834" lon="6.17197">
        <ele>963</ele>
        <time>2014-10-12T14:54:17Z</time>
      </trkpt>
      <trkpt lat="44.32842" lon="6.17188">
        <ele>963</ele>
        <time>2014-10-12T14:54:24Z</time>
      </trkpt>
      <trkpt lat="44.3285" lon="6.17179">
        <ele>963</ele>
        <time>2014-10-12T14:54:32Z</time>
      </trkpt>
      <trkpt lat="44.32858" lon="6.17171">
        <ele>962</ele>
        <time>2014-10-12T14:54:40Z</time>
      </trkpt>
      <trkpt lat="44.32867" lon="6.17166">
        <ele>961</ele>
        <time>2014-10-12T14:54:47Z</time>
      </trkpt>
      <trkpt lat="44.32876" lon="6.1716">
        <ele>960</ele>
        <time>2014-10-12T14:54:56Z</time>
      </trkpt>
      <trkpt lat="44.32885" lon="6.17154">
        <ele>959</ele>
        <time>2014-10-12T14:55:03Z</time>
      </trkpt>
      <trkpt lat="44.32892" lon="6.17146">
        <ele>959</ele>
        <time>2014-10-12T14:55:09Z</time>
      </trkpt>
      <trkpt lat="44.329" lon="6.17138">
        <ele>958</ele>
        <time>2014-10-12T14:55:14Z</time>
      </trkpt>
      <trkpt lat="44.32907" lon="6.1713">
        <ele>958</ele>
        <time>2014-10-12T14:55:19Z</time>
      </trkpt>
      <trkpt lat="44.32915" lon="6.17124">
        <ele>957</ele>
        <time>2014-10-12T14:55:24Z</time>
      </trkpt>
      <trkpt lat="44.32924" lon="6.1712">
        <ele>949</ele>
        <time>2014-10-12T14:55:32Z</time>
      </trkpt>
      <trkpt lat="44.32934" lon="6.17119">
        <ele>948</ele>
        <time>2014-10-12T14:55:42Z</time>
      </trkpt>
      <trkpt lat="44.32943" lon="6.17115">
        <ele>948</ele>
        <time>2014-10-12T14:55:53Z</time>
      </trkpt>
      <trkpt lat="44.32951" lon="6.17107">
        <ele>947</ele>
        <time>2014-10-12T14:56:01Z</time>
      </trkpt>
      <trkpt lat="44.32958" lon="6.17099">
        <ele>947</ele>
        <time>2014-10-12T14:56:09Z</time>
      </trkpt>
      <trkpt lat="44.32967" lon="6.17092">
        <ele>946</ele>
        <time>2014-10-12T14:56:19Z</time>
      </trkpt>
      <trkpt lat="44.32976" lon="6.17089">
        <ele>945</ele>
        <time>2014-10-12T14:56:24Z</time>
      </trkpt>
      <trkpt lat="44.32985" lon="6.17084">
        <ele>944</ele>
        <time>2014-10-12T14:56:43Z</time>
      </trkpt>
      <trkpt lat="44.32991" lon="6.17074">
        <ele>946</ele>
        <time>2014-10-12T14:56:57Z</time>
      </trkpt>
      <trkpt lat="44.33001" lon="6.17072">
        <ele>941</ele>
        <time>2014-10-12T14:57:04Z</time>
      </trkpt>
      <trkpt lat="44.3301" lon="6.17067">
        <ele>941</ele>
        <time>2014-10-12T14:57:12Z</time>
      </trkpt>
      <trkpt lat="44.33019" lon="6.17062">
        <ele>941</ele>
        <time>2014-10-12T14:57:19Z</time>
      </trkpt>
      <trkpt lat="44.33025" lon="6.17053">
        <ele>941</ele>
        <time>2014-10-12T14:57:28Z</time>
      </trkpt>
      <trkpt lat="44.33036" lon="6.17052">
        <ele>940</ele>
        <time>2014-10-12T14:57:36Z</time>
      </trkpt>
      <trkpt lat="44.33045" lon="6.17048">
        <ele>940</ele>
        <time>2014-10-12T14:57:47Z</time>
      </trkpt>
      <trkpt lat="44.33054" lon="6.17049">
        <ele>939</ele>
        <time>2014-10-12T14:57:54Z</time>
      </trkpt>
      <trkpt lat="44.33064" lon="6.17052">
        <ele>938</ele>
        <time>2014-10-12T14:58:07Z</time>
      </trkpt>
      <trkpt lat="44.33073" lon="6.17053">
        <ele>937</ele>
        <time>2014-10-12T14:58:14Z</time>
      </trkpt>
      <trkpt lat="44.33082" lon="6.17049">
        <ele>937</ele>
        <time>2014-10-12T14:58:18Z</time>
      </trkpt>
      <trkpt lat="44.33092" lon="6.17046">
        <ele>928</ele>
        <time>2014-10-12T14:58:24Z</time>
      </trkpt>
      <trkpt lat="44.33102" lon="6.17045">
        <ele>928</ele>
        <time>2014-10-12T14:58:29Z</time>
      </trkpt>
      <trkpt lat="44.33111" lon="6.17041">
        <ele>927</ele>
        <time>2014-10-12T14:58:35Z</time>
      </trkpt>
      <trkpt lat="44.33121" lon="6.17041">
        <ele>927</ele>
        <time>2014-10-12T14:58:41Z</time>
      </trkpt>
      <trkpt lat="44.33131" lon="6.17039">
        <ele>926</ele>
        <time>2014-10-12T14:58:47Z</time>
      </trkpt>
      <trkpt lat="44.33141" lon="6.17037">
        <ele>925</ele>
        <time>2014-10-12T14:58:52Z</time>
      </trkpt>
      <trkpt lat="44.33151" lon="6.17037">
        <ele>924</ele>
        <time>2014-10-12T14:59:00Z</time>
      </trkpt>
      <trkpt lat="44.33161" lon="6.17031">
        <ele>924</ele>
        <time>2014-10-12T14:59:06Z</time>
      </trkpt>
      <trkpt lat="44.33171" lon="6.17029">
        <ele>917</ele>
        <time>2014-10-12T14:59:14Z</time>
      </trkpt>
      <trkpt lat="44.33179" lon="6.17022">
        <ele>917</ele>
        <time>2014-10-12T14:59:24Z</time>
      </trkpt>
      <trkpt lat="44.33186" lon="6.17013">
        <ele>917</ele>
        <time>2014-10-12T14:59:41Z</time>
      </trkpt>
      <trkpt lat="44.33195" lon="6.17011">
        <ele>916</ele>
        <time>2014-10-12T14:59:49Z</time>
      </trkpt>
      <trkpt lat="44.33206" lon="6.17007">
        <ele>915</ele>
        <time>2014-10-12T14:59:56Z</time>
      </trkpt>
      <trkpt lat="44.33215" lon="6.17004">
        <ele>915</ele>
        <time>2014-10-12T15:00:05Z</time>
      </trkpt>
      <trkpt lat="44.33224" lon="6.16998">
        <ele>917</ele>
        <time>2014-10-12T15:00:14Z</time>
      </trkpt>
      <trkpt lat="44.33233" lon="6.16999">
        <ele>916</ele>
        <time>2014-10-12T15:00:20Z</time>
      </trkpt>
      <trkpt lat="44.33243" lon="6.17004">
        <ele>912</ele>
        <time>2014-10-12T15:00:26Z</time>
      </trkpt>
      <trkpt lat="44.33248" lon="6.17015">
        <ele>913</ele>
        <time>2014-10-12T15:00:35Z</time>
      </trkpt>
      <trkpt lat="44.33257" lon="6.1701">
        <ele>909</ele>
        <time>2014-10-12T15:00:41Z</time>
      </trkpt>
      <trkpt lat="44.33266" lon="6.17011">
        <ele>909</ele>
        <time>2014-10-12T15:00:46Z</time>
      </trkpt>
      <trkpt lat="44.33277" lon="6.17013">
        <ele>908</ele>
        <time>2014-10-12T15:00:51Z</time>
      </trkpt>
      <trkpt lat="44.33287" lon="6.17014">
        <ele>908</ele>
        <time>2014-10-12T15:00:56Z</time>
      </trkpt>
      <trkpt lat="44.33296" lon="6.1701">
        <ele>907</ele>
        <time>2014-10-12T15:01:01Z</time>
      </trkpt>
      <trkpt lat="44.33306" lon="6.17009">
        <ele>906</ele>
        <time>2014-10-12T15:01:07Z</time>
      </trkpt>
      <trkpt lat="44.33316" lon="6.17006">
        <ele>905</ele>
        <time>2014-10-12T15:01:15Z</time>
      </trkpt>
      <trkpt lat="44.33325" lon="6.17005">
        <ele>904</ele>
        <time>2014-10-12T15:01:21Z</time>
      </trkpt>
      <trkpt lat="44.33334" lon="6.17002">
        <ele>902</ele>
        <time>2014-10-12T15:01:26Z</time>
      </trkpt>
      <trkpt lat="44.33343" lon="6.17009">
        <ele>901</ele>
        <time>2014-10-12T15:01:31Z</time>
      </trkpt>
      <trkpt lat="44.33351" lon="6.17014">
        <ele>900</ele>
        <time>2014-10-12T15:01:36Z</time>
      </trkpt>
      <trkpt lat="44.3336" lon="6.17018">
        <ele>900</ele>
        <time>2014-10-12T15:01:43Z</time>
      </trkpt>
      <trkpt lat="44.3337" lon="6.17021">
        <ele>899</ele>
        <time>2014-10-12T15:01:51Z</time>
      </trkpt>
      <trkpt lat="44.3338" lon="6.17021">
        <ele>898</ele>
        <time>2014-10-12T15:01:56Z</time>
      </trkpt>
      <trkpt lat="44.33389" lon="6.1702">
        <ele>898</ele>
        <time>2014-10-12T15:02:02Z</time>
      </trkpt>
      <trkpt lat="44.33398" lon="6.17013">
        <ele>896</ele>
        <time>2014-10-12T15:02:11Z</time>
      </trkpt>
      <trkpt lat="44.33407" lon="6.1701">
        <ele>895</ele>
        <time>2014-10-12T15:02:17Z</time>
      </trkpt>
      <trkpt lat="44.33415" lon="6.17007">
        <ele>894</ele>
        <time>2014-10-12T15:02:24Z</time>
      </trkpt>
      <trkpt lat="44.33424" lon="6.17007">
        <ele>892</ele>
        <time>2014-10-12T15:02:29Z</time>
      </trkpt>
      <trkpt lat="44.33434" lon="6.17009">
        <ele>892</ele>
        <time>2014-10-12T15:02:36Z</time>
      </trkpt>
      <trkpt lat="44.33444" lon="6.17013">
        <ele>892</ele>
        <time>2014-10-12T15:02:43Z</time>
      </trkpt>
      <trkpt lat="44.33452" lon="6.17019">
        <ele>891</ele>
        <time>2014-10-12T15:02:49Z</time>
      </trkpt>
      <trkpt lat="44.3346" lon="6.17025">
        <ele>891</ele>
        <time>2014-10-12T15:02:56Z</time>
      </trkpt>
      <trkpt lat="44.3347" lon="6.17026">
        <ele>891</ele>
        <time>2014-10-12T15:03:10Z</time>
      </trkpt>
      <trkpt lat="44.3348" lon="6.17026">
        <ele>890</ele>
        <time>2014-10-12T15:03:19Z</time>
      </trkpt>
      <trkpt lat="44.3349" lon="6.17026">
        <ele>890</ele>
        <time>2014-10-12T15:03:25Z</time>
      </trkpt>
      <trkpt lat="44.33497" lon="6.17035">
        <ele>890</ele>
        <time>2014-10-12T15:03:31Z</time>
      </trkpt>
      <trkpt lat="44.33505" lon="6.1704">
        <ele>887</ele>
        <time>2014-10-12T15:03:38Z</time>
      </trkpt>
      <trkpt lat="44.33515" lon="6.1704">
        <ele>887</ele>
        <time>2014-10-12T15:03:44Z</time>
      </trkpt>
      <trkpt lat="44.33525" lon="6.17037">
        <ele>886</ele>
        <time>2014-10-12T15:03:50Z</time>
      </trkpt>
      <trkpt lat="44.33534" lon="6.17032">
        <ele>886</ele>
        <time>2014-10-12T15:03:55Z</time>
      </trkpt>
      <trkpt lat="44.33543" lon="6.17031">
        <ele>886</ele>
        <time>2014-10-12T15:04:00Z</time>
      </trkpt>
      <trkpt lat="44.33552" lon="6.17028">
        <ele>885</ele>
        <time>2014-10-12T15:04:06Z</time>
      </trkpt>
      <trkpt lat="44.3356" lon="6.1702">
        <ele>885</ele>
        <time>2014-10-12T15:04:18Z</time>
      </trkpt>
      <trkpt lat="44.33567" lon="6.17012">
        <ele>884</ele>
        <time>2014-10-12T15:04:26Z</time>
      </trkpt>
      <trkpt lat="44.33573" lon="6.17001">
        <ele>883</ele>
        <time>2014-10-12T15:04:35Z</time>
      </trkpt>
      <trkpt lat="44.33581" lon="6.16995">
        <ele>881</ele>
        <time>2014-10-12T15:04:40Z</time>
      </trkpt>
      <trkpt lat="44.3359" lon="6.16992">
        <ele>880</ele>
        <time>2014-10-12T15:04:46Z</time>
      </trkpt>
      <trkpt lat="44.336" lon="6.16991">
        <ele>879</ele>
        <time>2014-10-12T15:04:52Z</time>
      </trkpt>
      <trkpt lat="44.33608" lon="6.16988">
        <ele>879</ele>
        <time>2014-10-12T15:04:58Z</time>
      </trkpt>
      <trkpt lat="44.33612" lon="6.16976">
        <ele>878</ele>
        <time>2014-10-12T15:05:04Z</time>
      </trkpt>
      <trkpt lat="44.3362" lon="6.1697">
        <ele>878</ele>
        <time>2014-10-12T15:05:08Z</time>
      </trkpt>
      <trkpt lat="44.33627" lon="6.1696">
        <ele>878</ele>
        <time>2014-10-12T15:05:14Z</time>
      </trkpt>
      <trkpt lat="44.33637" lon="6.16956">
        <ele>877</ele>
        <time>2014-10-12T15:05:22Z</time>
      </trkpt>
      <trkpt lat="44.33648" lon="6.16956">
        <ele>877</ele>
        <time>2014-10-12T15:05:27Z</time>
      </trkpt>
      <trkpt lat="44.33658" lon="6.16953">
        <ele>877</ele>
        <time>2014-10-12T15:05:33Z</time>
      </trkpt>
      <trkpt lat="44.33668" lon="6.16952">
        <ele>874</ele>
        <time>2014-10-12T15:05:40Z</time>
      </trkpt>
      <trkpt lat="44.33677" lon="6.16957">
        <ele>874</ele>
        <time>2014-10-12T15:05:53Z</time>
      </trkpt>
      <trkpt lat="44.33687" lon="6.16961">
        <ele>874</ele>
        <time>2014-10-12T15:06:00Z</time>
      </trkpt>
      <trkpt lat="44.33697" lon="6.1696">
        <ele>874</ele>
        <time>2014-10-12T15:06:06Z</time>
      </trkpt>
      <trkpt lat="44.33706" lon="6.16958">
        <ele>873</ele>
        <time>2014-10-12T15:06:15Z</time>
      </trkpt>
      <trkpt lat="44.33714" lon="6.16964">
        <ele>873</ele>
        <time>2014-10-12T15:06:35Z</time>
      </trkpt>
      <trkpt lat="44.33723" lon="6.16958">
        <ele>873</ele>
        <time>2014-10-12T15:06:43Z</time>
      </trkpt>
      <trkpt lat="44.33724" lon="6.16957">
        <ele>873</ele>
        <time>2014-10-12T15:06:50Z</time>
      </trkpt>
      <trkpt lat="44.33711" lon="6.16963">
        <ele>873</ele>
        <time>2014-10-12T15:14:01Z</time>
      </trkpt>
      <trkpt lat="44.33719" lon="6.16967">
        <ele>873</ele>
        <time>2014-10-12T15:14:15Z</time>
      </trkpt>
      <trkpt lat="44.33729" lon="6.16966">
        <ele>873</ele>
        <time>2014-10-12T15:14:21Z</time>
      </trkpt>
      <trkpt lat="44.33739" lon="6.16965">
        <ele>873</ele>
        <time>2014-10-12T15:14:29Z</time>
      </trkpt>
      <trkpt lat="44.33749" lon="6.1697">
        <ele>872</ele>
        <time>2014-10-12T15:14:40Z</time>
      </trkpt>
      <trkpt lat="44.33754" lon="6.16959">
        <ele>870</ele>
        <time>2014-10-12T15:14:51Z</time>
      </trkpt>
      <trkpt lat="44.33762" lon="6.16966">
        <ele>870</ele>
        <time>2014-10-12T15:15:24Z</time>
      </trkpt>
      <trkpt lat="44.33771" lon="6.16973">
        <ele>870</ele>
        <time>2014-10-12T15:15:33Z</time>
      </trkpt>
      <trkpt lat="44.33781" lon="6.16972">
        <ele>870</ele>
        <time>2014-10-12T15:15:43Z</time>
      </trkpt>
      <trkpt lat="44.33791" lon="6.16974">
        <ele>870</ele>
        <time>2014-10-12T15:15:54Z</time>
      </trkpt>
      <trkpt lat="44.338" lon="6.16971">
        <ele>870</ele>
        <time>2014-10-12T15:16:01Z</time>
      </trkpt>
      <trkpt lat="44.3381" lon="6.16968">
        <ele>870</ele>
        <time>2014-10-12T15:16:08Z</time>
      </trkpt>
      <trkpt lat="44.33822" lon="6.16966">
        <ele>870</ele>
        <time>2014-10-12T15:16:14Z</time>
      </trkpt>
      <trkpt lat="44.33829" lon="6.16958">
        <ele>870</ele>
        <time>2014-10-12T15:16:21Z</time>
      </trkpt>
      <trkpt lat="44.33831" lon="6.16945">
        <ele>869</ele>
        <time>2014-10-12T15:16:29Z</time>
      </trkpt>
      <trkpt lat="44.33832" lon="6.16932">
        <ele>869</ele>
        <time>2014-10-12T15:16:37Z</time>
      </trkpt>
      <trkpt lat="44.33836" lon="6.1692">
        <ele>869</ele>
        <time>2014-10-12T15:16:44Z</time>
      </trkpt>
      <trkpt lat="44.33843" lon="6.16928">
        <ele>871</ele>
        <time>2014-10-12T15:16:53Z</time>
      </trkpt>
      <trkpt lat="44.33852" lon="6.16932">
        <ele>871</ele>
        <time>2014-10-12T15:16:59Z</time>
      </trkpt>
      <trkpt lat="44.3386" lon="6.16941">
        <ele>872</ele>
        <time>2014-10-12T15:17:06Z</time>
      </trkpt>
      <trkpt lat="44.3387" lon="6.16945">
        <ele>873</ele>
        <time>2014-10-12T15:17:13Z</time>
      </trkpt>
      <trkpt lat="44.33876" lon="6.16956">
        <ele>873</ele>
        <time>2014-10-12T15:17:20Z</time>
      </trkpt>
      <trkpt lat="44.33883" lon="6.16966">
        <ele>874</ele>
        <time>2014-10-12T15:17:27Z</time>
      </trkpt>
      <trkpt lat="44.33887" lon="6.16978">
        <ele>874</ele>
        <time>2014-10-12T15:17:34Z</time>
      </trkpt>
      <trkpt lat="44.3389" lon="6.1699">
        <ele>874</ele>
        <time>2014-10-12T15:17:42Z</time>
      </trkpt>
      <trkpt lat="44.33892" lon="6.17003">
        <ele>874</ele>
        <time>2014-10-12T15:17:48Z</time>
      </trkpt>
      <trkpt lat="44.33895" lon="6.17016">
        <ele>874</ele>
        <time>2014-10-12T15:17:55Z</time>
      </trkpt>
      <trkpt lat="44.33895" lon="6.17029">
        <ele>874</ele>
        <time>2014-10-12T15:18:01Z</time>
      </trkpt>
      <trkpt lat="44.33898" lon="6.17043">
        <ele>873</ele>
        <time>2014-10-12T15:18:07Z</time>
      </trkpt>
      <trkpt lat="44.33903" lon="6.17053">
        <ele>873</ele>
        <time>2014-10-12T15:18:17Z</time>
      </trkpt>
      <trkpt lat="44.33907" lon="6.17066">
        <ele>873</ele>
        <time>2014-10-12T15:18:26Z</time>
      </trkpt>
      <trkpt lat="44.33912" lon="6.17078">
        <ele>872</ele>
        <time>2014-10-12T15:18:32Z</time>
      </trkpt>
      <trkpt lat="44.33918" lon="6.17089">
        <ele>873</ele>
        <time>2014-10-12T15:18:39Z</time>
      </trkpt>
      <trkpt lat="44.33923" lon="6.17101">
        <ele>875</ele>
        <time>2014-10-12T15:18:47Z</time>
      </trkpt>
      <trkpt lat="44.33926" lon="6.17113">
        <ele>876</ele>
        <time>2014-10-12T15:18:55Z</time>
      </trkpt>
      <trkpt lat="44.33928" lon="6.17127">
        <ele>876</ele>
        <time>2014-10-12T15:19:01Z</time>
      </trkpt>
      <trkpt lat="44.33932" lon="6.17139">
        <ele>876</ele>
        <time>2014-10-12T15:19:06Z</time>
      </trkpt>
      <trkpt lat="44.33938" lon="6.17148">
        <ele>876</ele>
        <time>2014-10-12T15:19:13Z</time>
      </trkpt>
      <trkpt lat="44.33943" lon="6.1716">
        <ele>876</ele>
        <time>2014-10-12T15:19:21Z</time>
      </trkpt>
      <trkpt lat="44.33946" lon="6.17173">
        <ele>875</ele>
        <time>2014-10-12T15:19:29Z</time>
      </trkpt>
      <trkpt lat="44.33953" lon="6.17181">
        <ele>876</ele>
        <time>2014-10-12T15:20:16Z</time>
      </trkpt>
      <trkpt lat="44.33959" lon="6.17192">
        <ele>876</ele>
        <time>2014-10-12T15:20:26Z</time>
      </trkpt>
      <trkpt lat="44.3396" lon="6.17205">
        <ele>876</ele>
        <time>2014-10-12T15:20:31Z</time>
      </trkpt>
      <trkpt lat="44.33964" lon="6.17217">
        <ele>876</ele>
        <time>2014-10-12T15:20:38Z</time>
      </trkpt>
      <trkpt lat="44.33967" lon="6.17229">
        <ele>876</ele>
        <time>2014-10-12T15:20:44Z</time>
      </trkpt>
      <trkpt lat="44.33973" lon="6.17241">
        <ele>876</ele>
        <time>2014-10-12T15:20:54Z</time>
      </trkpt>
      <trkpt lat="44.33973" lon="6.17255">
        <ele>876</ele>
        <time>2014-10-12T15:20:59Z</time>
      </trkpt>
      <trkpt lat="44.33974" lon="6.17269">
        <ele>876</ele>
        <time>2014-10-12T15:21:06Z</time>
      </trkpt>
      <trkpt lat="44.3398" lon="6.1728">
        <ele>876</ele>
        <time>2014-10-12T15:21:17Z</time>
      </trkpt>
      <trkpt lat="44.33982" lon="6.17294">
        <ele>876</ele>
        <time>2014-10-12T15:21:25Z</time>
      </trkpt>
      <trkpt lat="44.33981" lon="6.17307">
        <ele>877</ele>
        <time>2014-10-12T15:21:31Z</time>
      </trkpt>
      <trkpt lat="44.3398" lon="6.17324">
        <ele>877</ele>
        <time>2014-10-12T15:21:37Z</time>
      </trkpt>
      <trkpt lat="44.3398" lon="6.17337">
        <ele>877</ele>
        <time>2014-10-12T15:21:42Z</time>
      </trkpt>
      <trkpt lat="44.33987" lon="6.17344">
        <ele>877</ele>
        <time>2014-10-12T15:21:46Z</time>
      </trkpt>
      <trkpt lat="44.33993" lon="6.17354">
        <ele>877</ele>
        <time>2014-10-12T15:21:51Z</time>
      </trkpt>
      <trkpt lat="44.34" lon="6.17363">
        <ele>877</ele>
        <time>2014-10-12T15:21:57Z</time>
      </trkpt>
      <trkpt lat="44.34009" lon="6.17365">
        <ele>878</ele>
        <time>2014-10-12T15:22:05Z</time>
      </trkpt>
      <trkpt lat="44.34019" lon="6.17364">
        <ele>879</ele>
        <time>2014-10-12T15:22:12Z</time>
      </trkpt>
      <trkpt lat="44.34028" lon="6.17364">
        <ele>879</ele>
        <time>2014-10-12T15:22:19Z</time>
      </trkpt>
      <trkpt lat="44.34035" lon="6.17374">
        <ele>879</ele>
        <time>2014-10-12T15:22:26Z</time>
      </trkpt>
      <trkpt lat="44.34044" lon="6.17378">
        <ele>879</ele>
        <time>2014-10-12T15:22:35Z</time>
      </trkpt>
      <trkpt lat="44.34053" lon="6.17379">
        <ele>880</ele>
        <time>2014-10-12T15:22:46Z</time>
      </trkpt>
      <trkpt lat="44.34062" lon="6.17387">
        <ele>880</ele>
        <time>2014-10-12T15:22:53Z</time>
      </trkpt>
      <trkpt lat="44.34072" lon="6.17391">
        <ele>880</ele>
        <time>2014-10-12T15:22:59Z</time>
      </trkpt>
      <trkpt lat="44.34081" lon="6.17391">
        <ele>881</ele>
        <time>2014-10-12T15:23:06Z</time>
      </trkpt>
      <trkpt lat="44.3409" lon="6.17386">
        <ele>884</ele>
        <time>2014-10-12T15:23:14Z</time>
      </trkpt>
      <trkpt lat="44.34098" lon="6.17392">
        <ele>884</ele>
        <time>2014-10-12T15:23:24Z</time>
      </trkpt>
      <trkpt lat="44.34108" lon="6.17393">
        <ele>884</ele>
        <time>2014-10-12T15:23:35Z</time>
      </trkpt>
      <trkpt lat="44.34117" lon="6.17393">
        <ele>884</ele>
        <time>2014-10-12T15:23:44Z</time>
      </trkpt>
      <trkpt lat="44.34127" lon="6.17393">
        <ele>885</ele>
        <time>2014-10-12T15:23:53Z</time>
      </trkpt>
      <trkpt lat="44.34138" lon="6.17395">
        <ele>885</ele>
        <time>2014-10-12T15:24:05Z</time>
      </trkpt>
      <trkpt lat="44.34148" lon="6.17395">
        <ele>885</ele>
        <time>2014-10-12T15:24:11Z</time>
      </trkpt>
      <trkpt lat="44.34157" lon="6.17398">
        <ele>885</ele>
        <time>2014-10-12T15:24:17Z</time>
      </trkpt>
      <trkpt lat="44.34164" lon="6.17408">
        <ele>885</ele>
        <time>2014-10-12T15:24:28Z</time>
      </trkpt>
      <trkpt lat="44.34172" lon="6.17415">
        <ele>886</ele>
        <time>2014-10-12T15:24:37Z</time>
      </trkpt>
      <trkpt lat="44.34172" lon="6.17415">
        <ele>886</ele>
        <time>2014-10-12T15:24:37Z</time>
      </trkpt>
      <trkpt lat="44.34172" lon="6.17415">
        <ele>886</ele>
        <time>2014-10-12T15:24:37Z</time>
      </trkpt>
    </trkseg>
  </trk>
</gpx>